GFSNE_prec_precacc24_036.txt.gz
Total_Precipitation_Accumulation
0.00 0.00 0.00 0.00 0.00 0.00 0.00 0.00 0.00 0.00 0.00 0.00 0.00 0.00 0.00 0.00 0.00 0.00 0.00 0.00 0.00 0.00 0.00 0.00 0.00 0.01 0.01 0.02 0.04 0.06 0.07 0.09 0.09 0.12 0.15 0.18 0.26 0.38
0.00 0.00 0.00 0.00 0.00 0.00 0.00 0.00 0.00 0.00 0.00 0.00 0.00 0.00 0.00 0.00 0.00 0.00 0.00 0.00 0.00 0.00 0.00 0.01 0.03 0.04 0.03 0.03 0.03 0.03 0.03 0.07 0.12 0.16 0.18 0.21 0.25 0.28
0.00 0.00 0.00 0.00 0.00 0.00 0.00 0.00 0.00 0.00 0.00 0.00 0.00 0.00 0.00 0.00 0.00 0.00 0.00 0.00 0.02 0.04 0.03 0.02 0.01 0.01 0.00 0.02 0.05 0.06 0.07 0.11 0.13 0.17 0.21 0.25 0.30 0.32
0.00 0.00 0.00 0.00 0.00 0.00 0.00 0.00 0.00 0.00 0.00 0.02 0.00 0.00 0.00 0.00 0.00 0.00 0.01 0.03 0.02 0.00 0.00 0.00 0.00 0.01 0.01 0.01 0.03 0.05 0.07 0.09 0.11 0.14 0.17 0.19 0.20 0.23
0.00 0.00 0.00 0.00 0.00 0.00 0.00 0.00 0.00 0.00 0.02 0.05 0.01 0.00 0.00 0.01 0.02 0.01 0.00 0.00 0.00 0.00 0.00 0.00 0.00 0.00 0.01 0.02 0.04 0.06 0.09 0.12 0.13 0.13 0.14 0.15 0.16 0.16
0.00 0.00 0.00 0.00 0.00 0.00 0.00 0.00 0.01 0.02 0.01 0.03 0.12 0.11 0.07 0.05 0.04 0.01 0.00 0.00 0.00 0.00 0.00 0.00 0.01 0.02 0.02 0.03 0.02 0.02 0.01 0.02 0.01 0.03 0.04 0.06 0.07 0.06
0.00 0.00 0.00 0.00 0.00 0.00 0.01 0.01 0.03 0.04 0.17 0.31 0.27 0.24 0.14 0.02 0.00 0.00 0.01 0.02 0.03 0.01 0.01 0.01 0.01 0.01 0.00 0.00 0.00 0.00 0.01 0.03 0.07 0.11 0.13 0.14 0.16 0.15
0.00 0.00 0.00 0.00 0.00 0.00 0.01 0.03 0.06 0.17 0.30 0.43 0.34 0.10 0.01 0.00 0.01 0.05 0.15 0.13 0.08 0.00 0.01 0.01 0.00 0.00 0.00 0.00 0.01 0.03 0.05 0.05 0.05 0.07 0.10 0.12 0.13 0.14
0.00 0.00 0.00 0.00 0.00 0.00 0.00 0.05 0.15 0.27 0.24 0.10 0.03 0.01 0.02 0.06 0.25 0.23 0.11 0.09 0.06 0.01 0.03 0.05 0.01 0.01 0.01 0.01 0.01 0.01 0.02 0.03 0.04 0.06 0.08 0.10 0.10 0.09
0.00 0.00 0.00 0.00 0.01 0.03 0.06 0.21 0.20 0.09 0.01 0.00 0.01 0.03 0.08 0.10 0.07 0.05 0.06 0.09 0.05 0.01 0.02 0.12 0.03 0.01 0.00 0.00 0.00 0.01 0.03 0.10 0.16 0.19 0.18 0.17 0.14 0.12
0.00 0.00 0.02 0.02 0.02 0.08 0.17 0.20 0.04 0.00 0.00 0.01 0.07 0.04 0.01 0.00 0.01 0.15 0.20 0.18 0.11 0.01 0.01 0.09 0.05 0.01 0.00 0.00 0.00 0.05 0.12 0.11 0.07 0.05 0.07 0.08 0.11 0.13
0.00 0.00 0.01 0.02 0.05 0.20 0.10 0.02 0.02 0.01 0.11 0.07 0.01 0.00 0.00 0.00 0.01 0.04 0.19 0.46 0.19 0.14 0.01 0.23 0.12 0.08 0.29 0.02 0.01 0.01 0.02 0.03 0.04 0.05 0.07 0.10 0.11 0.13
0.02 0.01 0.00 0.04 0.15 0.08 0.02 0.01 0.02 0.04 0.04 0.00 0.00 0.00 0.00 0.00 0.01 0.01 0.07 0.43 0.60 0.35 0.02 0.41 0.44 0.08 0.25 0.09 0.01 0.01 0.01 0.10 0.25 0.35 0.42 0.32 0.31 0.33
0.02 0.01 0.03 0.12 0.04 0.00 0.00 0.02 0.03 0.02 0.00 0.00 0.01 0.01 0.01 0.02 0.01 0.01 0.02 0.07 0.20 0.48 0.19 0.28 0.63 0.27 0.38 0.16 0.03 0.00 0.02 0.24 0.65 0.92 1.04 0.51 0.38 0.38
0.03 0.07 0.08 0.01 0.00 0.00 0.00 0.01 0.01 0.00 0.02 0.07 0.05 0.02 0.02 0.02 0.02 0.03 0.02 0.01 0.02 0.05 0.10 0.16 0.41 0.30 0.28 0.25 0.15 0.03 0.18 0.23 0.47 0.73 0.81 0.92 0.79 0.51
0.06 0.10 0.01 0.00 0.00 0.00 0.00 0.00 0.00 0.01 0.06 0.11 0.09 0.04 0.02 0.03 0.04 0.07 0.15 0.06 0.13 0.04 0.06 0.10 0.19 0.30 0.24 0.09 0.24 0.19 0.20 0.48 0.50 0.62 0.66 0.84 0.89 0.53
0.03 0.00 0.00 0.00 0.00 0.00 0.00 0.00 0.00 0.01 0.05 0.05 0.09 0.08 0.04 0.04 0.04 0.05 0.16 0.19 0.25 0.17 0.10 0.06 0.05 0.07 0.13 0.16 0.15 0.16 0.27 0.40 0.68 0.80 0.67 0.82 0.85 0.75
0.00 0.00 0.00 0.00 0.01 0.00 0.01 0.01 0.01 0.02 0.06 0.09 0.07 0.08 0.14 0.13 0.13 0.08 0.14 0.22 0.22 0.14 0.15 0.12 0.08 0.05 0.07 0.10 0.21 0.40 0.40 0.53 0.73 0.69 0.65 0.60 0.75 0.91
0.00 0.01 0.01 0.01 0.01 0.01 0.02 0.04 0.06 0.04 0.08 0.11 0.12 0.16 0.19 0.12 0.10 0.13 0.13 0.13 0.10 0.08 0.10 0.10 0.15 0.18 0.18 0.13 0.13 0.44 0.64 0.62 0.57 0.49 0.50 0.52 0.68 0.81
0.01 0.01 0.02 0.01 0.02 0.03 0.06 0.10 0.10 0.05 0.05 0.08 0.14 0.12 0.15 0.17 0.13 0.13 0.11 0.15 0.14 0.09 0.02 0.02 0.08 0.22 0.36 0.38 0.31 0.51 0.59 0.63 0.48 0.57 0.69 0.58 0.73 0.62
0.01 0.01 0.01 0.02 0.03 0.06 0.09 0.11 0.11 0.14 0.18 0.18 0.09 0.11 0.13 0.18 0.10 0.08 0.10 0.09 0.12 0.08 0.04 0.02 0.04 0.18 0.26 0.15 0.20 0.29 0.49 0.52 0.44 0.49 0.49 0.32 0.41 0.27
0.01 0.02 0.01 0.02 0.06 0.10 0.12 0.10 0.10 0.06 0.09 0.08 0.08 0.11 0.12 0.16 0.20 0.13 0.11 0.15 0.10 0.12 0.07 0.01 0.01 0.06 0.07 0.07 0.13 0.19 0.21 0.22 0.24 0.18 0.28 0.47 0.49 0.64
0.02 0.02 0.02 0.04 0.08 0.10 0.10 0.08 0.07 0.05 0.09 0.13 0.11 0.11 0.15 0.17 0.13 0.14 0.13 0.14 0.14 0.10 0.05 0.03 0.01 0.02 0.04 0.06 0.05 0.08 0.07 0.07 0.08 0.11 0.33 0.34 0.45 0.61

GFSNE_prec_precacc24_039.txt.gz
Total_Precipitation_Accumulation
0.00 0.00 0.00 0.00 0.00 0.00 0.00 0.00 0.00 0.00 0.00 0.00 0.00 0.00 0.00 0.00 0.00 0.00 0.00 0.00 0.00 0.00 0.00 0.00 0.00 0.01 0.01 0.02 0.04 0.06 0.07 0.09 0.09 0.10 0.11 0.12 0.13 0.15
0.00 0.00 0.00 0.00 0.00 0.00 0.00 0.00 0.00 0.00 0.00 0.00 0.00 0.00 0.00 0.00 0.00 0.00 0.00 0.00 0.00 0.00 0.00 0.01 0.03 0.04 0.03 0.03 0.03 0.03 0.03 0.07 0.12 0.17 0.20 0.21 0.22 0.23
0.00 0.00 0.00 0.00 0.00 0.00 0.00 0.00 0.00 0.00 0.00 0.00 0.00 0.00 0.00 0.00 0.00 0.00 0.00 0.00 0.02 0.04 0.03 0.02 0.01 0.01 0.00 0.02 0.05 0.06 0.07 0.11 0.13 0.17 0.22 0.26 0.28 0.30
0.00 0.00 0.00 0.00 0.00 0.00 0.00 0.00 0.00 0.00 0.00 0.01 0.00 0.00 0.00 0.00 0.00 0.00 0.01 0.03 0.02 0.00 0.00 0.00 0.00 0.01 0.01 0.02 0.03 0.05 0.06 0.09 0.11 0.15 0.18 0.21 0.20 0.21
0.00 0.00 0.00 0.00 0.00 0.00 0.00 0.00 0.00 0.00 0.01 0.04 0.01 0.00 0.00 0.01 0.02 0.01 0.00 0.00 0.00 0.00 0.00 0.00 0.00 0.00 0.01 0.02 0.04 0.05 0.08 0.11 0.12 0.13 0.14 0.15 0.16 0.16
0.00 0.00 0.00 0.00 0.00 0.00 0.00 0.00 0.01 0.01 0.00 0.02 0.11 0.10 0.07 0.06 0.04 0.01 0.00 0.00 0.00 0.00 0.00 0.00 0.01 0.01 0.00 0.01 0.01 0.01 0.01 0.01 0.01 0.02 0.04 0.06 0.06 0.06
0.00 0.00 0.00 0.00 0.00 0.00 0.01 0.01 0.01 0.03 0.16 0.30 0.26 0.24 0.14 0.02 0.00 0.00 0.01 0.02 0.03 0.01 0.00 0.00 0.00 0.00 0.00 0.00 0.00 0.00 0.01 0.03 0.07 0.11 0.12 0.14 0.16 0.16
0.00 0.00 0.00 0.00 0.00 0.00 0.01 0.03 0.05 0.16 0.29 0.42 0.32 0.10 0.01 0.00 0.01 0.05 0.14 0.14 0.08 0.00 0.00 0.01 0.00 0.00 0.00 0.00 0.01 0.03 0.05 0.05 0.05 0.07 0.09 0.12 0.14 0.15
0.00 0.00 0.00 0.00 0.00 0.00 0.00 0.05 0.14 0.24 0.22 0.09 0.02 0.01 0.02 0.05 0.23 0.21 0.10 0.09 0.05 0.01 0.03 0.04 0.00 0.01 0.01 0.01 0.01 0.01 0.01 0.03 0.03 0.05 0.08 0.10 0.10 0.10
0.00 0.00 0.00 0.00 0.01 0.03 0.06 0.20 0.17 0.08 0.00 0.00 0.01 0.02 0.07 0.09 0.07 0.06 0.06 0.08 0.03 0.00 0.01 0.08 0.01 0.01 0.00 0.00 0.00 0.01 0.01 0.06 0.12 0.16 0.17 0.17 0.15 0.14
0.00 0.00 0.02 0.02 0.02 0.07 0.15 0.17 0.03 0.00 0.00 0.01 0.07 0.04 0.01 0.00 0.01 0.14 0.17 0.16 0.09 0.00 0.00 0.03 0.02 0.00 0.00 0.00 0.00 0.01 0.07 0.09 0.06 0.05 0.07 0.09 0.12 0.15
0.00 0.00 0.01 0.02 0.04 0.19 0.10 0.02 0.01 0.00 0.10 0.07 0.01 0.00 0.00 0.00 0.00 0.04 0.17 0.42 0.16 0.13 0.00 0.16 0.09 0.06 0.24 0.02 0.00 0.00 0.00 0.01 0.02 0.04 0.07 0.10 0.13 0.16
0.01 0.00 0.00 0.04 0.14 0.08 0.02 0.00 0.01 0.04 0.04 0.00 0.00 0.00 0.00 0.00 0.00 0.01 0.07 0.42 0.57 0.33 0.01 0.38 0.41 0.07 0.22 0.07 0.01 0.00 0.01 0.04 0.17 0.30 0.41 0.31 0.30 0.35
0.01 0.00 0.02 0.10 0.04 0.00 0.00 0.01 0.03 0.02 0.00 0.00 0.01 0.00 0.00 0.01 0.01 0.01 0.02 0.07 0.19 0.46 0.18 0.26 0.61 0.25 0.38 0.16 0.03 0.00 0.00 0.11 0.51 0.84 1.02 0.49 0.33 0.32
0.02 0.06 0.06 0.01 0.00 0.00 0.00 0.01 0.01 0.00 0.01 0.06 0.04 0.02 0.02 0.02 0.02 0.03 0.02 0.01 0.02 0.05 0.09 0.13 0.36 0.30 0.29 0.27 0.16 0.03 0.15 0.12 0.31 0.64 0.76 0.88 0.76 0.49
0.04 0.07 0.00 0.00 0.00 0.00 0.00 0.00 0.00 0.00 0.05 0.10 0.08 0.03 0.02 0.03 0.04 0.06 0.12 0.05 0.10 0.02 0.02 0.06 0.17 0.29 0.25 0.10 0.24 0.18 0.16 0.40 0.35 0.47 0.54 0.70 0.74 0.40
0.02 0.00 0.00 0.00 0.00 0.00 0.00 0.00 0.00 0.01 0.04 0.04 0.07 0.07 0.03 0.03 0.03 0.03 0.11 0.14 0.17 0.11 0.06 0.02 0.01 0.05 0.08 0.13 0.12 0.12 0.24 0.32 0.51 0.62 0.58 0.72 0.65 0.50
0.00 0.00 0.00 0.00 0.00 0.00 0.00 0.01 0.01 0.01 0.04 0.07 0.05 0.06 0.10 0.09 0.08 0.04 0.07 0.14 0.17 0.09 0.11 0.07 0.05 0.03 0.03 0.05 0.16 0.36 0.35 0.43 0.59 0.58 0.59 0.58 0.64 0.75
0.00 0.00 0.01 0.01 0.00 0.01 0.02 0.04 0.05 0.03 0.05 0.08 0.09 0.12 0.15 0.08 0.06 0.06 0.06 0.08 0.06 0.06 0.08 0.08 0.12 0.15 0.15 0.09 0.07 0.36 0.57 0.51 0.48 0.44 0.47 0.52 0.66 0.72
0.00 0.01 0.01 0.01 0.01 0.03 0.06 0.08 0.08 0.04 0.04 0.06 0.10 0.10 0.13 0.15 0.10 0.09 0.08 0.13 0.14 0.10 0.03 0.02 0.06 0.17 0.34 0.35 0.28 0.39 0.48 0.53 0.47 0.56 0.64 0.54 0.69 0.54
0.01 0.01 0.00 0.01 0.03 0.06 0.07 0.08 0.08 0.11 0.15 0.16 0.09 0.11 0.13 0.19 0.10 0.08 0.10 0.09 0.13 0.09 0.05 0.02 0.04 0.18 0.24 0.12 0.16 0.20 0.37 0.42 0.39 0.51 0.48 0.31 0.38 0.21
0.00 0.01 0.00 0.02 0.05 0.09 0.09 0.07 0.07 0.04 0.08 0.08 0.09 0.12 0.13 0.16 0.20 0.14 0.11 0.14 0.09 0.12 0.08 0.02 0.01 0.06 0.08 0.07 0.12 0.17 0.18 0.18 0.21 0.16 0.28 0.51 0.56 0.71
0.01 0.02 0.01 0.04 0.07 0.08 0.07 0.06 0.06 0.05 0.09 0.14 0.12 0.13 0.16 0.18 0.13 0.14 0.13 0.13 0.13 0.09 0.04 0.02 0.00 0.02 0.04 0.07 0.06 0.08 0.07 0.07 0.08 0.11 0.33 0.34 0.46 0.66

GFSNE_prec_precacc24_042.txt.gz
Total_Precipitation_Accumulation
0.00 0.00 0.00 0.00 0.00 0.00 0.00 0.00 0.00 0.00 0.00 0.00 0.00 0.00 0.00 0.00 0.00 0.00 0.00 0.00 0.00 0.00 0.00 0.00 0.00 0.01 0.01 0.02 0.04 0.06 0.07 0.09 0.09 0.11 0.16 0.16 0.15 0.16
0.00 0.00 0.00 0.00 0.00 0.00 0.00 0.00 0.00 0.00 0.00 0.00 0.00 0.00 0.00 0.00 0.00 0.00 0.00 0.00 0.00 0.00 0.00 0.01 0.03 0.04 0.03 0.03 0.03 0.03 0.03 0.07 0.12 0.18 0.23 0.26 0.26 0.26
0.00 0.00 0.00 0.00 0.00 0.00 0.00 0.00 0.00 0.00 0.00 0.00 0.00 0.00 0.00 0.00 0.00 0.00 0.00 0.00 0.02 0.04 0.03 0.02 0.01 0.01 0.00 0.02 0.05 0.06 0.07 0.11 0.14 0.17 0.22 0.29 0.31 0.31
0.00 0.00 0.00 0.00 0.00 0.00 0.00 0.00 0.00 0.00 0.00 0.01 0.00 0.00 0.00 0.00 0.00 0.00 0.01 0.03 0.02 0.00 0.00 0.00 0.00 0.00 0.01 0.01 0.03 0.05 0.06 0.08 0.10 0.13 0.16 0.19 0.20 0.22
0.00 0.00 0.00 0.00 0.00 0.00 0.00 0.00 0.00 0.00 0.01 0.03 0.01 0.00 0.00 0.01 0.02 0.01 0.00 0.00 0.00 0.00 0.00 0.00 0.00 0.00 0.01 0.02 0.03 0.05 0.07 0.09 0.10 0.11 0.12 0.14 0.16 0.16
0.00 0.00 0.00 0.00 0.00 0.00 0.00 0.00 0.00 0.00 0.00 0.02 0.11 0.10 0.07 0.06 0.03 0.01 0.00 0.00 0.00 0.00 0.00 0.00 0.01 0.01 0.00 0.00 0.00 0.00 0.00 0.01 0.01 0.02 0.04 0.05 0.06 0.07
0.00 0.00 0.00 0.00 0.00 0.00 0.01 0.01 0.01 0.03 0.14 0.27 0.23 0.21 0.10 0.01 0.00 0.00 0.01 0.02 0.03 0.01 0.00 0.00 0.00 0.00 0.00 0.00 0.00 0.00 0.01 0.03 0.06 0.09 0.11 0.13 0.16 0.16
0.00 0.00 0.00 0.00 0.00 0.00 0.01 0.02 0.03 0.13 0.28 0.37 0.27 0.06 0.00 0.00 0.00 0.05 0.14 0.13 0.07 0.00 0.00 0.01 0.00 0.00 0.00 0.00 0.00 0.01 0.03 0.04 0.05 0.06 0.09 0.12 0.14 0.15
0.00 0.00 0.00 0.00 0.00 0.00 0.00 0.04 0.13 0.20 0.20 0.09 0.02 0.00 0.01 0.05 0.23 0.19 0.08 0.08 0.06 0.01 0.02 0.04 0.00 0.00 0.00 0.00 0.00 0.00 0.01 0.02 0.02 0.04 0.07 0.09 0.10 0.10
0.00 0.00 0.00 0.00 0.01 0.02 0.05 0.18 0.16 0.07 0.00 0.00 0.01 0.02 0.06 0.09 0.07 0.09 0.08 0.08 0.03 0.00 0.00 0.06 0.00 0.00 0.00 0.00 0.00 0.00 0.00 0.03 0.07 0.12 0.14 0.15 0.14 0.13
0.00 0.00 0.01 0.01 0.01 0.05 0.13 0.16 0.03 0.00 0.00 0.01 0.06 0.04 0.01 0.00 0.01 0.14 0.15 0.14 0.07 0.00 0.00 0.03 0.02 0.00 0.00 0.00 0.00 0.00 0.01 0.04 0.04 0.05 0.06 0.08 0.12 0.16
0.00 0.00 0.01 0.02 0.03 0.15 0.08 0.02 0.01 0.00 0.09 0.06 0.01 0.00 0.00 0.00 0.00 0.03 0.16 0.39 0.14 0.12 0.00 0.17 0.09 0.05 0.23 0.02 0.00 0.00 0.00 0.00 0.01 0.03 0.07 0.10 0.12 0.17
0.01 0.00 0.00 0.03 0.11 0.07 0.03 0.00 0.01 0.03 0.04 0.00 0.00 0.00 0.00 0.00 0.00 0.01 0.06 0.41 0.54 0.31 0.01 0.39 0.40 0.06 0.21 0.06 0.00 0.00 0.00 0.01 0.09 0.17 0.29 0.29 0.30 0.36
0.01 0.00 0.02 0.08 0.03 0.00 0.00 0.01 0.03 0.02 0.00 0.00 0.00 0.00 0.00 0.01 0.01 0.01 0.02 0.07 0.19 0.44 0.17 0.25 0.59 0.24 0.35 0.15 0.02 0.00 0.00 0.07 0.36 0.55 0.83 0.43 0.31 0.30
0.02 0.04 0.04 0.01 0.00 0.00 0.00 0.00 0.01 0.00 0.01 0.04 0.02 0.01 0.01 0.02 0.02 0.02 0.01 0.01 0.02 0.04 0.08 0.10 0.29 0.25 0.29 0.29 0.16 0.03 0.13 0.08 0.15 0.43 0.69 0.81 0.72 0.49
0.02 0.04 0.00 0.00 0.00 0.00 0.00 0.00 0.00 0.00 0.05 0.08 0.05 0.02 0.02 0.02 0.03 0.04 0.08 0.03 0.07 0.01 0.00 0.03 0.14 0.28 0.28 0.11 0.24 0.18 0.14 0.36 0.27 0.38 0.47 0.62 0.62 0.36
0.01 0.00 0.00 0.00 0.00 0.00 0.00 0.00 0.00 0.00 0.02 0.02 0.05 0.06 0.03 0.02 0.02 0.02 0.08 0.10 0.12 0.07 0.04 0.01 0.00 0.04 0.07 0.10 0.14 0.10 0.22 0.27 0.43 0.47 0.44 0.60 0.47 0.31
0.00 0.00 0.00 0.00 0.00 0.00 0.00 0.01 0.00 0.01 0.02 0.05 0.04 0.04 0.08 0.07 0.06 0.03 0.04 0.11 0.14 0.06 0.08 0.05 0.04 0.03 0.01 0.01 0.16 0.34 0.32 0.35 0.51 0.46 0.43 0.50 0.47 0.42
0.00 0.00 0.00 0.00 0.00 0.00 0.02 0.03 0.03 0.01 0.04 0.06 0.07 0.09 0.13 0.08 0.04 0.05 0.05 0.07 0.06 0.06 0.07 0.06 0.10 0.14 0.15 0.07 0.04 0.30 0.54 0.44 0.42 0.39 0.40 0.44 0.56 0.50
0.00 0.00 0.01 0.00 0.01 0.03 0.04 0.06 0.06 0.02 0.03 0.04 0.09 0.10 0.12 0.14 0.08 0.08 0.07 0.13 0.15 0.11 0.03 0.02 0.04 0.15 0.36 0.35 0.25 0.28 0.39 0.46 0.45 0.55 0.59 0.48 0.59 0.42
0.00 0.00 0.00 0.01 0.03 0.05 0.05 0.06 0.06 0.10 0.14 0.16 0.09 0.11 0.13 0.20 0.09 0.06 0.09 0.08 0.12 0.09 0.05 0.02 0.04 0.16 0.20 0.09 0.12 0.13 0.22 0.31 0.36 0.52 0.49 0.33 0.35 0.17
0.00 0.01 0.00 0.01 0.04 0.06 0.06 0.05 0.06 0.04 0.08 0.07 0.09 0.12 0.14 0.16 0.20 0.14 0.10 0.13 0.08 0.09 0.07 0.01 0.01 0.06 0.06 0.06 0.09 0.12 0.12 0.11 0.14 0.12 0.27 0.55 0.64 0.76
0.01 0.01 0.01 0.03 0.05 0.06 0.06 0.06 0.06 0.05 0.09 0.13 0.12 0.15 0.18 0.19 0.15 0.14 0.12 0.12 0.12 0.09 0.04 0.01 0.00 0.02 0.04 0.06 0.06 0.07 0.06 0.05 0.05 0.10 0.31 0.33 0.45 0.66

GFSNE_prec_precacc24_045.txt.gz
Total_Precipitation_Accumulation
0.00 0.00 0.00 0.00 0.00 0.00 0.00 0.00 0.00 0.00 0.00 0.00 0.00 0.00 0.00 0.00 0.00 0.00 0.00 0.00 0.00 0.00 0.00 0.00 0.00 0.00 0.01 0.02 0.04 0.06 0.08 0.10 0.12 0.16 0.21 0.20 0.20 0.20
0.00 0.00 0.00 0.00 0.00 0.00 0.00 0.00 0.00 0.00 0.00 0.00 0.00 0.00 0.00 0.00 0.00 0.00 0.00 0.00 0.00 0.00 0.00 0.01 0.02 0.03 0.03 0.03 0.03 0.03 0.04 0.07 0.12 0.20 0.28 0.32 0.31 0.31
0.00 0.00 0.00 0.00 0.00 0.00 0.00 0.00 0.00 0.00 0.00 0.00 0.00 0.00 0.00 0.00 0.00 0.00 0.00 0.00 0.02 0.04 0.02 0.02 0.01 0.01 0.00 0.01 0.04 0.05 0.06 0.09 0.13 0.16 0.22 0.31 0.33 0.34
0.00 0.00 0.00 0.00 0.00 0.00 0.00 0.00 0.00 0.00 0.00 0.01 0.00 0.00 0.00 0.00 0.00 0.00 0.01 0.03 0.02 0.00 0.00 0.00 0.00 0.00 0.01 0.01 0.03 0.05 0.06 0.08 0.10 0.13 0.14 0.16 0.16 0.19
0.00 0.00 0.00 0.00 0.00 0.00 0.00 0.00 0.00 0.00 0.01 0.02 0.00 0.00 0.00 0.01 0.02 0.01 0.00 0.00 0.00 0.00 0.00 0.00 0.00 0.00 0.01 0.02 0.03 0.04 0.07 0.08 0.08 0.08 0.08 0.10 0.13 0.15
0.00 0.00 0.00 0.00 0.00 0.00 0.00 0.00 0.00 0.00 0.00 0.01 0.07 0.07 0.06 0.05 0.02 0.00 0.00 0.00 0.00 0.00 0.00 0.00 0.00 0.00 0.00 0.00 0.00 0.00 0.00 0.01 0.01 0.02 0.03 0.04 0.06 0.07
0.00 0.00 0.00 0.00 0.00 0.00 0.01 0.01 0.01 0.02 0.10 0.21 0.19 0.18 0.09 0.01 0.00 0.00 0.00 0.01 0.03 0.01 0.00 0.00 0.00 0.00 0.00 0.00 0.00 0.00 0.00 0.01 0.03 0.05 0.08 0.11 0.14 0.15
0.00 0.00 0.00 0.00 0.00 0.00 0.01 0.02 0.02 0.11 0.24 0.30 0.24 0.06 0.01 0.00 0.00 0.03 0.13 0.11 0.05 0.00 0.00 0.01 0.00 0.00 0.00 0.00 0.00 0.00 0.01 0.02 0.02 0.04 0.08 0.11 0.14 0.16
0.00 0.00 0.00 0.00 0.00 0.00 0.00 0.03 0.10 0.15 0.16 0.08 0.02 0.00 0.00 0.04 0.19 0.16 0.07 0.08 0.06 0.01 0.02 0.03 0.00 0.00 0.00 0.00 0.00 0.00 0.00 0.01 0.02 0.04 0.06 0.09 0.10 0.10
0.00 0.00 0.00 0.00 0.00 0.02 0.05 0.17 0.14 0.06 0.00 0.00 0.00 0.01 0.05 0.08 0.06 0.12 0.10 0.08 0.02 0.00 0.00 0.06 0.00 0.00 0.00 0.00 0.00 0.00 0.00 0.01 0.03 0.05 0.07 0.10 0.12 0.12
0.00 0.00 0.01 0.01 0.01 0.04 0.11 0.11 0.02 0.00 0.00 0.00 0.04 0.03 0.01 0.00 0.01 0.13 0.12 0.11 0.06 0.00 0.00 0.03 0.02 0.00 0.00 0.00 0.00 0.00 0.00 0.01 0.01 0.03 0.06 0.08 0.11 0.15
0.00 0.00 0.01 0.01 0.03 0.12 0.06 0.02 0.01 0.00 0.09 0.05 0.01 0.00 0.00 0.00 0.00 0.03 0.14 0.34 0.13 0.11 0.00 0.16 0.08 0.05 0.21 0.01 0.00 0.00 0.00 0.00 0.00 0.02 0.06 0.09 0.11 0.16
0.00 0.00 0.00 0.03 0.07 0.04 0.03 0.00 0.01 0.03 0.04 0.00 0.00 0.00 0.00 0.00 0.00 0.01 0.05 0.35 0.48 0.26 0.01 0.37 0.37 0.05 0.21 0.06 0.00 0.00 0.00 0.00 0.05 0.11 0.24 0.27 0.29 0.35
0.01 0.00 0.01 0.05 0.02 0.00 0.00 0.01 0.02 0.01 0.00 0.00 0.00 0.00 0.00 0.01 0.01 0.01 0.02 0.05 0.16 0.36 0.13 0.22 0.57 0.22 0.34 0.15 0.02 0.00 0.00 0.03 0.20 0.28 0.37 0.31 0.29 0.30
0.01 0.03 0.02 0.01 0.00 0.00 0.00 0.00 0.01 0.00 0.01 0.03 0.01 0.01 0.01 0.01 0.01 0.01 0.01 0.00 0.01 0.03 0.05 0.06 0.26 0.23 0.31 0.30 0.17 0.03 0.10 0.06 0.08 0.27 0.45 0.57 0.69 0.48
0.01 0.01 0.00 0.00 0.00 0.00 0.00 0.00 0.00 0.00 0.03 0.05 0.03 0.01 0.01 0.01 0.01 0.02 0.06 0.02 0.06 0.00 0.00 0.02 0.11 0.28 0.30 0.12 0.24 0.17 0.08 0.30 0.23 0.32 0.41 0.46 0.45 0.31
0.01 0.00 0.00 0.00 0.00 0.00 0.00 0.00 0.00 0.00 0.01 0.01 0.03 0.04 0.02 0.01 0.01 0.01 0.05 0.10 0.11 0.05 0.03 0.00 0.00 0.04 0.07 0.10 0.13 0.08 0.17 0.22 0.35 0.36 0.35 0.46 0.30 0.16
0.00 0.00 0.00 0.00 0.00 0.00 0.00 0.00 0.00 0.00 0.01 0.04 0.03 0.03 0.07 0.05 0.05 0.02 0.03 0.10 0.13 0.05 0.06 0.03 0.03 0.04 0.01 0.01 0.12 0.30 0.27 0.27 0.38 0.35 0.33 0.44 0.29 0.19
0.00 0.00 0.00 0.00 0.00 0.00 0.01 0.02 0.02 0.00 0.02 0.05 0.05 0.07 0.12 0.08 0.04 0.04 0.03 0.05 0.05 0.04 0.05 0.04 0.08 0.15 0.17 0.06 0.02 0.21 0.49 0.36 0.30 0.29 0.29 0.35 0.40 0.29
0.00 0.00 0.00 0.00 0.01 0.02 0.03 0.04 0.04 0.02 0.02 0.03 0.08 0.10 0.13 0.16 0.08 0.07 0.05 0.11 0.14 0.11 0.03 0.01 0.03 0.14 0.40 0.37 0.25 0.17 0.27 0.40 0.43 0.50 0.50 0.41 0.45 0.29
0.00 0.00 0.00 0.01 0.02 0.03 0.04 0.04 0.05 0.09 0.13 0.16 0.09 0.11 0.13 0.21 0.10 0.04 0.07 0.07 0.11 0.09 0.06 0.01 0.03 0.13 0.19 0.10 0.10 0.08 0.13 0.21 0.32 0.52 0.48 0.32 0.30 0.14
0.00 0.01 0.00 0.01 0.03 0.05 0.05 0.04 0.05 0.04 0.07 0.07 0.09 0.13 0.15 0.17 0.21 0.15 0.10 0.14 0.08 0.08 0.07 0.02 0.01 0.04 0.04 0.08 0.08 0.08 0.07 0.05 0.10 0.10 0.26 0.56 0.69 0.76
0.01 0.01 0.01 0.03 0.04 0.04 0.05 0.05 0.06 0.05 0.08 0.14 0.13 0.16 0.19 0.18 0.13 0.14 0.12 0.11 0.12 0.10 0.05 0.02 0.00 0.02 0.03 0.06 0.06 0.07 0.03 0.03 0.04 0.09 0.24 0.29 0.42 0.63

GFSNE_prec_precacc24_048.txt.gz
Total_Precipitation_Accumulation
0.00 0.00 0.00 0.00 0.00 0.00 0.00 0.00 0.00 0.00 0.00 0.00 0.00 0.00 0.00 0.00 0.00 0.00 0.00 0.00 0.00 0.00 0.00 0.00 0.00 0.00 0.01 0.02 0.04 0.06 0.07 0.10 0.14 0.18 0.23 0.23 0.24 0.24
0.00 0.00 0.00 0.00 0.00 0.00 0.00 0.00 0.00 0.00 0.00 0.00 0.00 0.00 0.00 0.00 0.00 0.00 0.00 0.00 0.00 0.00 0.00 0.01 0.02 0.01 0.01 0.01 0.02 0.03 0.04 0.07 0.13 0.21 0.30 0.34 0.33 0.32
0.00 0.00 0.00 0.00 0.00 0.00 0.00 0.00 0.00 0.00 0.00 0.00 0.00 0.00 0.00 0.00 0.00 0.00 0.00 0.00 0.01 0.04 0.02 0.01 0.00 0.01 0.00 0.01 0.04 0.05 0.06 0.09 0.12 0.16 0.21 0.32 0.35 0.35
0.00 0.00 0.00 0.00 0.00 0.00 0.00 0.00 0.00 0.00 0.00 0.01 0.00 0.00 0.00 0.00 0.00 0.00 0.01 0.02 0.02 0.00 0.00 0.00 0.00 0.00 0.01 0.01 0.03 0.04 0.06 0.07 0.09 0.12 0.14 0.16 0.16 0.20
0.00 0.00 0.00 0.00 0.00 0.00 0.00 0.00 0.00 0.00 0.01 0.02 0.00 0.00 0.00 0.00 0.01 0.01 0.00 0.00 0.00 0.00 0.00 0.00 0.00 0.00 0.01 0.01 0.02 0.03 0.06 0.08 0.08 0.07 0.08 0.09 0.11 0.13
0.00 0.00 0.00 0.00 0.00 0.00 0.00 0.00 0.00 0.00 0.00 0.01 0.05 0.06 0.05 0.04 0.02 0.00 0.00 0.00 0.00 0.00 0.00 0.00 0.00 0.00 0.00 0.00 0.00 0.00 0.00 0.01 0.01 0.01 0.02 0.04 0.06 0.06
0.00 0.00 0.00 0.00 0.00 0.00 0.00 0.00 0.01 0.02 0.07 0.16 0.16 0.13 0.06 0.00 0.00 0.00 0.00 0.01 0.01 0.01 0.00 0.00 0.00 0.00 0.00 0.00 0.00 0.00 0.00 0.01 0.02 0.03 0.04 0.08 0.11 0.13
0.00 0.00 0.00 0.00 0.00 0.00 0.01 0.02 0.02 0.09 0.22 0.22 0.15 0.04 0.01 0.00 0.00 0.02 0.08 0.07 0.05 0.00 0.00 0.01 0.00 0.00 0.00 0.00 0.00 0.00 0.01 0.01 0.02 0.04 0.07 0.10 0.12 0.14
0.00 0.00 0.00 0.00 0.00 0.00 0.00 0.02 0.10 0.12 0.09 0.05 0.02 0.00 0.00 0.03 0.14 0.12 0.07 0.08 0.06 0.00 0.02 0.03 0.00 0.00 0.00 0.00 0.00 0.00 0.00 0.01 0.01 0.02 0.05 0.07 0.09 0.09
0.00 0.00 0.00 0.00 0.00 0.01 0.04 0.16 0.08 0.01 0.00 0.00 0.00 0.01 0.04 0.05 0.05 0.15 0.11 0.07 0.02 0.00 0.00 0.06 0.00 0.00 0.00 0.00 0.00 0.00 0.00 0.01 0.01 0.02 0.04 0.07 0.09 0.10
0.00 0.00 0.01 0.01 0.01 0.04 0.08 0.05 0.01 0.00 0.00 0.00 0.03 0.02 0.01 0.01 0.01 0.10 0.08 0.09 0.05 0.00 0.00 0.02 0.01 0.00 0.00 0.00 0.00 0.00 0.00 0.00 0.00 0.01 0.03 0.05 0.07 0.12
0.00 0.00 0.00 0.01 0.02 0.07 0.04 0.01 0.01 0.00 0.08 0.04 0.01 0.00 0.00 0.00 0.00 0.02 0.10 0.28 0.11 0.11 0.00 0.13 0.06 0.05 0.19 0.01 0.00 0.00 0.00 0.00 0.00 0.01 0.04 0.07 0.10 0.16
0.00 0.00 0.00 0.02 0.04 0.03 0.02 0.00 0.01 0.03 0.03 0.00 0.00 0.00 0.00 0.00 0.00 0.00 0.03 0.28 0.40 0.23 0.00 0.34 0.35 0.04 0.20 0.05 0.00 0.00 0.00 0.00 0.02 0.04 0.13 0.18 0.25 0.33
0.00 0.00 0.00 0.03 0.02 0.00 0.00 0.01 0.02 0.01 0.00 0.00 0.00 0.00 0.00 0.00 0.00 0.00 0.01 0.03 0.12 0.30 0.10 0.18 0.54 0.19 0.33 0.15 0.01 0.00 0.00 0.01 0.05 0.12 0.14 0.13 0.20 0.27
0.01 0.02 0.02 0.01 0.00 0.00 0.00 0.00 0.00 0.00 0.00 0.02 0.01 0.01 0.00 0.01 0.01 0.01 0.01 0.00 0.00 0.02 0.03 0.03 0.21 0.19 0.29 0.31 0.17 0.03 0.09 0.04 0.01 0.12 0.22 0.31 0.53 0.46
0.01 0.01 0.00 0.00 0.00 0.00 0.00 0.00 0.00 0.00 0.01 0.03 0.02 0.01 0.00 0.00 0.00 0.01 0.04 0.02 0.05 0.00 0.00 0.01 0.07 0.23 0.30 0.13 0.24 0.15 0.05 0.22 0.18 0.22 0.27 0.33 0.37 0.29
0.01 0.00 0.00 0.00 0.00 0.00 0.00 0.00 0.00 0.00 0.01 0.01 0.02 0.03 0.01 0.01 0.00 0.00 0.03 0.07 0.09 0.03 0.02 0.00 0.00 0.03 0.07 0.09 0.12 0.05 0.11 0.16 0.25 0.25 0.27 0.36 0.22 0.12
0.00 0.00 0.00 0.00 0.00 0.00 0.00 0.00 0.00 0.00 0.01 0.03 0.03 0.03 0.05 0.04 0.04 0.02 0.02 0.08 0.10 0.03 0.04 0.02 0.02 0.04 0.01 0.00 0.08 0.22 0.19 0.20 0.23 0.22 0.22 0.35 0.17 0.08
0.00 0.00 0.00 0.00 0.00 0.00 0.01 0.02 0.02 0.00 0.02 0.05 0.04 0.05 0.10 0.08 0.03 0.03 0.02 0.04 0.04 0.02 0.03 0.03 0.07 0.16 0.18 0.04 0.01 0.12 0.41 0.30 0.19 0.21 0.19 0.28 0.29 0.16
0.00 0.00 0.00 0.00 0.01 0.01 0.02 0.03 0.03 0.01 0.02 0.02 0.07 0.10 0.12 0.15 0.07 0.06 0.04 0.10 0.13 0.10 0.04 0.01 0.02 0.14 0.40 0.38 0.28 0.07 0.16 0.34 0.40 0.43 0.34 0.32 0.32 0.19
0.00 0.00 0.00 0.01 0.01 0.03 0.03 0.04 0.04 0.08 0.12 0.15 0.08 0.10 0.11 0.21 0.10 0.04 0.06 0.06 0.10 0.09 0.07 0.01 0.02 0.10 0.17 0.12 0.09 0.04 0.05 0.11 0.26 0.48 0.41 0.29 0.19 0.08
0.00 0.01 0.00 0.01 0.02 0.04 0.04 0.04 0.05 0.03 0.07 0.07 0.08 0.12 0.15 0.17 0.20 0.13 0.09 0.14 0.08 0.07 0.07 0.02 0.00 0.03 0.05 0.12 0.08 0.05 0.03 0.01 0.07 0.07 0.20 0.52 0.67 0.72
0.01 0.01 0.01 0.02 0.03 0.04 0.05 0.05 0.05 0.04 0.08 0.13 0.12 0.15 0.19 0.18 0.11 0.11 0.11 0.11 0.12 0.11 0.06 0.04 0.00 0.01 0.03 0.06 0.08 0.07 0.03 0.02 0.03 0.08 0.18 0.25 0.37 0.52

GFSNE_prec_precacc24_051.txt.gz
Total_Precipitation_Accumulation
0.00 0.00 0.00 0.00 0.00 0.00 0.00 0.00 0.00 0.00 0.00 0.00 0.00 0.00 0.00 0.00 0.00 0.00 0.00 0.00 0.00 0.00 0.00 0.00 0.00 0.00 0.01 0.01 0.03 0.05 0.06 0.07 0.11 0.16 0.22 0.23 0.26 0.28
0.01 0.00 0.00 0.00 0.00 0.00 0.00 0.00 0.00 0.00 0.00 0.00 0.00 0.00 0.00 0.00 0.00 0.00 0.00 0.00 0.00 0.00 0.00 0.01 0.01 0.01 0.00 0.00 0.01 0.01 0.02 0.05 0.11 0.20 0.29 0.36 0.36 0.35
0.00 0.00 0.00 0.00 0.00 0.00 0.00 0.00 0.00 0.00 0.00 0.00 0.00 0.00 0.00 0.00 0.00 0.00 0.00 0.00 0.01 0.03 0.01 0.01 0.00 0.01 0.00 0.01 0.03 0.04 0.05 0.09 0.13 0.16 0.21 0.32 0.35 0.36
0.00 0.00 0.00 0.00 0.00 0.00 0.00 0.00 0.00 0.00 0.00 0.01 0.00 0.00 0.00 0.00 0.00 0.00 0.00 0.01 0.01 0.00 0.00 0.00 0.00 0.00 0.00 0.01 0.03 0.04 0.06 0.07 0.08 0.09 0.11 0.13 0.14 0.17
0.06 0.03 0.01 0.01 0.01 0.00 0.00 0.00 0.00 0.00 0.01 0.01 0.00 0.00 0.00 0.00 0.01 0.00 0.00 0.00 0.00 0.00 0.00 0.00 0.00 0.00 0.01 0.02 0.01 0.02 0.03 0.05 0.05 0.05 0.06 0.08 0.11 0.12
0.05 0.05 0.02 0.01 0.00 0.00 0.00 0.00 0.00 0.00 0.00 0.00 0.03 0.05 0.04 0.02 0.00 0.00 0.00 0.00 0.00 0.00 0.00 0.00 0.00 0.00 0.00 0.00 0.00 0.00 0.00 0.01 0.01 0.02 0.02 0.03 0.06 0.07
0.02 0.00 0.00 0.00 0.00 0.00 0.00 0.00 0.01 0.01 0.04 0.13 0.14 0.07 0.02 0.00 0.00 0.00 0.00 0.01 0.00 0.00 0.00 0.00 0.00 0.00 0.00 0.00 0.00 0.00 0.00 0.01 0.02 0.03 0.04 0.06 0.09 0.11
0.03 0.02 0.01 0.00 0.00 0.00 0.00 0.01 0.02 0.08 0.19 0.13 0.07 0.03 0.01 0.00 0.00 0.01 0.05 0.05 0.05 0.00 0.00 0.00 0.00 0.00 0.00 0.00 0.00 0.00 0.00 0.01 0.02 0.03 0.05 0.07 0.10 0.12
0.00 0.00 0.00 0.00 0.00 0.00 0.00 0.01 0.08 0.08 0.05 0.03 0.02 0.00 0.00 0.02 0.10 0.09 0.07 0.09 0.06 0.00 0.01 0.02 0.00 0.00 0.00 0.00 0.00 0.00 0.00 0.00 0.01 0.02 0.03 0.05 0.07 0.08
0.00 0.00 0.00 0.00 0.00 0.01 0.03 0.10 0.04 0.01 0.00 0.00 0.00 0.00 0.03 0.04 0.06 0.16 0.11 0.05 0.01 0.00 0.00 0.04 0.00 0.00 0.00 0.00 0.00 0.00 0.00 0.00 0.01 0.02 0.03 0.05 0.06 0.08
0.00 0.00 0.00 0.00 0.00 0.02 0.05 0.03 0.01 0.00 0.00 0.00 0.02 0.02 0.01 0.01 0.01 0.05 0.05 0.07 0.04 0.00 0.00 0.01 0.00 0.00 0.00 0.00 0.00 0.00 0.00 0.00 0.00 0.01 0.02 0.03 0.06 0.08
0.00 0.00 0.00 0.00 0.01 0.05 0.04 0.01 0.01 0.00 0.05 0.03 0.01 0.00 0.00 0.00 0.00 0.01 0.05 0.21 0.09 0.10 0.00 0.12 0.05 0.04 0.15 0.01 0.00 0.00 0.00 0.00 0.00 0.00 0.01 0.05 0.07 0.13
0.00 0.00 0.00 0.01 0.03 0.03 0.02 0.00 0.00 0.02 0.03 0.00 0.00 0.00 0.00 0.00 0.00 0.00 0.01 0.21 0.33 0.20 0.00 0.31 0.33 0.04 0.19 0.05 0.00 0.00 0.00 0.00 0.01 0.00 0.04 0.09 0.15 0.24
0.00 0.00 0.00 0.02 0.02 0.00 0.00 0.00 0.01 0.01 0.00 0.00 0.00 0.00 0.00 0.00 0.00 0.00 0.00 0.01 0.08 0.22 0.07 0.15 0.52 0.16 0.31 0.14 0.01 0.00 0.00 0.00 0.01 0.03 0.03 0.04 0.06 0.14
0.01 0.01 0.01 0.01 0.00 0.00 0.00 0.00 0.00 0.00 0.00 0.01 0.01 0.01 0.00 0.01 0.00 0.00 0.01 0.00 0.00 0.01 0.01 0.01 0.18 0.17 0.28 0.29 0.16 0.03 0.07 0.03 0.00 0.03 0.09 0.14 0.23 0.29
0.01 0.01 0.00 0.00 0.00 0.00 0.00 0.00 0.00 0.00 0.01 0.02 0.01 0.01 0.00 0.00 0.00 0.01 0.03 0.02 0.04 0.00 0.00 0.00 0.04 0.19 0.28 0.12 0.21 0.14 0.04 0.14 0.13 0.13 0.12 0.17 0.22 0.19
0.00 0.00 0.00 0.00 0.00 0.00 0.00 0.00 0.00 0.00 0.01 0.01 0.02 0.03 0.01 0.01 0.00 0.00 0.02 0.06 0.08 0.02 0.01 0.00 0.00 0.02 0.05 0.07 0.10 0.04 0.06 0.08 0.14 0.15 0.19 0.23 0.12 0.08
0.00 0.00 0.00 0.00 0.00 0.00 0.00 0.00 0.00 0.00 0.00 0.03 0.03 0.03 0.05 0.03 0.04 0.01 0.01 0.06 0.08 0.02 0.02 0.01 0.01 0.04 0.01 0.00 0.05 0.15 0.12 0.10 0.10 0.11 0.14 0.28 0.13 0.04
0.00 0.00 0.00 0.00 0.00 0.00 0.00 0.01 0.01 0.00 0.02 0.05 0.04 0.04 0.08 0.07 0.03 0.03 0.02 0.04 0.03 0.01 0.01 0.01 0.07 0.18 0.20 0.03 0.00 0.05 0.35 0.23 0.11 0.15 0.12 0.20 0.20 0.07
0.00 0.00 0.00 0.00 0.00 0.01 0.02 0.03 0.03 0.01 0.02 0.02 0.07 0.09 0.12 0.14 0.06 0.05 0.04 0.09 0.12 0.09 0.04 0.00 0.02 0.17 0.43 0.37 0.28 0.03 0.08 0.27 0.35 0.35 0.24 0.22 0.20 0.10
0.00 0.00 0.00 0.00 0.01 0.03 0.03 0.04 0.04 0.07 0.11 0.14 0.08 0.09 0.10 0.20 0.10 0.03 0.05 0.05 0.09 0.09 0.07 0.01 0.00 0.07 0.15 0.13 0.09 0.02 0.00 0.04 0.20 0.43 0.37 0.25 0.11 0.03
0.00 0.00 0.00 0.00 0.02 0.04 0.04 0.04 0.04 0.03 0.06 0.06 0.08 0.11 0.13 0.16 0.18 0.13 0.08 0.13 0.07 0.07 0.08 0.02 0.00 0.02 0.05 0.15 0.09 0.04 0.02 0.01 0.03 0.04 0.10 0.45 0.63 0.63
0.00 0.00 0.01 0.02 0.03 0.04 0.05 0.05 0.04 0.03 0.07 0.12 0.12 0.14 0.17 0.17 0.11 0.11 0.10 0.10 0.12 0.12 0.07 0.05 0.00 0.00 0.02 0.08 0.11 0.09 0.03 0.02 0.02 0.04 0.07 0.12 0.25 0.39

GFSNE_prec_precacc24_054.txt.gz
Total_Precipitation_Accumulation
0.00 0.00 0.00 0.00 0.00 0.00 0.00 0.00 0.00 0.00 0.00 0.00 0.00 0.00 0.00 0.00 0.00 0.00 0.00 0.00 0.00 0.00 0.00 0.00 0.00 0.00 0.01 0.01 0.03 0.05 0.06 0.06 0.10 0.14 0.19 0.21 0.23 0.26
0.01 0.00 0.00 0.00 0.00 0.00 0.00 0.00 0.00 0.00 0.00 0.00 0.00 0.00 0.00 0.00 0.00 0.00 0.00 0.00 0.00 0.00 0.00 0.00 0.01 0.01 0.00 0.00 0.01 0.01 0.01 0.03 0.08 0.16 0.26 0.32 0.33 0.34
0.00 0.00 0.00 0.01 0.01 0.02 0.02 0.02 0.02 0.01 0.00 0.00 0.00 0.00 0.00 0.00 0.00 0.00 0.00 0.00 0.00 0.00 0.00 0.00 0.00 0.01 0.00 0.01 0.01 0.01 0.03 0.07 0.11 0.13 0.18 0.31 0.35 0.35
0.00 0.00 0.01 0.02 0.03 0.05 0.06 0.04 0.01 0.00 0.00 0.00 0.00 0.00 0.00 0.00 0.00 0.00 0.00 0.00 0.00 0.00 0.00 0.00 0.00 0.00 0.00 0.01 0.01 0.03 0.05 0.06 0.07 0.08 0.10 0.12 0.13 0.16
0.08 0.10 0.13 0.13 0.12 0.07 0.03 0.01 0.01 0.00 0.00 0.01 0.00 0.00 0.00 0.00 0.00 0.00 0.00 0.00 0.00 0.00 0.00 0.00 0.00 0.00 0.00 0.01 0.01 0.01 0.01 0.02 0.02 0.02 0.03 0.04 0.07 0.08
0.09 0.10 0.09 0.06 0.03 0.01 0.01 0.00 0.00 0.00 0.00 0.00 0.03 0.04 0.02 0.01 0.00 0.00 0.00 0.00 0.00 0.00 0.00 0.00 0.00 0.00 0.00 0.00 0.00 0.00 0.00 0.01 0.01 0.02 0.02 0.03 0.05 0.07
0.14 0.10 0.08 0.05 0.03 0.01 0.00 0.00 0.00 0.01 0.03 0.09 0.10 0.04 0.01 0.00 0.00 0.00 0.00 0.00 0.00 0.00 0.00 0.00 0.00 0.00 0.00 0.00 0.00 0.00 0.00 0.01 0.02 0.02 0.03 0.06 0.08 0.10
0.17 0.10 0.06 0.02 0.01 0.00 0.00 0.01 0.01 0.04 0.12 0.09 0.05 0.03 0.01 0.00 0.00 0.01 0.03 0.04 0.04 0.00 0.00 0.00 0.00 0.00 0.00 0.00 0.00 0.00 0.00 0.01 0.02 0.02 0.03 0.06 0.08 0.10
0.02 0.00 0.00 0.00 0.00 0.00 0.00 0.01 0.03 0.05 0.04 0.03 0.02 0.00 0.00 0.01 0.06 0.07 0.06 0.09 0.05 0.00 0.01 0.01 0.00 0.00 0.00 0.00 0.00 0.00 0.00 0.00 0.01 0.02 0.03 0.04 0.06 0.08
0.00 0.00 0.00 0.00 0.00 0.00 0.01 0.04 0.03 0.01 0.00 0.00 0.00 0.00 0.02 0.03 0.05 0.16 0.10 0.04 0.01 0.00 0.00 0.02 0.00 0.00 0.00 0.00 0.00 0.00 0.00 0.00 0.00 0.01 0.03 0.04 0.05 0.07
0.00 0.00 0.00 0.00 0.00 0.01 0.03 0.03 0.01 0.00 0.00 0.00 0.01 0.01 0.01 0.01 0.00 0.02 0.03 0.05 0.03 0.00 0.00 0.01 0.00 0.00 0.00 0.00 0.00 0.00 0.00 0.00 0.00 0.01 0.02 0.03 0.05 0.08
0.00 0.00 0.00 0.00 0.01 0.03 0.03 0.01 0.01 0.00 0.02 0.02 0.00 0.00 0.00 0.00 0.00 0.00 0.03 0.16 0.08 0.09 0.00 0.09 0.04 0.03 0.12 0.01 0.00 0.00 0.00 0.00 0.00 0.00 0.01 0.03 0.06 0.11
0.00 0.00 0.00 0.00 0.02 0.03 0.02 0.00 0.00 0.01 0.02 0.00 0.00 0.00 0.00 0.00 0.00 0.00 0.01 0.16 0.26 0.16 0.00 0.28 0.31 0.03 0.17 0.05 0.00 0.00 0.00 0.00 0.01 0.00 0.00 0.02 0.06 0.15
0.00 0.00 0.00 0.02 0.02 0.00 0.00 0.00 0.01 0.01 0.00 0.00 0.00 0.00 0.00 0.00 0.00 0.00 0.00 0.01 0.05 0.15 0.04 0.12 0.49 0.14 0.29 0.14 0.01 0.00 0.00 0.00 0.01 0.01 0.01 0.01 0.03 0.07
0.00 0.01 0.01 0.01 0.00 0.00 0.00 0.00 0.00 0.00 0.00 0.00 0.01 0.00 0.00 0.00 0.00 0.00 0.00 0.00 0.00 0.00 0.00 0.01 0.16 0.15 0.26 0.25 0.14 0.02 0.03 0.02 0.00 0.01 0.05 0.05 0.10 0.12
0.01 0.01 0.00 0.00 0.00 0.00 0.00 0.00 0.00 0.00 0.00 0.01 0.01 0.01 0.00 0.00 0.00 0.00 0.03 0.01 0.04 0.00 0.00 0.00 0.02 0.14 0.26 0.11 0.15 0.10 0.01 0.08 0.07 0.07 0.07 0.08 0.10 0.10
0.00 0.00 0.00 0.00 0.00 0.00 0.00 0.00 0.00 0.00 0.00 0.00 0.02 0.03 0.01 0.01 0.00 0.00 0.02 0.06 0.09 0.02 0.01 0.00 0.00 0.01 0.04 0.05 0.11 0.02 0.01 0.03 0.06 0.09 0.14 0.15 0.04 0.03
0.00 0.00 0.00 0.00 0.00 0.00 0.00 0.00 0.00 0.00 0.00 0.03 0.03 0.03 0.05 0.03 0.03 0.02 0.01 0.06 0.07 0.02 0.01 0.00 0.01 0.04 0.01 0.00 0.04 0.10 0.07 0.02 0.03 0.06 0.10 0.21 0.09 0.01
0.00 0.00 0.00 0.00 0.00 0.00 0.00 0.01 0.01 0.00 0.01 0.04 0.04 0.03 0.06 0.07 0.03 0.03 0.02 0.04 0.03 0.01 0.01 0.01 0.07 0.21 0.23 0.03 0.00 0.03 0.38 0.21 0.07 0.11 0.09 0.14 0.15 0.04
0.00 0.00 0.00 0.00 0.00 0.01 0.01 0.02 0.02 0.01 0.02 0.02 0.06 0.09 0.11 0.14 0.06 0.05 0.04 0.08 0.11 0.08 0.04 0.00 0.03 0.20 0.47 0.39 0.29 0.02 0.05 0.26 0.31 0.28 0.15 0.11 0.09 0.06
0.00 0.00 0.00 0.00 0.01 0.02 0.02 0.03 0.03 0.06 0.09 0.12 0.08 0.09 0.09 0.19 0.10 0.03 0.05 0.04 0.08 0.10 0.08 0.01 0.00 0.05 0.15 0.15 0.10 0.01 0.00 0.03 0.16 0.42 0.34 0.23 0.06 0.02
0.00 0.00 0.00 0.01 0.02 0.03 0.04 0.03 0.04 0.03 0.05 0.06 0.08 0.11 0.12 0.15 0.18 0.13 0.08 0.13 0.06 0.06 0.08 0.02 0.00 0.03 0.06 0.18 0.10 0.03 0.00 0.00 0.00 0.02 0.10 0.40 0.60 0.57
0.00 0.00 0.01 0.02 0.03 0.04 0.05 0.04 0.04 0.03 0.06 0.11 0.11 0.13 0.16 0.16 0.11 0.10 0.10 0.10 0.11 0.13 0.08 0.05 0.00 0.00 0.02 0.09 0.13 0.11 0.03 0.01 0.01 0.01 0.01 0.04 0.11 0.26

GFSNE_prec_precacc24_057.txt.gz
Total_Precipitation_Accumulation
0.01 0.01 0.01 0.00 0.00 0.00 0.00 0.01 0.03 0.03 0.02 0.00 0.00 0.00 0.00 0.00 0.00 0.00 0.00 0.00 0.00 0.00 0.00 0.00 0.00 0.00 0.01 0.00 0.01 0.03 0.04 0.05 0.09 0.12 0.17 0.19 0.21 0.23
0.01 0.00 0.00 0.00 0.00 0.00 0.00 0.00 0.01 0.02 0.02 0.02 0.03 0.05 0.04 0.01 0.00 0.00 0.00 0.00 0.00 0.00 0.00 0.00 0.00 0.00 0.00 0.00 0.01 0.01 0.01 0.02 0.05 0.13 0.23 0.29 0.30 0.31
0.00 0.00 0.00 0.01 0.01 0.02 0.03 0.06 0.08 0.10 0.10 0.04 0.02 0.01 0.01 0.00 0.00 0.00 0.00 0.00 0.00 0.00 0.00 0.00 0.00 0.01 0.00 0.01 0.01 0.00 0.02 0.04 0.07 0.09 0.14 0.26 0.31 0.32
0.01 0.01 0.02 0.03 0.05 0.08 0.13 0.14 0.10 0.05 0.02 0.01 0.00 0.01 0.00 0.00 0.00 0.00 0.00 0.00 0.00 0.00 0.00 0.00 0.00 0.00 0.00 0.01 0.01 0.02 0.03 0.04 0.04 0.06 0.07 0.09 0.11 0.14
0.09 0.11 0.14 0.16 0.19 0.19 0.15 0.08 0.04 0.03 0.02 0.02 0.01 0.00 0.00 0.00 0.00 0.00 0.00 0.00 0.00 0.00 0.00 0.00 0.00 0.00 0.00 0.01 0.01 0.01 0.01 0.01 0.01 0.01 0.01 0.02 0.04 0.05
0.16 0.20 0.21 0.19 0.15 0.09 0.07 0.07 0.06 0.05 0.03 0.01 0.01 0.02 0.01 0.01 0.00 0.00 0.00 0.00 0.00 0.00 0.00 0.00 0.00 0.00 0.00 0.00 0.00 0.00 0.00 0.00 0.01 0.02 0.02 0.03 0.04 0.06
0.27 0.23 0.19 0.17 0.14 0.11 0.07 0.04 0.02 0.01 0.01 0.03 0.05 0.04 0.01 0.00 0.00 0.00 0.00 0.00 0.00 0.00 0.00 0.00 0.00 0.00 0.00 0.00 0.00 0.00 0.00 0.00 0.01 0.02 0.03 0.05 0.07 0.09
0.23 0.18 0.14 0.09 0.05 0.02 0.00 0.00 0.01 0.02 0.05 0.08 0.05 0.03 0.01 0.00 0.00 0.00 0.02 0.03 0.04 0.00 0.00 0.00 0.00 0.00 0.00 0.00 0.00 0.00 0.00 0.01 0.01 0.02 0.03 0.05 0.07 0.10
0.12 0.09 0.05 0.02 0.01 0.00 0.00 0.00 0.02 0.03 0.04 0.03 0.02 0.00 0.00 0.00 0.02 0.05 0.06 0.08 0.05 0.00 0.00 0.00 0.00 0.00 0.00 0.00 0.00 0.00 0.00 0.00 0.00 0.02 0.02 0.03 0.05 0.07
0.04 0.02 0.00 0.00 0.00 0.00 0.00 0.02 0.02 0.01 0.00 0.00 0.00 0.00 0.01 0.01 0.05 0.16 0.09 0.02 0.00 0.00 0.00 0.01 0.00 0.00 0.00 0.00 0.00 0.00 0.00 0.00 0.00 0.01 0.02 0.03 0.04 0.05
0.00 0.00 0.00 0.00 0.00 0.01 0.02 0.02 0.01 0.00 0.00 0.00 0.00 0.01 0.01 0.01 0.00 0.01 0.01 0.03 0.03 0.00 0.00 0.00 0.00 0.00 0.00 0.00 0.00 0.00 0.00 0.00 0.00 0.00 0.01 0.02 0.04 0.07
0.00 0.00 0.00 0.00 0.00 0.02 0.03 0.01 0.01 0.00 0.00 0.01 0.00 0.00 0.00 0.00 0.00 0.00 0.01 0.12 0.07 0.08 0.00 0.07 0.04 0.02 0.10 0.01 0.00 0.00 0.00 0.00 0.00 0.00 0.00 0.01 0.04 0.07
0.00 0.00 0.00 0.00 0.01 0.02 0.02 0.00 0.00 0.01 0.01 0.00 0.00 0.00 0.00 0.00 0.00 0.00 0.00 0.11 0.20 0.14 0.00 0.24 0.29 0.03 0.16 0.04 0.00 0.00 0.00 0.00 0.00 0.00 0.00 0.00 0.02 0.08
0.00 0.00 0.00 0.01 0.02 0.00 0.00 0.00 0.01 0.00 0.00 0.00 0.00 0.00 0.00 0.00 0.00 0.00 0.00 0.00 0.03 0.09 0.01 0.09 0.46 0.11 0.26 0.13 0.01 0.00 0.00 0.00 0.00 0.01 0.01 0.01 0.02 0.04
0.00 0.01 0.01 0.01 0.00 0.00 0.00 0.00 0.00 0.00 0.00 0.00 0.00 0.00 0.00 0.00 0.00 0.00 0.00 0.00 0.00 0.00 0.00 0.00 0.13 0.12 0.24 0.22 0.10 0.02 0.00 0.00 0.00 0.00 0.02 0.02 0.06 0.06
0.01 0.01 0.00 0.00 0.00 0.00 0.00 0.00 0.00 0.00 0.00 0.00 0.00 0.01 0.00 0.00 0.00 0.00 0.02 0.01 0.03 0.00 0.00 0.00 0.00 0.10 0.23 0.10 0.11 0.08 0.00 0.03 0.02 0.02 0.02 0.03 0.04 0.04
0.00 0.00 0.00 0.00 0.00 0.00 0.00 0.00 0.00 0.00 0.00 0.00 0.02 0.02 0.01 0.01 0.00 0.00 0.01 0.06 0.09 0.01 0.01 0.00 0.00 0.01 0.03 0.06 0.14 0.02 0.00 0.00 0.01 0.03 0.08 0.09 0.01 0.01
0.00 0.00 0.00 0.00 0.00 0.00 0.00 0.00 0.00 0.00 0.00 0.02 0.02 0.02 0.04 0.03 0.03 0.01 0.01 0.06 0.07 0.02 0.01 0.00 0.01 0.04 0.01 0.00 0.04 0.08 0.07 0.00 0.00 0.02 0.05 0.18 0.08 0.01
0.00 0.00 0.00 0.00 0.00 0.00 0.00 0.01 0.01 0.00 0.01 0.03 0.03 0.02 0.05 0.06 0.03 0.03 0.02 0.04 0.04 0.01 0.00 0.01 0.08 0.22 0.24 0.04 0.00 0.03 0.41 0.21 0.05 0.06 0.03 0.09 0.12 0.03
0.00 0.00 0.00 0.00 0.00 0.00 0.01 0.02 0.02 0.01 0.01 0.02 0.05 0.08 0.10 0.13 0.06 0.05 0.03 0.07 0.11 0.08 0.04 0.00 0.03 0.21 0.49 0.39 0.29 0.02 0.04 0.26 0.30 0.22 0.05 0.03 0.06 0.05
0.00 0.00 0.00 0.00 0.01 0.02 0.02 0.03 0.03 0.04 0.07 0.10 0.07 0.07 0.08 0.17 0.09 0.03 0.05 0.04 0.08 0.10 0.08 0.01 0.00 0.05 0.15 0.16 0.11 0.01 0.00 0.03 0.18 0.41 0.32 0.24 0.05 0.01
0.00 0.00 0.00 0.01 0.02 0.03 0.03 0.03 0.03 0.02 0.04 0.04 0.07 0.10 0.11 0.14 0.16 0.12 0.07 0.11 0.05 0.05 0.08 0.03 0.00 0.03 0.07 0.20 0.11 0.02 0.00 0.00 0.00 0.02 0.12 0.38 0.56 0.51
0.00 0.00 0.01 0.02 0.03 0.03 0.05 0.04 0.04 0.02 0.04 0.09 0.10 0.12 0.15 0.15 0.10 0.10 0.09 0.09 0.11 0.14 0.08 0.05 0.00 0.00 0.02 0.10 0.14 0.12 0.02 0.00 0.00 0.00 0.00 0.01 0.04 0.16

GFSNE_prec_precacc24_063.txt.gz
Total_Precipitation_Accumulation
0.12 0.10 0.10 0.10 0.11 0.13 0.16 0.20 0.27 0.23 0.15 0.07 0.02 0.02 0.03 0.02 0.03 0.03 0.01 0.01 0.00 0.00 0.00 0.00 0.00 0.00 0.00 0.00 0.00 0.01 0.01 0.02 0.06 0.10 0.14 0.16 0.18 0.21
0.20 0.22 0.24 0.23 0.19 0.15 0.11 0.10 0.10 0.12 0.10 0.08 0.11 0.14 0.14 0.11 0.08 0.05 0.02 0.01 0.00 0.00 0.00 0.00 0.00 0.00 0.00 0.00 0.00 0.00 0.01 0.02 0.04 0.08 0.16 0.23 0.25 0.27
0.11 0.16 0.20 0.19 0.21 0.19 0.16 0.18 0.19 0.23 0.28 0.25 0.24 0.22 0.17 0.11 0.05 0.01 0.00 0.00 0.00 0.00 0.00 0.00 0.00 0.00 0.00 0.00 0.00 0.00 0.01 0.02 0.05 0.06 0.09 0.19 0.24 0.24
0.04 0.05 0.08 0.10 0.12 0.16 0.22 0.28 0.29 0.28 0.24 0.19 0.15 0.11 0.06 0.03 0.02 0.00 0.00 0.00 0.00 0.00 0.00 0.00 0.00 0.00 0.00 0.01 0.01 0.01 0.02 0.03 0.03 0.02 0.03 0.04 0.05 0.08
0.10 0.13 0.16 0.19 0.23 0.25 0.25 0.23 0.21 0.17 0.13 0.08 0.03 0.02 0.02 0.01 0.01 0.00 0.00 0.00 0.00 0.00 0.00 0.00 0.00 0.00 0.00 0.01 0.01 0.01 0.00 0.01 0.00 0.00 0.00 0.01 0.02 0.03
0.19 0.24 0.26 0.28 0.28 0.28 0.26 0.22 0.16 0.10 0.06 0.03 0.01 0.00 0.00 0.00 0.00 0.00 0.00 0.00 0.00 0.00 0.00 0.00 0.00 0.00 0.00 0.00 0.00 0.00 0.00 0.00 0.00 0.01 0.02 0.02 0.04 0.05
0.30 0.30 0.30 0.29 0.24 0.17 0.11 0.06 0.04 0.02 0.01 0.00 0.00 0.00 0.00 0.00 0.00 0.00 0.00 0.00 0.00 0.00 0.00 0.00 0.00 0.00 0.00 0.00 0.00 0.00 0.00 0.00 0.01 0.01 0.02 0.04 0.05 0.08
0.28 0.22 0.16 0.11 0.06 0.03 0.01 0.00 0.00 0.00 0.00 0.01 0.01 0.01 0.00 0.00 0.00 0.00 0.00 0.01 0.02 0.00 0.00 0.00 0.00 0.00 0.00 0.00 0.00 0.00 0.00 0.00 0.01 0.02 0.02 0.03 0.05 0.08
0.16 0.12 0.08 0.04 0.02 0.00 0.00 0.00 0.00 0.00 0.01 0.01 0.01 0.00 0.00 0.00 0.00 0.02 0.04 0.07 0.04 0.00 0.00 0.00 0.00 0.00 0.00 0.00 0.00 0.00 0.00 0.00 0.00 0.01 0.02 0.02 0.03 0.04
0.05 0.02 0.00 0.00 0.00 0.00 0.00 0.00 0.00 0.00 0.00 0.00 0.00 0.00 0.00 0.00 0.02 0.14 0.08 0.01 0.00 0.00 0.00 0.01 0.00 0.00 0.00 0.00 0.00 0.00 0.00 0.00 0.00 0.00 0.01 0.01 0.02 0.02
0.00 0.00 0.00 0.00 0.00 0.00 0.00 0.00 0.00 0.00 0.00 0.00 0.00 0.00 0.01 0.01 0.00 0.00 0.00 0.01 0.01 0.00 0.00 0.00 0.00 0.00 0.00 0.00 0.00 0.00 0.00 0.00 0.00 0.00 0.00 0.00 0.01 0.02
0.00 0.00 0.00 0.00 0.00 0.01 0.01 0.01 0.00 0.00 0.00 0.00 0.00 0.00 0.00 0.00 0.00 0.00 0.00 0.06 0.06 0.06 0.00 0.05 0.02 0.01 0.08 0.00 0.00 0.00 0.00 0.00 0.00 0.00 0.00 0.00 0.01 0.01
0.00 0.00 0.00 0.00 0.01 0.01 0.01 0.00 0.00 0.00 0.00 0.00 0.00 0.00 0.00 0.00 0.00 0.00 0.00 0.05 0.13 0.10 0.00 0.20 0.23 0.02 0.14 0.04 0.00 0.00 0.00 0.00 0.00 0.00 0.00 0.00 0.00 0.02
0.00 0.00 0.00 0.01 0.01 0.00 0.00 0.00 0.00 0.00 0.00 0.00 0.00 0.00 0.00 0.00 0.00 0.00 0.00 0.00 0.01 0.05 0.00 0.08 0.37 0.07 0.21 0.12 0.01 0.00 0.00 0.00 0.00 0.00 0.00 0.00 0.00 0.01
0.00 0.00 0.00 0.00 0.00 0.00 0.00 0.00 0.00 0.00 0.00 0.00 0.00 0.00 0.00 0.00 0.00 0.00 0.00 0.00 0.00 0.00 0.00 0.00 0.09 0.08 0.20 0.18 0.07 0.02 0.00 0.00 0.00 0.00 0.00 0.00 0.00 0.00
0.00 0.00 0.00 0.00 0.00 0.00 0.00 0.00 0.00 0.00 0.00 0.00 0.00 0.00 0.00 0.00 0.00 0.00 0.02 0.01 0.03 0.00 0.00 0.00 0.00 0.06 0.17 0.09 0.11 0.08 0.00 0.01 0.00 0.00 0.01 0.01 0.00 0.00
0.00 0.00 0.00 0.00 0.00 0.00 0.00 0.00 0.00 0.00 0.00 0.00 0.01 0.01 0.01 0.00 0.00 0.00 0.01 0.04 0.07 0.01 0.00 0.00 0.00 0.01 0.03 0.06 0.14 0.03 0.00 0.00 0.00 0.00 0.02 0.04 0.01 0.00
0.00 0.00 0.00 0.00 0.00 0.00 0.00 0.00 0.00 0.00 0.00 0.01 0.02 0.02 0.03 0.02 0.02 0.01 0.01 0.06 0.06 0.02 0.01 0.00 0.00 0.05 0.02 0.00 0.04 0.08 0.06 0.00 0.00 0.01 0.02 0.13 0.05 0.00
0.00 0.00 0.00 0.00 0.00 0.00 0.00 0.00 0.00 0.00 0.00 0.02 0.03 0.02 0.03 0.04 0.02 0.02 0.02 0.04 0.03 0.01 0.01 0.00 0.07 0.22 0.26 0.05 0.00 0.03 0.41 0.21 0.05 0.05 0.01 0.02 0.05 0.00
0.00 0.00 0.00 0.00 0.00 0.00 0.01 0.01 0.01 0.01 0.01 0.01 0.03 0.06 0.07 0.10 0.05 0.03 0.03 0.06 0.10 0.08 0.04 0.01 0.03 0.20 0.48 0.36 0.28 0.02 0.03 0.22 0.24 0.17 0.02 0.01 0.01 0.00
0.00 0.00 0.00 0.00 0.01 0.01 0.01 0.02 0.02 0.02 0.04 0.06 0.04 0.05 0.05 0.14 0.08 0.02 0.04 0.04 0.07 0.09 0.07 0.01 0.00 0.05 0.14 0.18 0.13 0.01 0.00 0.02 0.15 0.34 0.27 0.23 0.05 0.01
0.00 0.00 0.00 0.00 0.01 0.02 0.02 0.02 0.02 0.01 0.02 0.03 0.05 0.07 0.08 0.11 0.12 0.09 0.06 0.10 0.05 0.04 0.06 0.02 0.00 0.04 0.09 0.23 0.12 0.02 0.00 0.00 0.00 0.03 0.11 0.34 0.47 0.41
0.00 0.00 0.00 0.01 0.02 0.03 0.03 0.03 0.03 0.01 0.02 0.05 0.07 0.08 0.10 0.11 0.07 0.07 0.06 0.07 0.09 0.13 0.08 0.06 0.01 0.01 0.03 0.11 0.16 0.12 0.02 0.00 0.00 0.00 0.00 0.01 0.01 0.04

GFSNE_prec_precacc24_066.txt.gz
Total_Precipitation_Accumulation
0.19 0.18 0.16 0.13 0.15 0.16 0.20 0.28 0.45 0.54 0.50 0.41 0.27 0.16 0.10 0.08 0.08 0.05 0.02 0.01 0.01 0.00 0.00 0.00 0.00 0.00 0.00 0.00 0.00 0.01 0.01 0.02 0.05 0.08 0.09 0.11 0.14 0.17
0.27 0.32 0.32 0.29 0.23 0.18 0.14 0.15 0.19 0.26 0.33 0.26 0.20 0.19 0.20 0.18 0.14 0.07 0.02 0.01 0.00 0.00 0.00 0.00 0.00 0.00 0.00 0.00 0.00 0.00 0.01 0.01 0.03 0.07 0.12 0.17 0.20 0.21
0.15 0.21 0.27 0.25 0.27 0.28 0.33 0.40 0.49 0.52 0.51 0.43 0.35 0.26 0.20 0.13 0.06 0.01 0.00 0.00 0.00 0.00 0.00 0.00 0.00 0.00 0.00 0.00 0.00 0.00 0.01 0.02 0.04 0.05 0.08 0.16 0.20 0.20
0.06 0.08 0.12 0.14 0.18 0.22 0.28 0.35 0.38 0.37 0.30 0.23 0.16 0.12 0.06 0.03 0.02 0.00 0.00 0.00 0.00 0.00 0.00 0.00 0.00 0.00 0.00 0.01 0.01 0.01 0.02 0.03 0.02 0.02 0.03 0.03 0.04 0.06
0.11 0.15 0.18 0.22 0.27 0.30 0.30 0.29 0.27 0.20 0.16 0.11 0.06 0.03 0.02 0.01 0.01 0.00 0.00 0.00 0.00 0.00 0.00 0.00 0.00 0.00 0.00 0.01 0.01 0.00 0.00 0.00 0.01 0.01 0.00 0.01 0.01 0.02
0.20 0.26 0.26 0.29 0.30 0.30 0.30 0.25 0.18 0.11 0.06 0.03 0.01 0.00 0.00 0.00 0.00 0.00 0.00 0.00 0.00 0.00 0.00 0.00 0.00 0.00 0.00 0.00 0.00 0.00 0.00 0.00 0.00 0.01 0.01 0.02 0.03 0.05
0.30 0.31 0.32 0.33 0.27 0.19 0.12 0.07 0.04 0.02 0.01 0.00 0.00 0.00 0.00 0.00 0.00 0.00 0.00 0.00 0.00 0.00 0.00 0.00 0.00 0.00 0.00 0.00 0.00 0.00 0.00 0.00 0.01 0.01 0.02 0.03 0.05 0.07
0.35 0.30 0.25 0.17 0.12 0.05 0.01 0.00 0.00 0.00 0.00 0.00 0.00 0.00 0.00 0.00 0.00 0.00 0.00 0.00 0.01 0.00 0.00 0.00 0.00 0.00 0.00 0.00 0.00 0.00 0.00 0.00 0.01 0.02 0.02 0.03 0.05 0.07
0.27 0.19 0.10 0.07 0.05 0.02 0.01 0.00 0.00 0.00 0.00 0.01 0.00 0.00 0.00 0.00 0.00 0.02 0.03 0.05 0.03 0.00 0.00 0.00 0.00 0.00 0.00 0.00 0.00 0.00 0.00 0.00 0.00 0.01 0.01 0.02 0.03 0.04
0.07 0.03 0.01 0.01 0.00 0.00 0.00 0.00 0.00 0.00 0.00 0.00 0.00 0.00 0.00 0.00 0.01 0.09 0.06 0.01 0.00 0.00 0.00 0.01 0.00 0.00 0.00 0.00 0.00 0.00 0.00 0.00 0.00 0.00 0.01 0.01 0.01 0.02
0.00 0.00 0.00 0.00 0.00 0.00 0.00 0.00 0.00 0.00 0.00 0.00 0.00 0.00 0.01 0.00 0.00 0.00 0.00 0.00 0.01 0.00 0.00 0.00 0.00 0.00 0.00 0.00 0.00 0.00 0.00 0.00 0.00 0.00 0.00 0.00 0.01 0.01
0.00 0.00 0.00 0.00 0.00 0.01 0.01 0.00 0.00 0.00 0.00 0.00 0.00 0.00 0.00 0.00 0.00 0.00 0.00 0.03 0.05 0.06 0.00 0.04 0.01 0.01 0.06 0.00 0.00 0.00 0.00 0.00 0.00 0.00 0.00 0.00 0.01 0.00
0.00 0.00 0.00 0.00 0.01 0.01 0.01 0.00 0.00 0.00 0.00 0.00 0.00 0.00 0.00 0.00 0.00 0.00 0.00 0.02 0.08 0.08 0.00 0.18 0.19 0.02 0.12 0.03 0.00 0.00 0.00 0.00 0.00 0.00 0.00 0.00 0.00 0.01
0.00 0.00 0.00 0.01 0.01 0.00 0.00 0.00 0.00 0.00 0.00 0.00 0.00 0.00 0.00 0.00 0.00 0.00 0.00 0.00 0.01 0.04 0.00 0.07 0.32 0.06 0.18 0.11 0.01 0.00 0.00 0.00 0.00 0.00 0.00 0.00 0.00 0.01
0.00 0.00 0.00 0.00 0.00 0.00 0.00 0.00 0.00 0.00 0.00 0.00 0.00 0.00 0.00 0.00 0.00 0.00 0.00 0.00 0.00 0.00 0.00 0.00 0.08 0.07 0.18 0.16 0.07 0.01 0.00 0.00 0.00 0.00 0.00 0.00 0.00 0.00
0.00 0.00 0.00 0.00 0.00 0.00 0.00 0.00 0.00 0.00 0.00 0.00 0.00 0.00 0.00 0.00 0.00 0.00 0.01 0.00 0.02 0.00 0.00 0.00 0.00 0.06 0.15 0.08 0.09 0.07 0.00 0.01 0.00 0.00 0.00 0.00 0.00 0.00
0.00 0.00 0.00 0.00 0.00 0.00 0.00 0.00 0.00 0.00 0.00 0.00 0.00 0.01 0.00 0.00 0.00 0.00 0.01 0.03 0.06 0.01 0.00 0.00 0.00 0.01 0.03 0.06 0.11 0.02 0.00 0.00 0.00 0.00 0.03 0.05 0.01 0.00
0.00 0.00 0.00 0.00 0.00 0.00 0.00 0.00 0.00 0.00 0.00 0.01 0.01 0.01 0.02 0.02 0.02 0.01 0.01 0.06 0.06 0.01 0.01 0.00 0.00 0.04 0.02 0.00 0.02 0.06 0.06 0.01 0.00 0.01 0.02 0.12 0.05 0.00
0.00 0.00 0.00 0.00 0.00 0.00 0.00 0.00 0.00 0.00 0.00 0.01 0.02 0.01 0.03 0.04 0.02 0.02 0.02 0.04 0.03 0.01 0.00 0.00 0.06 0.21 0.25 0.05 0.00 0.03 0.39 0.21 0.04 0.04 0.01 0.02 0.04 0.00
0.00 0.00 0.00 0.00 0.00 0.00 0.01 0.01 0.01 0.01 0.01 0.01 0.03 0.05 0.06 0.09 0.04 0.03 0.03 0.05 0.08 0.06 0.03 0.00 0.02 0.18 0.44 0.32 0.26 0.02 0.03 0.22 0.22 0.15 0.02 0.01 0.01 0.00
0.00 0.00 0.00 0.00 0.00 0.01 0.01 0.02 0.01 0.02 0.03 0.04 0.04 0.05 0.05 0.11 0.07 0.02 0.03 0.03 0.06 0.08 0.07 0.01 0.00 0.04 0.13 0.18 0.14 0.01 0.00 0.02 0.15 0.31 0.23 0.21 0.05 0.01
0.00 0.00 0.00 0.00 0.01 0.02 0.02 0.02 0.02 0.01 0.01 0.02 0.04 0.05 0.05 0.09 0.10 0.08 0.05 0.08 0.05 0.04 0.05 0.01 0.00 0.04 0.09 0.23 0.12 0.02 0.00 0.00 0.00 0.03 0.11 0.30 0.41 0.37
0.00 0.00 0.00 0.01 0.01 0.02 0.03 0.02 0.02 0.01 0.02 0.05 0.06 0.05 0.06 0.08 0.05 0.05 0.06 0.06 0.08 0.11 0.07 0.05 0.01 0.01 0.04 0.12 0.15 0.10 0.02 0.00 0.00 0.00 0.00 0.01 0.00 0.02

GFSNE_prec_precacc24_069.txt.gz
Total_Precipitation_Accumulation
0.22 0.23 0.22 0.19 0.23 0.25 0.30 0.36 0.51 0.62 0.55 0.50 0.44 0.37 0.33 0.28 0.24 0.21 0.15 0.12 0.07 0.03 0.02 0.00 0.00 0.00 0.00 0.00 0.00 0.01 0.01 0.01 0.02 0.03 0.04 0.06 0.09 0.12
0.28 0.34 0.36 0.34 0.30 0.25 0.22 0.23 0.28 0.36 0.41 0.39 0.41 0.45 0.44 0.39 0.34 0.24 0.13 0.05 0.01 0.00 0.00 0.00 0.00 0.00 0.00 0.00 0.00 0.00 0.00 0.01 0.02 0.04 0.06 0.11 0.14 0.16
0.16 0.22 0.29 0.26 0.29 0.32 0.39 0.52 0.64 0.74 0.79 0.66 0.59 0.50 0.38 0.27 0.15 0.06 0.01 0.00 0.00 0.00 0.00 0.00 0.00 0.00 0.00 0.00 0.00 0.00 0.01 0.02 0.03 0.04 0.06 0.12 0.15 0.16
0.07 0.10 0.14 0.16 0.20 0.25 0.33 0.41 0.48 0.53 0.54 0.48 0.30 0.19 0.12 0.05 0.02 0.01 0.00 0.00 0.00 0.00 0.00 0.00 0.00 0.00 0.00 0.01 0.00 0.01 0.02 0.03 0.02 0.02 0.02 0.02 0.03 0.04
0.12 0.16 0.20 0.23 0.28 0.31 0.31 0.32 0.31 0.26 0.20 0.14 0.06 0.03 0.02 0.01 0.01 0.00 0.00 0.00 0.00 0.00 0.00 0.00 0.00 0.00 0.00 0.01 0.01 0.00 0.00 0.00 0.01 0.01 0.00 0.01 0.01 0.01
0.21 0.27 0.29 0.31 0.31 0.31 0.32 0.29 0.21 0.12 0.07 0.04 0.02 0.00 0.00 0.00 0.00 0.00 0.00 0.00 0.00 0.00 0.00 0.00 0.00 0.00 0.00 0.00 0.00 0.00 0.00 0.00 0.00 0.01 0.01 0.01 0.02 0.03
0.31 0.31 0.32 0.35 0.31 0.26 0.20 0.12 0.06 0.02 0.01 0.00 0.00 0.00 0.00 0.00 0.00 0.00 0.00 0.00 0.00 0.00 0.00 0.00 0.00 0.00 0.00 0.00 0.00 0.00 0.00 0.00 0.01 0.01 0.02 0.03 0.04 0.06
0.36 0.33 0.31 0.28 0.19 0.14 0.10 0.06 0.01 0.00 0.00 0.00 0.00 0.00 0.00 0.00 0.00 0.00 0.00 0.00 0.01 0.00 0.00 0.00 0.00 0.00 0.00 0.00 0.00 0.00 0.00 0.00 0.01 0.01 0.02 0.03 0.04 0.06
0.29 0.22 0.13 0.09 0.07 0.04 0.01 0.00 0.00 0.00 0.00 0.00 0.00 0.00 0.00 0.00 0.00 0.01 0.02 0.03 0.02 0.00 0.00 0.00 0.00 0.00 0.00 0.00 0.00 0.00 0.00 0.00 0.00 0.01 0.01 0.02 0.03 0.04
0.07 0.03 0.01 0.01 0.00 0.00 0.00 0.00 0.00 0.00 0.00 0.00 0.00 0.00 0.00 0.00 0.01 0.06 0.03 0.00 0.00 0.00 0.00 0.00 0.00 0.00 0.00 0.00 0.00 0.00 0.00 0.00 0.00 0.00 0.01 0.01 0.01 0.01
0.00 0.00 0.00 0.00 0.00 0.00 0.00 0.00 0.00 0.00 0.00 0.00 0.00 0.00 0.00 0.00 0.00 0.00 0.00 0.00 0.01 0.00 0.00 0.00 0.00 0.00 0.00 0.00 0.00 0.00 0.00 0.00 0.00 0.00 0.00 0.00 0.01 0.01
0.00 0.00 0.00 0.00 0.00 0.01 0.01 0.00 0.00 0.00 0.00 0.00 0.00 0.00 0.00 0.00 0.00 0.00 0.00 0.01 0.04 0.04 0.00 0.02 0.00 0.01 0.05 0.00 0.00 0.00 0.00 0.00 0.00 0.00 0.00 0.00 0.01 0.00
0.00 0.00 0.00 0.00 0.01 0.00 0.00 0.00 0.00 0.00 0.00 0.00 0.00 0.00 0.00 0.00 0.00 0.00 0.00 0.01 0.05 0.06 0.00 0.15 0.15 0.02 0.10 0.03 0.00 0.00 0.00 0.00 0.00 0.00 0.00 0.00 0.00 0.01
0.00 0.00 0.00 0.00 0.00 0.00 0.00 0.00 0.00 0.00 0.00 0.00 0.00 0.00 0.00 0.00 0.00 0.00 0.00 0.00 0.01 0.02 0.00 0.06 0.27 0.05 0.16 0.10 0.01 0.00 0.00 0.00 0.00 0.00 0.00 0.00 0.00 0.01
0.00 0.00 0.00 0.00 0.00 0.00 0.00 0.00 0.00 0.00 0.00 0.00 0.00 0.00 0.00 0.00 0.00 0.00 0.00 0.00 0.00 0.00 0.00 0.00 0.07 0.05 0.16 0.15 0.06 0.01 0.00 0.00 0.00 0.00 0.00 0.00 0.00 0.00
0.00 0.00 0.00 0.00 0.00 0.00 0.00 0.00 0.00 0.00 0.00 0.00 0.00 0.00 0.00 0.00 0.00 0.00 0.01 0.00 0.02 0.00 0.00 0.00 0.00 0.05 0.12 0.07 0.08 0.06 0.00 0.01 0.00 0.00 0.00 0.00 0.00 0.00
0.00 0.00 0.00 0.00 0.00 0.00 0.00 0.00 0.00 0.00 0.00 0.00 0.00 0.00 0.00 0.00 0.00 0.00 0.01 0.03 0.05 0.01 0.00 0.00 0.00 0.01 0.03 0.05 0.10 0.02 0.00 0.00 0.00 0.00 0.03 0.05 0.01 0.00
0.00 0.00 0.00 0.00 0.00 0.00 0.00 0.00 0.00 0.00 0.00 0.00 0.01 0.01 0.02 0.02 0.02 0.01 0.01 0.05 0.05 0.01 0.01 0.00 0.00 0.03 0.02 0.00 0.01 0.04 0.04 0.01 0.00 0.01 0.02 0.11 0.04 0.00
0.00 0.00 0.00 0.00 0.00 0.00 0.00 0.00 0.00 0.00 0.00 0.01 0.01 0.01 0.03 0.03 0.02 0.02 0.02 0.03 0.03 0.01 0.01 0.00 0.05 0.19 0.23 0.05 0.00 0.03 0.36 0.19 0.04 0.04 0.01 0.02 0.04 0.00
0.00 0.00 0.00 0.00 0.00 0.00 0.00 0.01 0.01 0.01 0.01 0.01 0.02 0.04 0.05 0.06 0.04 0.03 0.02 0.05 0.07 0.05 0.02 0.00 0.02 0.16 0.39 0.28 0.25 0.02 0.03 0.21 0.18 0.12 0.02 0.01 0.01 0.00
0.00 0.00 0.00 0.00 0.00 0.01 0.01 0.01 0.01 0.02 0.02 0.04 0.03 0.03 0.03 0.08 0.05 0.02 0.03 0.03 0.06 0.08 0.06 0.01 0.00 0.04 0.11 0.16 0.14 0.01 0.00 0.02 0.14 0.28 0.20 0.19 0.05 0.01
0.00 0.00 0.00 0.00 0.01 0.01 0.02 0.01 0.02 0.01 0.01 0.02 0.03 0.04 0.03 0.07 0.07 0.05 0.04 0.07 0.04 0.04 0.05 0.01 0.00 0.04 0.08 0.22 0.12 0.02 0.00 0.00 0.00 0.03 0.11 0.28 0.35 0.32
0.00 0.00 0.00 0.00 0.01 0.02 0.02 0.02 0.02 0.01 0.01 0.03 0.04 0.03 0.04 0.06 0.03 0.04 0.05 0.06 0.08 0.10 0.06 0.05 0.01 0.01 0.04 0.11 0.13 0.09 0.02 0.00 0.00 0.00 0.00 0.01 0.00 0.01

GFSNE_prec_precacc24_072.txt.gz
Total_Precipitation_Accumulation
0.22 0.23 0.23 0.20 0.24 0.27 0.33 0.43 0.61 0.72 0.59 0.52 0.47 0.42 0.39 0.37 0.37 0.32 0.26 0.32 0.28 0.21 0.14 0.07 0.04 0.02 0.00 0.00 0.00 0.00 0.00 0.00 0.00 0.00 0.01 0.03 0.05 0.08
0.28 0.34 0.36 0.34 0.31 0.27 0.25 0.26 0.33 0.45 0.53 0.46 0.51 0.58 0.61 0.53 0.51 0.39 0.31 0.26 0.16 0.10 0.04 0.01 0.01 0.00 0.00 0.00 0.00 0.00 0.00 0.00 0.01 0.02 0.03 0.06 0.10 0.12
0.16 0.22 0.29 0.27 0.30 0.32 0.40 0.53 0.67 0.77 0.82 0.73 0.67 0.60 0.51 0.42 0.35 0.24 0.18 0.10 0.05 0.02 0.01 0.00 0.00 0.00 0.00 0.00 0.00 0.00 0.00 0.01 0.03 0.03 0.04 0.08 0.11 0.11
0.07 0.10 0.14 0.16 0.21 0.25 0.34 0.42 0.49 0.55 0.58 0.56 0.47 0.40 0.32 0.23 0.15 0.06 0.03 0.01 0.00 0.00 0.00 0.00 0.00 0.00 0.00 0.00 0.00 0.01 0.02 0.03 0.02 0.01 0.02 0.02 0.02 0.02
0.13 0.16 0.20 0.23 0.29 0.31 0.31 0.32 0.32 0.27 0.22 0.21 0.20 0.15 0.10 0.04 0.02 0.00 0.00 0.00 0.00 0.00 0.00 0.00 0.00 0.00 0.00 0.00 0.01 0.00 0.00 0.00 0.00 0.01 0.00 0.00 0.01 0.01
0.21 0.27 0.29 0.31 0.31 0.31 0.32 0.31 0.25 0.16 0.11 0.10 0.05 0.01 0.00 0.00 0.00 0.00 0.00 0.00 0.00 0.00 0.00 0.00 0.00 0.00 0.00 0.00 0.00 0.00 0.00 0.00 0.00 0.01 0.01 0.01 0.01 0.02
0.31 0.31 0.33 0.35 0.32 0.26 0.21 0.15 0.08 0.04 0.02 0.02 0.01 0.00 0.00 0.00 0.00 0.00 0.00 0.00 0.00 0.00 0.00 0.00 0.00 0.00 0.00 0.00 0.00 0.00 0.00 0.00 0.00 0.01 0.01 0.02 0.03 0.04
0.36 0.33 0.31 0.28 0.19 0.14 0.11 0.07 0.02 0.00 0.00 0.00 0.00 0.00 0.00 0.00 0.00 0.00 0.00 0.00 0.01 0.00 0.00 0.00 0.00 0.00 0.00 0.00 0.00 0.00 0.00 0.00 0.00 0.01 0.01 0.02 0.03 0.04
0.29 0.22 0.13 0.09 0.07 0.04 0.01 0.00 0.00 0.00 0.00 0.00 0.00 0.00 0.00 0.00 0.00 0.01 0.01 0.02 0.01 0.00 0.00 0.00 0.00 0.00 0.00 0.00 0.00 0.00 0.00 0.00 0.00 0.01 0.01 0.01 0.02 0.03
0.07 0.03 0.01 0.01 0.00 0.00 0.00 0.00 0.00 0.00 0.00 0.00 0.00 0.00 0.00 0.00 0.01 0.03 0.01 0.00 0.00 0.00 0.00 0.00 0.00 0.00 0.00 0.00 0.00 0.00 0.00 0.00 0.00 0.00 0.01 0.01 0.01 0.01
0.00 0.00 0.00 0.00 0.00 0.00 0.00 0.00 0.00 0.00 0.00 0.00 0.00 0.00 0.00 0.00 0.00 0.00 0.00 0.00 0.00 0.00 0.00 0.00 0.00 0.00 0.00 0.00 0.00 0.00 0.00 0.00 0.00 0.00 0.00 0.00 0.01 0.01
0.00 0.00 0.00 0.00 0.00 0.00 0.00 0.00 0.00 0.00 0.00 0.00 0.00 0.00 0.00 0.00 0.00 0.00 0.00 0.00 0.03 0.03 0.00 0.02 0.00 0.01 0.04 0.00 0.00 0.00 0.00 0.00 0.00 0.00 0.00 0.00 0.01 0.00
0.00 0.00 0.00 0.00 0.00 0.00 0.00 0.00 0.00 0.00 0.00 0.00 0.00 0.00 0.00 0.00 0.00 0.00 0.00 0.00 0.04 0.04 0.00 0.12 0.11 0.01 0.07 0.02 0.00 0.00 0.00 0.00 0.00 0.00 0.00 0.00 0.00 0.01
0.00 0.00 0.00 0.00 0.00 0.00 0.00 0.00 0.00 0.00 0.00 0.00 0.00 0.00 0.00 0.00 0.00 0.00 0.00 0.00 0.01 0.02 0.00 0.05 0.21 0.04 0.13 0.08 0.01 0.00 0.00 0.00 0.00 0.00 0.00 0.00 0.00 0.00
0.00 0.00 0.00 0.00 0.00 0.00 0.00 0.00 0.00 0.00 0.00 0.00 0.00 0.00 0.00 0.00 0.00 0.00 0.00 0.00 0.00 0.00 0.00 0.00 0.06 0.04 0.14 0.14 0.06 0.01 0.00 0.00 0.00 0.00 0.00 0.00 0.00 0.00
0.00 0.00 0.00 0.00 0.00 0.00 0.00 0.00 0.00 0.00 0.00 0.00 0.00 0.00 0.00 0.00 0.00 0.00 0.01 0.00 0.01 0.00 0.00 0.00 0.00 0.05 0.12 0.06 0.07 0.05 0.00 0.02 0.00 0.00 0.00 0.00 0.00 0.00
0.00 0.00 0.00 0.00 0.00 0.00 0.00 0.00 0.00 0.00 0.00 0.00 0.00 0.00 0.00 0.00 0.00 0.00 0.01 0.02 0.04 0.01 0.00 0.00 0.00 0.01 0.03 0.05 0.09 0.02 0.00 0.00 0.00 0.00 0.03 0.04 0.00 0.00
0.00 0.00 0.00 0.00 0.00 0.00 0.00 0.00 0.00 0.00 0.00 0.00 0.01 0.01 0.02 0.02 0.02 0.01 0.01 0.04 0.04 0.01 0.01 0.00 0.00 0.03 0.01 0.00 0.01 0.03 0.03 0.01 0.00 0.01 0.02 0.10 0.04 0.00
0.00 0.00 0.00 0.00 0.00 0.00 0.00 0.00 0.00 0.00 0.00 0.01 0.01 0.01 0.02 0.02 0.02 0.02 0.01 0.03 0.02 0.01 0.01 0.00 0.05 0.16 0.20 0.04 0.00 0.03 0.30 0.15 0.04 0.03 0.01 0.02 0.03 0.00
0.00 0.00 0.00 0.00 0.00 0.00 0.00 0.01 0.01 0.01 0.01 0.01 0.02 0.03 0.04 0.05 0.04 0.02 0.02 0.04 0.06 0.04 0.02 0.00 0.02 0.14 0.34 0.24 0.21 0.02 0.03 0.17 0.14 0.09 0.01 0.01 0.01 0.00
0.00 0.00 0.00 0.00 0.00 0.01 0.01 0.01 0.01 0.01 0.02 0.03 0.02 0.03 0.02 0.07 0.05 0.02 0.03 0.03 0.05 0.07 0.05 0.01 0.00 0.03 0.08 0.14 0.14 0.01 0.00 0.02 0.13 0.24 0.17 0.16 0.05 0.01
0.00 0.00 0.00 0.00 0.01 0.01 0.01 0.01 0.02 0.01 0.01 0.02 0.02 0.03 0.02 0.06 0.06 0.04 0.04 0.06 0.03 0.03 0.04 0.01 0.00 0.02 0.07 0.18 0.10 0.02 0.00 0.00 0.00 0.03 0.11 0.24 0.29 0.26
0.00 0.00 0.00 0.00 0.01 0.01 0.01 0.01 0.02 0.01 0.01 0.02 0.04 0.03 0.04 0.05 0.03 0.04 0.05 0.06 0.07 0.08 0.04 0.03 0.01 0.01 0.03 0.09 0.11 0.08 0.02 0.00 0.00 0.00 0.00 0.01 0.00 0.00

GFSNE_prec_precacc24_075.txt.gz
Total_Precipitation_Accumulation
0.22 0.23 0.23 0.20 0.24 0.27 0.34 0.44 0.62 0.74 0.60 0.52 0.47 0.42 0.40 0.41 0.45 0.42 0.35 0.46 0.43 0.36 0.31 0.24 0.18 0.12 0.08 0.06 0.06 0.04 0.00 0.00 0.00 0.00 0.00 0.01 0.02 0.03
0.27 0.33 0.35 0.34 0.31 0.27 0.25 0.26 0.34 0.46 0.54 0.46 0.51 0.59 0.61 0.57 0.58 0.46 0.41 0.41 0.32 0.27 0.22 0.17 0.10 0.05 0.04 0.02 0.01 0.00 0.00 0.00 0.00 0.01 0.02 0.03 0.05 0.08
0.15 0.22 0.29 0.27 0.30 0.32 0.40 0.54 0.68 0.77 0.82 0.73 0.67 0.61 0.51 0.43 0.38 0.29 0.26 0.20 0.17 0.14 0.10 0.07 0.04 0.03 0.01 0.00 0.00 0.00 0.00 0.00 0.01 0.02 0.03 0.06 0.08 0.07
0.07 0.10 0.14 0.16 0.21 0.25 0.34 0.43 0.50 0.56 0.58 0.56 0.47 0.40 0.33 0.27 0.24 0.13 0.09 0.06 0.04 0.05 0.04 0.03 0.01 0.00 0.00 0.00 0.00 0.00 0.01 0.02 0.01 0.01 0.02 0.02 0.02 0.02
0.07 0.13 0.19 0.22 0.28 0.31 0.31 0.32 0.32 0.27 0.22 0.21 0.22 0.20 0.18 0.14 0.07 0.02 0.01 0.02 0.01 0.01 0.00 0.00 0.00 0.00 0.00 0.00 0.00 0.00 0.00 0.00 0.00 0.01 0.00 0.00 0.01 0.00
0.16 0.22 0.27 0.30 0.30 0.31 0.32 0.31 0.25 0.16 0.12 0.10 0.06 0.04 0.02 0.01 0.00 0.00 0.00 0.00 0.00 0.00 0.00 0.00 0.00 0.00 0.00 0.00 0.00 0.00 0.00 0.00 0.00 0.00 0.00 0.01 0.01 0.01
0.29 0.31 0.32 0.35 0.32 0.26 0.21 0.15 0.08 0.04 0.02 0.02 0.01 0.00 0.00 0.00 0.00 0.00 0.00 0.00 0.00 0.00 0.00 0.00 0.00 0.00 0.00 0.00 0.00 0.00 0.00 0.00 0.00 0.00 0.01 0.01 0.02 0.03
0.32 0.31 0.30 0.28 0.19 0.14 0.11 0.07 0.02 0.00 0.00 0.00 0.00 0.00 0.00 0.00 0.00 0.00 0.00 0.00 0.00 0.00 0.00 0.00 0.00 0.00 0.00 0.00 0.00 0.00 0.00 0.00 0.00 0.01 0.01 0.02 0.02 0.03
0.28 0.22 0.13 0.09 0.07 0.04 0.01 0.00 0.00 0.00 0.00 0.00 0.00 0.00 0.00 0.00 0.00 0.00 0.00 0.01 0.01 0.00 0.00 0.00 0.00 0.00 0.00 0.00 0.00 0.00 0.00 0.00 0.00 0.00 0.01 0.01 0.02 0.02
0.07 0.03 0.01 0.01 0.00 0.00 0.00 0.00 0.00 0.00 0.00 0.00 0.00 0.00 0.00 0.00 0.00 0.01 0.01 0.00 0.00 0.00 0.00 0.00 0.00 0.00 0.00 0.00 0.00 0.00 0.00 0.00 0.00 0.00 0.00 0.01 0.01 0.01
0.00 0.00 0.00 0.00 0.00 0.00 0.00 0.00 0.00 0.00 0.00 0.00 0.00 0.00 0.00 0.00 0.00 0.00 0.00 0.00 0.00 0.00 0.00 0.00 0.00 0.00 0.00 0.00 0.00 0.00 0.00 0.00 0.00 0.00 0.00 0.00 0.00 0.01
0.00 0.00 0.00 0.00 0.00 0.00 0.00 0.00 0.00 0.00 0.00 0.00 0.00 0.00 0.00 0.00 0.00 0.00 0.00 0.00 0.02 0.02 0.00 0.01 0.00 0.01 0.03 0.00 0.00 0.00 0.00 0.00 0.00 0.00 0.00 0.00 0.01 0.00
0.00 0.00 0.00 0.00 0.00 0.00 0.00 0.00 0.00 0.00 0.00 0.00 0.00 0.00 0.00 0.00 0.00 0.00 0.00 0.00 0.03 0.02 0.00 0.09 0.07 0.01 0.06 0.01 0.00 0.00 0.00 0.00 0.00 0.00 0.00 0.00 0.00 0.01
0.00 0.00 0.00 0.00 0.00 0.00 0.00 0.00 0.00 0.00 0.00 0.00 0.00 0.00 0.00 0.00 0.00 0.00 0.00 0.00 0.00 0.01 0.00 0.04 0.16 0.03 0.10 0.07 0.01 0.00 0.00 0.00 0.00 0.00 0.00 0.00 0.00 0.00
0.00 0.00 0.00 0.00 0.00 0.00 0.00 0.00 0.00 0.00 0.00 0.00 0.00 0.00 0.00 0.00 0.00 0.00 0.00 0.00 0.00 0.00 0.00 0.00 0.04 0.03 0.12 0.12 0.05 0.01 0.00 0.00 0.00 0.00 0.00 0.00 0.00 0.00
0.00 0.00 0.00 0.00 0.00 0.00 0.00 0.00 0.00 0.00 0.00 0.00 0.00 0.00 0.00 0.00 0.00 0.00 0.01 0.00 0.01 0.00 0.00 0.00 0.00 0.05 0.11 0.06 0.07 0.04 0.00 0.01 0.00 0.00 0.00 0.00 0.00 0.00
0.00 0.00 0.00 0.00 0.00 0.00 0.00 0.00 0.00 0.00 0.00 0.00 0.00 0.00 0.00 0.00 0.00 0.00 0.01 0.02 0.04 0.01 0.00 0.00 0.00 0.01 0.04 0.05 0.09 0.02 0.00 0.00 0.00 0.00 0.03 0.04 0.00 0.00
0.00 0.00 0.00 0.00 0.00 0.00 0.00 0.00 0.00 0.00 0.00 0.00 0.01 0.01 0.01 0.01 0.01 0.01 0.01 0.04 0.04 0.01 0.01 0.00 0.00 0.03 0.01 0.00 0.01 0.03 0.02 0.01 0.00 0.01 0.02 0.08 0.03 0.00
0.00 0.00 0.00 0.00 0.00 0.00 0.00 0.00 0.00 0.00 0.00 0.01 0.01 0.01 0.02 0.02 0.02 0.02 0.01 0.02 0.02 0.01 0.01 0.00 0.03 0.14 0.18 0.04 0.00 0.02 0.22 0.09 0.02 0.02 0.01 0.01 0.03 0.00
0.00 0.00 0.00 0.00 0.00 0.00 0.00 0.01 0.01 0.01 0.01 0.01 0.01 0.02 0.03 0.04 0.03 0.02 0.02 0.03 0.04 0.03 0.02 0.00 0.01 0.10 0.29 0.20 0.17 0.02 0.02 0.13 0.10 0.06 0.01 0.01 0.00 0.00
0.00 0.00 0.00 0.00 0.00 0.00 0.01 0.01 0.01 0.01 0.02 0.03 0.02 0.02 0.02 0.05 0.04 0.02 0.03 0.03 0.05 0.06 0.05 0.01 0.00 0.02 0.05 0.13 0.13 0.01 0.00 0.02 0.11 0.18 0.13 0.13 0.05 0.01
0.00 0.00 0.00 0.00 0.00 0.01 0.01 0.01 0.01 0.01 0.01 0.01 0.02 0.03 0.02 0.05 0.05 0.04 0.03 0.05 0.02 0.03 0.03 0.00 0.00 0.02 0.06 0.16 0.09 0.02 0.00 0.00 0.00 0.03 0.09 0.19 0.22 0.20
0.00 0.00 0.00 0.00 0.00 0.01 0.01 0.01 0.02 0.01 0.01 0.02 0.03 0.03 0.04 0.05 0.03 0.04 0.04 0.04 0.06 0.08 0.04 0.03 0.01 0.01 0.03 0.07 0.08 0.06 0.01 0.00 0.00 0.00 0.00 0.01 0.00 0.00

GFSNE_prec_precacc24_078.txt.gz
Total_Precipitation_Accumulation
0.22 0.23 0.23 0.20 0.24 0.28 0.34 0.44 0.63 0.74 0.60 0.53 0.47 0.42 0.40 0.41 0.45 0.42 0.35 0.49 0.52 0.45 0.42 0.36 0.31 0.25 0.21 0.18 0.14 0.11 0.08 0.07 0.05 0.02 0.01 0.00 0.01 0.02
0.27 0.33 0.35 0.34 0.31 0.27 0.25 0.26 0.34 0.47 0.54 0.46 0.51 0.59 0.61 0.57 0.58 0.46 0.42 0.45 0.40 0.35 0.29 0.27 0.25 0.21 0.16 0.09 0.05 0.03 0.02 0.01 0.01 0.01 0.01 0.02 0.03 0.05
0.15 0.22 0.28 0.26 0.29 0.31 0.37 0.51 0.66 0.76 0.82 0.73 0.67 0.61 0.51 0.43 0.38 0.30 0.28 0.23 0.22 0.19 0.14 0.11 0.09 0.09 0.07 0.03 0.01 0.00 0.00 0.00 0.00 0.01 0.02 0.04 0.05 0.05
0.07 0.09 0.13 0.14 0.17 0.20 0.28 0.38 0.48 0.55 0.58 0.56 0.47 0.40 0.33 0.27 0.26 0.18 0.10 0.07 0.06 0.08 0.06 0.05 0.04 0.02 0.00 0.00 0.00 0.00 0.00 0.01 0.01 0.01 0.01 0.01 0.01 0.02
0.04 0.05 0.08 0.10 0.16 0.24 0.28 0.31 0.31 0.27 0.22 0.21 0.22 0.20 0.18 0.15 0.08 0.03 0.02 0.02 0.01 0.02 0.01 0.00 0.00 0.00 0.00 0.00 0.00 0.00 0.00 0.00 0.00 0.00 0.00 0.00 0.00 0.00
0.12 0.17 0.21 0.25 0.27 0.30 0.31 0.31 0.25 0.16 0.12 0.10 0.06 0.04 0.02 0.01 0.00 0.00 0.00 0.00 0.00 0.00 0.00 0.00 0.00 0.00 0.00 0.00 0.00 0.00 0.00 0.00 0.00 0.00 0.00 0.00 0.00 0.01
0.17 0.21 0.25 0.30 0.30 0.26 0.21 0.15 0.08 0.04 0.02 0.02 0.01 0.00 0.00 0.00 0.00 0.00 0.00 0.00 0.00 0.00 0.00 0.00 0.00 0.00 0.00 0.00 0.00 0.00 0.00 0.00 0.00 0.00 0.01 0.01 0.01 0.02
0.19 0.22 0.25 0.25 0.18 0.14 0.11 0.07 0.02 0.00 0.00 0.00 0.00 0.00 0.00 0.00 0.00 0.00 0.00 0.00 0.00 0.00 0.00 0.00 0.00 0.00 0.00 0.00 0.00 0.00 0.00 0.00 0.00 0.00 0.01 0.01 0.02 0.02
0.27 0.21 0.13 0.09 0.07 0.04 0.01 0.00 0.00 0.00 0.00 0.00 0.00 0.00 0.00 0.00 0.00 0.00 0.00 0.00 0.00 0.00 0.00 0.00 0.00 0.00 0.00 0.00 0.00 0.00 0.00 0.00 0.00 0.00 0.01 0.01 0.01 0.01
0.07 0.03 0.01 0.01 0.00 0.00 0.00 0.00 0.00 0.00 0.00 0.00 0.00 0.00 0.00 0.00 0.00 0.01 0.00 0.00 0.00 0.00 0.00 0.00 0.00 0.00 0.00 0.00 0.00 0.00 0.00 0.00 0.00 0.00 0.00 0.01 0.00 0.01
0.00 0.00 0.00 0.00 0.00 0.00 0.00 0.00 0.00 0.00 0.00 0.00 0.00 0.00 0.00 0.00 0.00 0.00 0.00 0.00 0.00 0.00 0.00 0.00 0.00 0.00 0.00 0.00 0.00 0.00 0.00 0.00 0.00 0.00 0.00 0.00 0.00 0.01
0.00 0.00 0.00 0.00 0.00 0.00 0.00 0.00 0.00 0.00 0.00 0.00 0.00 0.00 0.00 0.00 0.00 0.00 0.00 0.00 0.01 0.01 0.00 0.01 0.00 0.01 0.03 0.00 0.00 0.00 0.00 0.00 0.00 0.00 0.00 0.00 0.01 0.00
0.00 0.00 0.00 0.00 0.00 0.00 0.00 0.00 0.00 0.00 0.00 0.00 0.00 0.00 0.00 0.00 0.00 0.00 0.00 0.00 0.01 0.01 0.00 0.07 0.04 0.01 0.04 0.01 0.00 0.00 0.00 0.00 0.00 0.00 0.00 0.00 0.00 0.01
0.00 0.00 0.00 0.00 0.00 0.00 0.00 0.00 0.00 0.00 0.00 0.00 0.00 0.00 0.00 0.00 0.00 0.00 0.00 0.00 0.00 0.01 0.00 0.03 0.11 0.03 0.07 0.05 0.01 0.00 0.00 0.00 0.00 0.00 0.00 0.00 0.00 0.00
0.00 0.00 0.00 0.00 0.00 0.00 0.00 0.00 0.00 0.00 0.00 0.00 0.00 0.00 0.00 0.00 0.00 0.00 0.00 0.00 0.00 0.00 0.00 0.00 0.04 0.03 0.11 0.11 0.04 0.01 0.00 0.00 0.00 0.00 0.00 0.00 0.00 0.00
0.00 0.00 0.00 0.00 0.00 0.00 0.00 0.00 0.00 0.00 0.00 0.00 0.00 0.00 0.00 0.00 0.00 0.00 0.00 0.00 0.01 0.00 0.00 0.00 0.00 0.05 0.10 0.05 0.05 0.04 0.00 0.02 0.00 0.00 0.00 0.00 0.00 0.00
0.00 0.00 0.00 0.00 0.00 0.00 0.00 0.00 0.00 0.00 0.00 0.00 0.00 0.00 0.00 0.00 0.00 0.00 0.01 0.02 0.03 0.01 0.00 0.00 0.00 0.01 0.03 0.04 0.06 0.01 0.00 0.00 0.00 0.00 0.03 0.04 0.00 0.00
0.00 0.00 0.00 0.00 0.00 0.00 0.00 0.00 0.00 0.00 0.00 0.00 0.01 0.01 0.01 0.01 0.01 0.01 0.01 0.03 0.04 0.01 0.01 0.00 0.00 0.02 0.01 0.00 0.00 0.01 0.01 0.01 0.00 0.01 0.02 0.07 0.02 0.00
0.00 0.00 0.00 0.00 0.00 0.00 0.00 0.00 0.00 0.00 0.00 0.01 0.01 0.01 0.02 0.02 0.02 0.02 0.01 0.02 0.02 0.01 0.01 0.00 0.02 0.10 0.16 0.04 0.00 0.01 0.12 0.04 0.01 0.01 0.01 0.01 0.02 0.00
0.00 0.00 0.00 0.00 0.00 0.00 0.00 0.00 0.00 0.01 0.01 0.01 0.01 0.02 0.02 0.04 0.04 0.02 0.02 0.03 0.04 0.03 0.01 0.00 0.01 0.05 0.21 0.13 0.13 0.02 0.01 0.06 0.04 0.03 0.01 0.01 0.00 0.00
0.00 0.00 0.00 0.00 0.00 0.00 0.00 0.00 0.01 0.01 0.02 0.02 0.02 0.02 0.02 0.05 0.04 0.02 0.02 0.03 0.04 0.05 0.04 0.00 0.00 0.01 0.04 0.12 0.13 0.01 0.00 0.01 0.05 0.10 0.07 0.10 0.04 0.02
0.00 0.00 0.00 0.00 0.00 0.00 0.01 0.01 0.01 0.01 0.01 0.01 0.01 0.02 0.02 0.05 0.04 0.03 0.03 0.04 0.02 0.02 0.02 0.00 0.00 0.01 0.06 0.15 0.08 0.01 0.00 0.00 0.00 0.01 0.05 0.12 0.16 0.16
0.00 0.00 0.00 0.00 0.00 0.01 0.01 0.01 0.01 0.01 0.01 0.02 0.02 0.02 0.03 0.04 0.02 0.03 0.03 0.03 0.04 0.06 0.03 0.03 0.01 0.02 0.03 0.05 0.06 0.04 0.01 0.00 0.00 0.00 0.00 0.00 0.00 0.00

GFSNE_prec_precacc24_081.txt.gz
Total_Precipitation_Accumulation
0.22 0.23 0.22 0.19 0.24 0.27 0.34 0.43 0.61 0.71 0.58 0.52 0.47 0.42 0.39 0.41 0.45 0.42 0.35 0.49 0.53 0.48 0.47 0.43 0.37 0.30 0.26 0.25 0.23 0.20 0.15 0.11 0.10 0.08 0.08 0.08 0.06 0.05
0.27 0.33 0.35 0.34 0.31 0.27 0.24 0.26 0.32 0.45 0.52 0.44 0.47 0.54 0.58 0.55 0.58 0.46 0.42 0.45 0.42 0.38 0.33 0.31 0.29 0.24 0.21 0.16 0.11 0.07 0.06 0.04 0.03 0.03 0.04 0.05 0.05 0.05
0.15 0.22 0.28 0.26 0.29 0.30 0.36 0.48 0.60 0.67 0.72 0.69 0.65 0.60 0.51 0.42 0.38 0.30 0.28 0.23 0.23 0.21 0.16 0.13 0.11 0.10 0.09 0.06 0.03 0.02 0.02 0.02 0.01 0.02 0.01 0.02 0.03 0.03
0.06 0.09 0.13 0.13 0.16 0.17 0.21 0.29 0.39 0.50 0.56 0.55 0.46 0.39 0.33 0.27 0.26 0.18 0.10 0.07 0.06 0.09 0.06 0.05 0.04 0.02 0.01 0.00 0.00 0.00 0.00 0.01 0.00 0.00 0.01 0.00 0.01 0.01
0.04 0.05 0.06 0.07 0.10 0.12 0.17 0.24 0.28 0.24 0.19 0.19 0.22 0.20 0.18 0.15 0.08 0.03 0.02 0.02 0.01 0.02 0.01 0.00 0.00 0.00 0.00 0.00 0.00 0.00 0.00 0.00 0.00 0.00 0.00 0.00 0.00 0.00
0.06 0.07 0.08 0.11 0.16 0.22 0.25 0.24 0.19 0.12 0.09 0.10 0.06 0.04 0.02 0.01 0.00 0.00 0.00 0.00 0.00 0.00 0.00 0.00 0.00 0.00 0.00 0.00 0.00 0.00 0.00 0.00 0.00 0.00 0.00 0.00 0.00 0.00
0.04 0.09 0.14 0.18 0.18 0.16 0.14 0.11 0.07 0.03 0.02 0.02 0.01 0.00 0.00 0.00 0.00 0.00 0.00 0.00 0.00 0.00 0.00 0.00 0.00 0.00 0.00 0.00 0.00 0.00 0.00 0.00 0.00 0.00 0.00 0.01 0.01 0.01
0.13 0.14 0.17 0.19 0.14 0.12 0.10 0.07 0.02 0.00 0.00 0.00 0.00 0.00 0.00 0.00 0.00 0.00 0.00 0.00 0.00 0.00 0.00 0.00 0.00 0.00 0.00 0.00 0.00 0.00 0.00 0.00 0.00 0.00 0.00 0.01 0.01 0.01
0.17 0.13 0.08 0.07 0.06 0.03 0.01 0.00 0.00 0.00 0.00 0.00 0.00 0.00 0.00 0.00 0.00 0.00 0.00 0.00 0.00 0.00 0.00 0.00 0.00 0.00 0.00 0.00 0.00 0.00 0.00 0.00 0.00 0.00 0.00 0.01 0.01 0.01
0.03 0.01 0.01 0.01 0.00 0.00 0.00 0.00 0.00 0.00 0.00 0.00 0.00 0.00 0.00 0.00 0.00 0.00 0.00 0.00 0.00 0.00 0.00 0.00 0.00 0.00 0.00 0.00 0.00 0.00 0.00 0.00 0.00 0.00 0.00 0.00 0.00 0.01
0.00 0.00 0.00 0.00 0.00 0.00 0.00 0.00 0.00 0.00 0.00 0.00 0.00 0.00 0.00 0.00 0.00 0.00 0.00 0.00 0.00 0.00 0.00 0.00 0.00 0.00 0.00 0.00 0.00 0.00 0.00 0.00 0.00 0.00 0.00 0.00 0.00 0.00
0.00 0.00 0.00 0.00 0.00 0.00 0.00 0.00 0.00 0.00 0.00 0.00 0.00 0.00 0.00 0.00 0.00 0.00 0.00 0.00 0.00 0.00 0.00 0.00 0.00 0.01 0.02 0.00 0.00 0.00 0.00 0.00 0.00 0.00 0.00 0.00 0.01 0.00
0.00 0.00 0.00 0.00 0.00 0.00 0.00 0.00 0.00 0.00 0.00 0.00 0.00 0.00 0.00 0.00 0.00 0.00 0.00 0.00 0.01 0.00 0.00 0.05 0.03 0.00 0.03 0.01 0.00 0.00 0.00 0.00 0.00 0.00 0.00 0.00 0.00 0.00
0.00 0.00 0.00 0.00 0.00 0.00 0.00 0.00 0.00 0.00 0.00 0.00 0.00 0.00 0.00 0.00 0.00 0.00 0.00 0.00 0.00 0.01 0.00 0.03 0.09 0.02 0.06 0.05 0.01 0.00 0.00 0.00 0.00 0.00 0.00 0.00 0.00 0.00
0.00 0.00 0.00 0.00 0.00 0.00 0.00 0.00 0.00 0.00 0.00 0.00 0.00 0.00 0.00 0.00 0.00 0.00 0.00 0.00 0.00 0.00 0.00 0.00 0.04 0.03 0.10 0.10 0.04 0.00 0.00 0.00 0.00 0.00 0.00 0.00 0.00 0.00
0.00 0.00 0.00 0.00 0.00 0.00 0.00 0.00 0.00 0.00 0.00 0.00 0.00 0.00 0.00 0.00 0.00 0.00 0.00 0.00 0.01 0.00 0.00 0.00 0.00 0.04 0.08 0.04 0.04 0.03 0.00 0.01 0.00 0.00 0.00 0.00 0.00 0.00
0.00 0.00 0.00 0.00 0.00 0.00 0.00 0.00 0.00 0.00 0.00 0.00 0.00 0.00 0.00 0.00 0.00 0.00 0.01 0.01 0.03 0.01 0.00 0.00 0.00 0.01 0.03 0.03 0.04 0.01 0.00 0.00 0.00 0.00 0.03 0.03 0.00 0.00
0.00 0.00 0.00 0.00 0.00 0.00 0.00 0.00 0.00 0.00 0.00 0.00 0.01 0.01 0.01 0.01 0.01 0.01 0.01 0.03 0.03 0.01 0.01 0.00 0.00 0.02 0.01 0.00 0.00 0.00 0.00 0.01 0.00 0.01 0.02 0.05 0.01 0.00
0.00 0.00 0.00 0.00 0.00 0.00 0.00 0.00 0.00 0.00 0.00 0.01 0.01 0.01 0.01 0.01 0.02 0.02 0.01 0.02 0.02 0.01 0.01 0.00 0.01 0.08 0.14 0.04 0.00 0.00 0.03 0.01 0.01 0.00 0.00 0.01 0.01 0.00
0.00 0.00 0.00 0.00 0.00 0.00 0.00 0.00 0.00 0.01 0.01 0.01 0.01 0.01 0.02 0.03 0.03 0.02 0.01 0.03 0.03 0.02 0.01 0.00 0.01 0.04 0.16 0.08 0.10 0.01 0.00 0.01 0.01 0.01 0.00 0.00 0.00 0.00
0.00 0.00 0.00 0.00 0.00 0.00 0.00 0.00 0.00 0.01 0.01 0.02 0.02 0.02 0.02 0.04 0.03 0.01 0.02 0.02 0.04 0.05 0.03 0.00 0.00 0.00 0.03 0.12 0.13 0.01 0.00 0.00 0.00 0.03 0.03 0.07 0.04 0.02
0.00 0.00 0.00 0.00 0.00 0.00 0.00 0.00 0.01 0.01 0.01 0.01 0.01 0.02 0.02 0.04 0.04 0.03 0.02 0.04 0.02 0.02 0.02 0.00 0.00 0.01 0.06 0.14 0.07 0.01 0.00 0.00 0.00 0.00 0.01 0.07 0.12 0.15
0.00 0.00 0.00 0.00 0.00 0.00 0.00 0.01 0.01 0.01 0.01 0.02 0.02 0.02 0.03 0.04 0.02 0.03 0.03 0.03 0.03 0.04 0.02 0.03 0.01 0.02 0.03 0.05 0.06 0.03 0.00 0.00 0.00 0.00 0.00 0.00 0.00 0.00

GFSNE_prec_precacc24_084.txt.gz
Total_Precipitation_Accumulation
0.16 0.19 0.21 0.19 0.23 0.28 0.34 0.43 0.60 0.70 0.57 0.51 0.46 0.40 0.37 0.39 0.45 0.41 0.35 0.49 0.53 0.49 0.48 0.43 0.39 0.33 0.28 0.28 0.28 0.28 0.24 0.16 0.15 0.11 0.11 0.10 0.08 0.06
0.13 0.19 0.19 0.24 0.27 0.27 0.24 0.26 0.32 0.43 0.47 0.38 0.42 0.49 0.53 0.51 0.56 0.45 0.42 0.46 0.42 0.40 0.34 0.31 0.29 0.25 0.21 0.17 0.12 0.09 0.07 0.07 0.05 0.04 0.05 0.06 0.07 0.06
0.07 0.10 0.15 0.16 0.23 0.29 0.36 0.47 0.56 0.62 0.64 0.60 0.53 0.49 0.45 0.40 0.37 0.30 0.28 0.23 0.23 0.21 0.16 0.13 0.11 0.10 0.09 0.06 0.03 0.02 0.02 0.03 0.02 0.01 0.01 0.01 0.02 0.02
0.05 0.07 0.10 0.09 0.11 0.11 0.15 0.20 0.28 0.34 0.41 0.44 0.38 0.35 0.30 0.25 0.25 0.18 0.10 0.07 0.06 0.09 0.06 0.05 0.04 0.02 0.01 0.00 0.00 0.00 0.00 0.00 0.00 0.00 0.00 0.00 0.00 0.00
0.04 0.04 0.06 0.06 0.07 0.08 0.09 0.12 0.14 0.14 0.14 0.16 0.20 0.18 0.16 0.14 0.07 0.03 0.02 0.02 0.01 0.02 0.01 0.00 0.00 0.00 0.00 0.00 0.00 0.00 0.00 0.00 0.00 0.00 0.00 0.00 0.00 0.00
0.03 0.04 0.04 0.04 0.05 0.07 0.10 0.14 0.14 0.09 0.06 0.07 0.04 0.03 0.02 0.01 0.00 0.00 0.00 0.00 0.00 0.00 0.00 0.00 0.00 0.00 0.00 0.00 0.00 0.00 0.00 0.00 0.00 0.00 0.00 0.00 0.00 0.00
0.02 0.02 0.06 0.10 0.10 0.10 0.11 0.09 0.05 0.02 0.01 0.02 0.01 0.00 0.00 0.00 0.00 0.00 0.00 0.00 0.00 0.00 0.00 0.00 0.00 0.00 0.00 0.00 0.00 0.00 0.00 0.00 0.00 0.00 0.00 0.00 0.00 0.00
0.10 0.12 0.16 0.18 0.14 0.11 0.10 0.06 0.02 0.00 0.00 0.00 0.00 0.00 0.00 0.00 0.00 0.00 0.00 0.00 0.00 0.00 0.00 0.00 0.00 0.00 0.00 0.00 0.00 0.00 0.00 0.00 0.00 0.00 0.00 0.00 0.00 0.00
0.17 0.13 0.07 0.06 0.05 0.03 0.01 0.00 0.00 0.00 0.00 0.00 0.00 0.00 0.00 0.00 0.00 0.00 0.00 0.00 0.00 0.00 0.00 0.00 0.00 0.00 0.00 0.00 0.00 0.00 0.00 0.00 0.00 0.00 0.00 0.00 0.00 0.00
0.02 0.01 0.01 0.01 0.00 0.00 0.00 0.00 0.00 0.00 0.00 0.00 0.00 0.00 0.00 0.00 0.00 0.00 0.00 0.00 0.00 0.00 0.00 0.00 0.00 0.00 0.00 0.00 0.00 0.00 0.00 0.00 0.00 0.00 0.00 0.00 0.00 0.00
0.00 0.00 0.00 0.00 0.00 0.00 0.00 0.00 0.00 0.00 0.00 0.00 0.00 0.00 0.00 0.00 0.00 0.00 0.00 0.00 0.00 0.00 0.00 0.00 0.00 0.00 0.00 0.00 0.00 0.00 0.00 0.00 0.00 0.00 0.00 0.00 0.00 0.00
0.00 0.00 0.00 0.00 0.00 0.00 0.00 0.00 0.00 0.00 0.00 0.00 0.00 0.00 0.00 0.00 0.00 0.00 0.00 0.00 0.00 0.00 0.00 0.00 0.00 0.00 0.01 0.00 0.00 0.00 0.00 0.00 0.00 0.00 0.00 0.00 0.00 0.00
0.00 0.00 0.00 0.00 0.00 0.00 0.00 0.00 0.00 0.00 0.00 0.00 0.00 0.00 0.00 0.00 0.00 0.00 0.00 0.00 0.00 0.00 0.00 0.03 0.02 0.00 0.02 0.00 0.00 0.00 0.00 0.00 0.00 0.00 0.00 0.00 0.00 0.00
0.00 0.00 0.00 0.00 0.00 0.00 0.00 0.00 0.00 0.00 0.00 0.00 0.00 0.00 0.00 0.00 0.00 0.00 0.00 0.00 0.00 0.01 0.00 0.02 0.07 0.02 0.05 0.04 0.01 0.00 0.00 0.00 0.00 0.00 0.00 0.00 0.00 0.00
0.00 0.00 0.00 0.00 0.00 0.00 0.00 0.00 0.00 0.00 0.00 0.00 0.00 0.00 0.00 0.00 0.00 0.00 0.00 0.00 0.00 0.00 0.00 0.00 0.04 0.04 0.09 0.09 0.04 0.00 0.00 0.00 0.00 0.00 0.00 0.00 0.00 0.00
0.00 0.00 0.00 0.00 0.00 0.00 0.00 0.00 0.00 0.00 0.00 0.00 0.00 0.00 0.00 0.00 0.00 0.00 0.00 0.00 0.01 0.00 0.00 0.00 0.00 0.04 0.08 0.04 0.04 0.03 0.00 0.01 0.00 0.00 0.00 0.00 0.00 0.00
0.00 0.00 0.00 0.00 0.00 0.00 0.00 0.00 0.00 0.00 0.00 0.00 0.00 0.00 0.00 0.00 0.00 0.00 0.01 0.01 0.03 0.01 0.00 0.00 0.00 0.00 0.02 0.02 0.03 0.01 0.00 0.00 0.00 0.00 0.03 0.03 0.00 0.00
0.00 0.00 0.00 0.00 0.00 0.00 0.00 0.00 0.00 0.00 0.00 0.00 0.00 0.01 0.01 0.01 0.01 0.01 0.01 0.03 0.03 0.01 0.01 0.00 0.00 0.01 0.01 0.00 0.00 0.00 0.00 0.01 0.00 0.00 0.01 0.03 0.01 0.00
0.00 0.00 0.00 0.00 0.00 0.00 0.00 0.00 0.00 0.00 0.00 0.00 0.01 0.01 0.01 0.01 0.02 0.02 0.01 0.02 0.02 0.01 0.01 0.00 0.01 0.06 0.11 0.03 0.00 0.00 0.00 0.00 0.00 0.00 0.00 0.01 0.01 0.00
0.00 0.00 0.00 0.00 0.00 0.00 0.00 0.00 0.00 0.00 0.00 0.00 0.01 0.01 0.02 0.03 0.03 0.02 0.01 0.02 0.02 0.02 0.01 0.00 0.01 0.03 0.12 0.06 0.08 0.01 0.00 0.00 0.00 0.01 0.00 0.00 0.00 0.00
0.00 0.00 0.00 0.00 0.00 0.00 0.00 0.00 0.00 0.01 0.01 0.02 0.01 0.01 0.01 0.03 0.03 0.01 0.02 0.02 0.03 0.04 0.03 0.00 0.00 0.00 0.03 0.12 0.12 0.01 0.00 0.00 0.00 0.01 0.01 0.06 0.04 0.02
0.00 0.00 0.00 0.00 0.00 0.00 0.00 0.00 0.01 0.01 0.01 0.01 0.01 0.02 0.02 0.04 0.04 0.02 0.02 0.03 0.02 0.02 0.02 0.00 0.00 0.01 0.06 0.12 0.06 0.01 0.00 0.00 0.00 0.00 0.00 0.03 0.09 0.14
0.00 0.00 0.00 0.00 0.00 0.00 0.00 0.00 0.01 0.01 0.01 0.01 0.02 0.02 0.02 0.03 0.02 0.02 0.02 0.02 0.03 0.04 0.02 0.02 0.01 0.01 0.03 0.05 0.06 0.03 0.00 0.00 0.00 0.00 0.00 0.00 0.00 0.00

GFSNE_prec_precacc24_087.txt.gz
Total_Precipitation_Accumulation
0.10 0.14 0.14 0.10 0.13 0.15 0.18 0.24 0.36 0.52 0.45 0.45 0.45 0.40 0.37 0.38 0.43 0.39 0.34 0.49 0.55 0.51 0.49 0.43 0.40 0.35 0.32 0.32 0.31 0.30 0.26 0.20 0.20 0.17 0.14 0.11 0.09 0.07
0.08 0.12 0.12 0.11 0.11 0.13 0.14 0.16 0.24 0.35 0.44 0.38 0.40 0.44 0.47 0.45 0.50 0.41 0.40 0.45 0.43 0.41 0.35 0.31 0.29 0.25 0.22 0.18 0.14 0.10 0.08 0.07 0.07 0.06 0.06 0.06 0.06 0.06
0.05 0.06 0.09 0.08 0.09 0.14 0.24 0.36 0.49 0.54 0.54 0.48 0.43 0.38 0.35 0.32 0.33 0.29 0.28 0.23 0.23 0.21 0.16 0.13 0.11 0.10 0.09 0.06 0.03 0.02 0.02 0.03 0.02 0.02 0.01 0.01 0.01 0.02
0.04 0.04 0.06 0.06 0.09 0.09 0.12 0.15 0.20 0.28 0.34 0.36 0.32 0.30 0.28 0.24 0.24 0.18 0.10 0.07 0.06 0.09 0.06 0.05 0.04 0.02 0.01 0.00 0.00 0.00 0.00 0.00 0.00 0.00 0.00 0.00 0.00 0.00
0.02 0.03 0.04 0.04 0.06 0.06 0.07 0.09 0.11 0.10 0.09 0.13 0.19 0.18 0.16 0.14 0.07 0.03 0.02 0.02 0.01 0.02 0.01 0.00 0.00 0.00 0.00 0.00 0.00 0.00 0.00 0.00 0.00 0.00 0.00 0.00 0.00 0.00
0.02 0.03 0.04 0.03 0.02 0.03 0.06 0.09 0.10 0.07 0.06 0.07 0.04 0.03 0.02 0.01 0.00 0.00 0.00 0.00 0.00 0.00 0.00 0.00 0.00 0.00 0.00 0.00 0.00 0.00 0.00 0.00 0.00 0.00 0.00 0.00 0.00 0.00
0.01 0.01 0.03 0.06 0.08 0.10 0.10 0.09 0.04 0.02 0.01 0.02 0.01 0.00 0.00 0.00 0.00 0.00 0.00 0.00 0.00 0.00 0.00 0.00 0.00 0.00 0.00 0.00 0.00 0.00 0.00 0.00 0.00 0.00 0.00 0.00 0.00 0.00
0.08 0.11 0.15 0.17 0.13 0.11 0.10 0.06 0.02 0.00 0.00 0.00 0.00 0.00 0.00 0.00 0.00 0.00 0.00 0.00 0.00 0.00 0.00 0.00 0.00 0.00 0.00 0.00 0.00 0.00 0.00 0.00 0.00 0.00 0.00 0.00 0.00 0.00
0.13 0.10 0.05 0.05 0.05 0.03 0.01 0.00 0.00 0.00 0.00 0.00 0.00 0.00 0.00 0.00 0.00 0.00 0.00 0.00 0.00 0.00 0.00 0.00 0.00 0.00 0.00 0.00 0.00 0.00 0.00 0.00 0.00 0.00 0.00 0.00 0.00 0.00
0.02 0.01 0.01 0.01 0.00 0.00 0.00 0.00 0.00 0.00 0.00 0.00 0.00 0.00 0.00 0.00 0.00 0.00 0.00 0.00 0.00 0.00 0.00 0.00 0.00 0.00 0.00 0.00 0.00 0.00 0.00 0.00 0.00 0.00 0.00 0.00 0.00 0.00
0.00 0.00 0.00 0.00 0.00 0.00 0.00 0.00 0.00 0.00 0.00 0.00 0.00 0.00 0.00 0.00 0.00 0.00 0.00 0.00 0.00 0.00 0.00 0.00 0.00 0.00 0.00 0.00 0.00 0.00 0.00 0.00 0.00 0.00 0.00 0.00 0.00 0.00
0.00 0.00 0.00 0.00 0.00 0.00 0.00 0.00 0.00 0.00 0.00 0.00 0.00 0.00 0.00 0.00 0.00 0.00 0.00 0.00 0.00 0.00 0.00 0.00 0.00 0.00 0.01 0.00 0.00 0.00 0.00 0.00 0.00 0.00 0.00 0.00 0.00 0.00
0.00 0.00 0.00 0.00 0.00 0.00 0.00 0.00 0.00 0.00 0.00 0.00 0.00 0.00 0.00 0.00 0.00 0.00 0.00 0.00 0.00 0.00 0.00 0.02 0.01 0.00 0.01 0.00 0.00 0.00 0.00 0.00 0.00 0.00 0.00 0.00 0.00 0.00
0.00 0.00 0.00 0.00 0.00 0.00 0.00 0.00 0.00 0.00 0.00 0.00 0.00 0.00 0.00 0.00 0.00 0.00 0.00 0.00 0.00 0.01 0.00 0.01 0.06 0.02 0.04 0.03 0.01 0.00 0.00 0.00 0.00 0.00 0.00 0.00 0.00 0.00
0.00 0.00 0.00 0.00 0.00 0.00 0.00 0.00 0.00 0.00 0.00 0.00 0.00 0.00 0.00 0.00 0.00 0.00 0.00 0.00 0.00 0.00 0.00 0.00 0.03 0.03 0.08 0.07 0.03 0.00 0.00 0.00 0.00 0.00 0.00 0.00 0.00 0.00
0.00 0.00 0.00 0.00 0.00 0.00 0.00 0.00 0.00 0.00 0.00 0.00 0.00 0.00 0.00 0.00 0.00 0.00 0.00 0.00 0.01 0.00 0.00 0.00 0.00 0.03 0.07 0.04 0.02 0.02 0.00 0.01 0.00 0.00 0.00 0.00 0.00 0.00
0.00 0.00 0.00 0.00 0.00 0.00 0.00 0.00 0.00 0.00 0.00 0.00 0.00 0.00 0.00 0.00 0.00 0.00 0.01 0.01 0.02 0.01 0.00 0.00 0.00 0.00 0.01 0.01 0.02 0.00 0.00 0.00 0.00 0.00 0.02 0.02 0.00 0.00
0.00 0.00 0.00 0.00 0.00 0.00 0.00 0.00 0.00 0.00 0.00 0.00 0.00 0.01 0.01 0.01 0.01 0.01 0.01 0.02 0.03 0.01 0.01 0.00 0.00 0.01 0.01 0.00 0.00 0.00 0.00 0.00 0.00 0.00 0.00 0.02 0.00 0.00
0.00 0.00 0.00 0.00 0.00 0.00 0.00 0.00 0.00 0.00 0.00 0.00 0.01 0.01 0.01 0.01 0.02 0.02 0.01 0.01 0.02 0.00 0.00 0.00 0.00 0.05 0.09 0.02 0.00 0.00 0.00 0.00 0.00 0.00 0.00 0.00 0.00 0.00
0.00 0.00 0.00 0.00 0.00 0.00 0.00 0.00 0.00 0.00 0.00 0.00 0.01 0.01 0.01 0.02 0.02 0.01 0.01 0.02 0.02 0.01 0.01 0.00 0.01 0.02 0.09 0.04 0.07 0.01 0.00 0.00 0.00 0.00 0.00 0.00 0.00 0.00
0.00 0.00 0.00 0.00 0.00 0.00 0.00 0.00 0.00 0.00 0.01 0.02 0.01 0.01 0.01 0.03 0.02 0.01 0.02 0.02 0.03 0.04 0.03 0.00 0.00 0.00 0.04 0.11 0.11 0.00 0.00 0.00 0.00 0.00 0.00 0.04 0.03 0.01
0.00 0.00 0.00 0.00 0.00 0.00 0.00 0.00 0.00 0.00 0.00 0.01 0.01 0.01 0.01 0.03 0.03 0.02 0.01 0.03 0.01 0.02 0.01 0.00 0.00 0.00 0.03 0.11 0.06 0.01 0.00 0.00 0.00 0.00 0.00 0.02 0.06 0.10
0.00 0.00 0.00 0.00 0.00 0.00 0.00 0.00 0.00 0.00 0.00 0.01 0.01 0.01 0.02 0.02 0.01 0.02 0.02 0.02 0.02 0.03 0.02 0.01 0.01 0.01 0.03 0.04 0.05 0.03 0.00 0.00 0.00 0.00 0.00 0.00 0.00 0.00

GFSNE_prec_precacc24_090.txt.gz
Total_Precipitation_Accumulation
0.03 0.05 0.07 0.07 0.09 0.12 0.15 0.16 0.19 0.20 0.10 0.11 0.20 0.26 0.30 0.33 0.38 0.36 0.33 0.49 0.55 0.51 0.49 0.44 0.40 0.36 0.34 0.33 0.33 0.33 0.29 0.22 0.21 0.18 0.16 0.15 0.12 0.09
0.01 0.02 0.04 0.05 0.07 0.09 0.11 0.12 0.15 0.21 0.21 0.20 0.31 0.39 0.41 0.39 0.45 0.39 0.40 0.46 0.43 0.41 0.35 0.31 0.29 0.25 0.22 0.19 0.15 0.12 0.10 0.08 0.07 0.06 0.06 0.06 0.07 0.06
0.00 0.01 0.02 0.02 0.03 0.04 0.07 0.13 0.19 0.25 0.31 0.30 0.32 0.34 0.31 0.30 0.32 0.28 0.28 0.23 0.23 0.22 0.16 0.13 0.11 0.10 0.09 0.06 0.03 0.02 0.02 0.02 0.02 0.01 0.01 0.01 0.01 0.02
0.01 0.01 0.02 0.02 0.02 0.03 0.06 0.08 0.11 0.19 0.28 0.33 0.30 0.29 0.27 0.24 0.24 0.18 0.10 0.07 0.06 0.09 0.07 0.05 0.04 0.02 0.01 0.00 0.00 0.00 0.00 0.00 0.00 0.00 0.00 0.00 0.00 0.00
0.01 0.01 0.02 0.01 0.01 0.01 0.02 0.03 0.05 0.07 0.06 0.10 0.16 0.16 0.16 0.13 0.07 0.03 0.02 0.02 0.01 0.02 0.01 0.00 0.00 0.00 0.00 0.00 0.00 0.00 0.00 0.00 0.00 0.00 0.00 0.00 0.00 0.00
0.01 0.01 0.03 0.02 0.01 0.01 0.02 0.06 0.08 0.06 0.05 0.07 0.04 0.03 0.02 0.01 0.00 0.00 0.00 0.00 0.00 0.00 0.00 0.00 0.00 0.00 0.00 0.00 0.00 0.00 0.00 0.00 0.00 0.00 0.00 0.00 0.00 0.00
0.01 0.00 0.01 0.03 0.06 0.08 0.09 0.08 0.04 0.02 0.01 0.02 0.01 0.00 0.00 0.00 0.00 0.00 0.00 0.00 0.00 0.00 0.00 0.00 0.00 0.00 0.00 0.00 0.00 0.00 0.00 0.00 0.00 0.00 0.00 0.00 0.00 0.00
0.01 0.03 0.06 0.11 0.08 0.09 0.09 0.06 0.02 0.00 0.00 0.00 0.00 0.00 0.00 0.00 0.00 0.00 0.00 0.00 0.00 0.00 0.00 0.00 0.00 0.00 0.00 0.00 0.00 0.00 0.00 0.00 0.00 0.00 0.00 0.00 0.00 0.00
0.01 0.03 0.03 0.02 0.02 0.01 0.01 0.00 0.00 0.00 0.00 0.00 0.00 0.00 0.00 0.00 0.00 0.00 0.00 0.00 0.00 0.00 0.00 0.00 0.00 0.00 0.00 0.00 0.00 0.00 0.00 0.00 0.00 0.00 0.00 0.00 0.00 0.00
0.00 0.00 0.00 0.00 0.00 0.00 0.00 0.00 0.00 0.00 0.00 0.00 0.00 0.00 0.00 0.00 0.00 0.00 0.00 0.00 0.00 0.00 0.00 0.00 0.00 0.00 0.00 0.00 0.00 0.00 0.00 0.00 0.00 0.00 0.00 0.00 0.00 0.00
0.00 0.00 0.00 0.00 0.00 0.00 0.00 0.00 0.00 0.00 0.00 0.00 0.00 0.00 0.00 0.00 0.00 0.00 0.00 0.00 0.00 0.00 0.00 0.00 0.00 0.00 0.00 0.00 0.00 0.00 0.00 0.00 0.00 0.00 0.00 0.00 0.00 0.00
0.00 0.00 0.00 0.00 0.00 0.00 0.00 0.00 0.00 0.00 0.00 0.00 0.00 0.00 0.00 0.00 0.00 0.00 0.00 0.00 0.00 0.00 0.00 0.00 0.00 0.00 0.00 0.00 0.00 0.00 0.00 0.00 0.00 0.00 0.00 0.00 0.00 0.00
0.00 0.00 0.00 0.00 0.00 0.00 0.00 0.00 0.00 0.00 0.00 0.00 0.00 0.00 0.00 0.00 0.00 0.00 0.00 0.00 0.00 0.00 0.00 0.01 0.01 0.00 0.01 0.00 0.00 0.00 0.00 0.00 0.00 0.00 0.00 0.00 0.00 0.00
0.00 0.00 0.00 0.00 0.00 0.00 0.00 0.00 0.00 0.00 0.00 0.00 0.00 0.00 0.00 0.00 0.00 0.00 0.00 0.00 0.00 0.00 0.00 0.01 0.04 0.02 0.03 0.02 0.00 0.00 0.00 0.00 0.00 0.00 0.00 0.00 0.00 0.00
0.00 0.00 0.00 0.00 0.00 0.00 0.00 0.00 0.00 0.00 0.00 0.00 0.00 0.00 0.00 0.00 0.00 0.00 0.00 0.00 0.00 0.00 0.00 0.00 0.03 0.03 0.06 0.06 0.02 0.00 0.00 0.00 0.00 0.00 0.00 0.00 0.00 0.00
0.00 0.00 0.00 0.00 0.00 0.00 0.00 0.00 0.00 0.00 0.00 0.00 0.00 0.00 0.00 0.00 0.00 0.00 0.00 0.00 0.01 0.00 0.00 0.00 0.00 0.02 0.05 0.03 0.02 0.01 0.00 0.01 0.00 0.00 0.00 0.00 0.00 0.00
0.00 0.00 0.00 0.00 0.00 0.00 0.00 0.00 0.00 0.00 0.00 0.00 0.00 0.00 0.00 0.00 0.00 0.00 0.00 0.01 0.02 0.01 0.00 0.00 0.00 0.00 0.01 0.01 0.02 0.00 0.00 0.00 0.00 0.00 0.00 0.01 0.00 0.00
0.00 0.00 0.00 0.00 0.00 0.00 0.00 0.00 0.00 0.00 0.00 0.00 0.00 0.00 0.01 0.01 0.01 0.01 0.01 0.02 0.02 0.01 0.01 0.00 0.00 0.01 0.01 0.00 0.00 0.00 0.00 0.00 0.00 0.00 0.00 0.01 0.00 0.00
0.00 0.00 0.00 0.00 0.00 0.00 0.00 0.00 0.00 0.00 0.00 0.00 0.01 0.01 0.01 0.01 0.01 0.01 0.01 0.01 0.01 0.01 0.01 0.00 0.00 0.04 0.07 0.02 0.00 0.00 0.00 0.00 0.00 0.00 0.00 0.00 0.00 0.00
0.00 0.00 0.00 0.00 0.00 0.00 0.00 0.00 0.00 0.00 0.00 0.00 0.01 0.01 0.01 0.01 0.02 0.01 0.01 0.02 0.01 0.01 0.01 0.00 0.01 0.02 0.06 0.03 0.06 0.01 0.00 0.00 0.00 0.00 0.00 0.00 0.00 0.00
0.00 0.00 0.00 0.00 0.00 0.00 0.00 0.00 0.00 0.00 0.01 0.01 0.01 0.01 0.01 0.02 0.02 0.01 0.01 0.01 0.02 0.03 0.02 0.00 0.00 0.00 0.04 0.11 0.09 0.00 0.00 0.00 0.00 0.00 0.00 0.03 0.02 0.01
0.00 0.00 0.00 0.00 0.00 0.00 0.00 0.00 0.00 0.00 0.00 0.00 0.00 0.01 0.01 0.02 0.02 0.01 0.01 0.02 0.01 0.01 0.01 0.00 0.00 0.00 0.03 0.09 0.04 0.01 0.00 0.00 0.00 0.00 0.00 0.03 0.04 0.06
0.00 0.00 0.00 0.00 0.00 0.00 0.00 0.00 0.00 0.00 0.00 0.00 0.01 0.01 0.01 0.02 0.01 0.01 0.01 0.02 0.02 0.02 0.01 0.01 0.00 0.01 0.02 0.04 0.04 0.03 0.00 0.00 0.00 0.00 0.00 0.00 0.00 0.00

GFSNE_prec_precacc24_093.txt.gz
Total_Precipitation_Accumulation
0.00 0.00 0.01 0.00 0.01 0.03 0.05 0.08 0.13 0.13 0.05 0.02 0.03 0.05 0.07 0.13 0.21 0.21 0.21 0.39 0.49 0.48 0.47 0.44 0.41 0.36 0.34 0.34 0.34 0.37 0.32 0.25 0.23 0.19 0.17 0.15 0.12 0.09
0.00 0.00 0.00 0.00 0.01 0.02 0.03 0.03 0.06 0.11 0.13 0.07 0.10 0.14 0.17 0.18 0.25 0.22 0.29 0.41 0.42 0.41 0.35 0.31 0.30 0.26 0.23 0.20 0.16 0.13 0.11 0.09 0.08 0.07 0.06 0.06 0.07 0.06
0.00 0.00 0.00 0.00 0.01 0.01 0.01 0.01 0.03 0.03 0.03 0.07 0.08 0.10 0.13 0.16 0.23 0.23 0.27 0.23 0.23 0.22 0.16 0.13 0.11 0.10 0.09 0.06 0.03 0.02 0.02 0.03 0.02 0.01 0.01 0.01 0.01 0.02
0.00 0.00 0.00 0.00 0.00 0.01 0.01 0.01 0.01 0.02 0.03 0.08 0.17 0.21 0.22 0.22 0.24 0.17 0.10 0.07 0.06 0.09 0.07 0.05 0.04 0.02 0.01 0.00 0.00 0.00 0.00 0.00 0.00 0.00 0.00 0.00 0.00 0.00
0.00 0.00 0.00 0.00 0.00 0.00 0.00 0.00 0.00 0.01 0.02 0.07 0.16 0.16 0.16 0.13 0.07 0.03 0.02 0.02 0.01 0.02 0.01 0.00 0.00 0.00 0.00 0.00 0.00 0.00 0.00 0.00 0.00 0.00 0.00 0.00 0.00 0.00
0.00 0.00 0.00 0.00 0.00 0.00 0.00 0.02 0.05 0.04 0.05 0.07 0.04 0.03 0.02 0.01 0.00 0.00 0.00 0.00 0.00 0.00 0.00 0.00 0.00 0.00 0.00 0.00 0.00 0.00 0.00 0.00 0.00 0.00 0.00 0.00 0.00 0.00
0.00 0.00 0.00 0.01 0.01 0.01 0.01 0.02 0.02 0.01 0.01 0.02 0.01 0.00 0.00 0.00 0.00 0.00 0.00 0.00 0.00 0.00 0.00 0.00 0.00 0.00 0.00 0.00 0.00 0.00 0.00 0.00 0.00 0.00 0.00 0.00 0.00 0.00
0.00 0.00 0.00 0.00 0.00 0.00 0.00 0.00 0.01 0.00 0.00 0.00 0.00 0.00 0.00 0.00 0.00 0.00 0.00 0.00 0.00 0.00 0.00 0.00 0.00 0.00 0.00 0.00 0.00 0.00 0.00 0.00 0.00 0.00 0.00 0.00 0.00 0.00
0.00 0.00 0.00 0.00 0.00 0.00 0.00 0.00 0.00 0.00 0.00 0.00 0.00 0.00 0.00 0.00 0.00 0.00 0.00 0.00 0.00 0.00 0.00 0.00 0.00 0.00 0.00 0.00 0.00 0.00 0.00 0.00 0.00 0.00 0.00 0.00 0.00 0.00
0.00 0.00 0.00 0.00 0.00 0.00 0.00 0.00 0.00 0.00 0.00 0.00 0.00 0.00 0.00 0.00 0.00 0.00 0.00 0.00 0.00 0.00 0.00 0.00 0.00 0.00 0.00 0.00 0.00 0.00 0.00 0.00 0.00 0.00 0.00 0.00 0.00 0.00
0.00 0.00 0.00 0.00 0.00 0.00 0.00 0.00 0.00 0.00 0.00 0.00 0.00 0.00 0.00 0.00 0.00 0.00 0.00 0.00 0.00 0.00 0.00 0.00 0.00 0.00 0.00 0.00 0.00 0.00 0.00 0.00 0.00 0.00 0.00 0.00 0.00 0.00
0.00 0.00 0.00 0.00 0.00 0.00 0.00 0.00 0.00 0.00 0.00 0.00 0.00 0.00 0.00 0.00 0.00 0.00 0.00 0.00 0.00 0.00 0.00 0.00 0.00 0.00 0.00 0.00 0.00 0.00 0.00 0.00 0.00 0.00 0.00 0.00 0.00 0.00
0.00 0.00 0.00 0.00 0.00 0.00 0.00 0.00 0.00 0.00 0.00 0.00 0.00 0.00 0.00 0.00 0.00 0.00 0.00 0.00 0.00 0.00 0.00 0.01 0.01 0.00 0.00 0.00 0.00 0.00 0.00 0.00 0.00 0.00 0.00 0.00 0.00 0.00
0.00 0.00 0.00 0.00 0.00 0.00 0.00 0.00 0.00 0.00 0.00 0.00 0.00 0.00 0.00 0.00 0.00 0.00 0.00 0.00 0.00 0.00 0.00 0.01 0.03 0.01 0.02 0.02 0.00 0.00 0.00 0.00 0.00 0.00 0.00 0.00 0.00 0.00
0.00 0.00 0.00 0.00 0.00 0.00 0.00 0.00 0.00 0.00 0.00 0.00 0.00 0.00 0.00 0.00 0.00 0.00 0.00 0.00 0.00 0.00 0.00 0.00 0.02 0.02 0.05 0.04 0.02 0.00 0.00 0.00 0.00 0.00 0.00 0.00 0.00 0.00
0.00 0.00 0.00 0.00 0.00 0.00 0.00 0.00 0.00 0.00 0.00 0.00 0.00 0.00 0.00 0.00 0.00 0.00 0.00 0.00 0.00 0.00 0.00 0.00 0.00 0.02 0.04 0.02 0.02 0.01 0.00 0.00 0.00 0.00 0.00 0.00 0.00 0.00
0.00 0.00 0.00 0.00 0.00 0.00 0.00 0.00 0.00 0.00 0.00 0.00 0.00 0.00 0.00 0.00 0.00 0.00 0.00 0.01 0.02 0.01 0.00 0.00 0.00 0.00 0.01 0.01 0.02 0.00 0.00 0.00 0.00 0.00 0.00 0.00 0.00 0.00
0.00 0.00 0.00 0.00 0.00 0.00 0.00 0.00 0.00 0.00 0.00 0.00 0.00 0.00 0.00 0.00 0.01 0.00 0.00 0.02 0.02 0.01 0.00 0.00 0.00 0.01 0.00 0.00 0.00 0.00 0.00 0.00 0.00 0.00 0.00 0.01 0.00 0.00
0.00 0.00 0.00 0.00 0.00 0.00 0.00 0.00 0.00 0.00 0.00 0.00 0.00 0.00 0.00 0.00 0.01 0.01 0.00 0.00 0.01 0.00 0.00 0.00 0.00 0.03 0.05 0.01 0.00 0.00 0.00 0.00 0.00 0.00 0.00 0.00 0.00 0.00
0.00 0.00 0.00 0.00 0.00 0.00 0.00 0.00 0.00 0.00 0.00 0.00 0.00 0.00 0.00 0.01 0.01 0.01 0.01 0.01 0.01 0.01 0.00 0.00 0.01 0.02 0.05 0.02 0.04 0.00 0.00 0.00 0.00 0.00 0.00 0.00 0.00 0.00
0.00 0.00 0.00 0.00 0.00 0.00 0.00 0.00 0.00 0.00 0.00 0.01 0.00 0.00 0.00 0.01 0.01 0.01 0.01 0.01 0.02 0.02 0.02 0.00 0.00 0.00 0.04 0.11 0.08 0.00 0.00 0.00 0.00 0.00 0.00 0.03 0.01 0.00
0.00 0.00 0.00 0.00 0.00 0.00 0.00 0.00 0.00 0.00 0.00 0.00 0.00 0.00 0.00 0.01 0.02 0.01 0.01 0.02 0.01 0.01 0.01 0.00 0.00 0.00 0.03 0.08 0.03 0.00 0.00 0.00 0.00 0.00 0.00 0.03 0.03 0.04
0.00 0.00 0.00 0.00 0.00 0.00 0.00 0.00 0.00 0.00 0.00 0.00 0.00 0.00 0.01 0.01 0.01 0.01 0.01 0.01 0.01 0.02 0.01 0.01 0.00 0.01 0.02 0.03 0.03 0.02 0.00 0.00 0.00 0.00 0.00 0.00 0.00 0.00

GFSNE_prec_precacc24_096.txt.gz
Total_Precipitation_Accumulation
0.00 0.00 0.00 0.00 0.00 0.01 0.01 0.02 0.04 0.03 0.01 0.00 0.00 0.00 0.01 0.03 0.09 0.10 0.10 0.19 0.28 0.31 0.35 0.37 0.38 0.35 0.35 0.38 0.36 0.39 0.35 0.31 0.29 0.22 0.17 0.15 0.12 0.09
0.00 0.00 0.00 0.00 0.00 0.00 0.00 0.00 0.01 0.02 0.02 0.00 0.00 0.00 0.00 0.03 0.07 0.07 0.11 0.21 0.28 0.32 0.32 0.30 0.29 0.25 0.24 0.23 0.18 0.15 0.13 0.10 0.09 0.07 0.06 0.07 0.06 0.06
0.00 0.00 0.00 0.00 0.00 0.00 0.00 0.00 0.00 0.00 0.00 0.00 0.00 0.00 0.00 0.00 0.03 0.06 0.10 0.13 0.19 0.19 0.16 0.13 0.11 0.10 0.09 0.07 0.04 0.03 0.03 0.03 0.02 0.02 0.01 0.01 0.01 0.02
0.00 0.00 0.00 0.00 0.00 0.00 0.00 0.00 0.00 0.00 0.00 0.00 0.00 0.00 0.01 0.04 0.11 0.12 0.07 0.06 0.06 0.09 0.06 0.05 0.04 0.02 0.01 0.00 0.00 0.00 0.00 0.00 0.00 0.00 0.00 0.00 0.00 0.00
0.00 0.00 0.00 0.00 0.00 0.00 0.00 0.00 0.00 0.00 0.00 0.00 0.02 0.05 0.08 0.10 0.06 0.03 0.01 0.02 0.01 0.02 0.01 0.00 0.00 0.00 0.00 0.00 0.00 0.00 0.00 0.00 0.00 0.00 0.00 0.00 0.00 0.00
0.00 0.00 0.00 0.00 0.00 0.00 0.00 0.00 0.00 0.00 0.00 0.00 0.01 0.03 0.02 0.01 0.00 0.00 0.00 0.00 0.00 0.00 0.00 0.00 0.00 0.00 0.00 0.00 0.00 0.00 0.00 0.00 0.00 0.00 0.00 0.00 0.00 0.00
0.00 0.00 0.00 0.00 0.01 0.00 0.00 0.00 0.00 0.00 0.00 0.00 0.00 0.00 0.00 0.00 0.00 0.00 0.00 0.00 0.00 0.00 0.00 0.00 0.00 0.00 0.00 0.00 0.00 0.00 0.00 0.00 0.00 0.00 0.00 0.00 0.00 0.00
0.00 0.00 0.00 0.00 0.00 0.00 0.00 0.00 0.00 0.00 0.00 0.00 0.00 0.00 0.00 0.00 0.00 0.00 0.00 0.00 0.00 0.00 0.00 0.00 0.00 0.00 0.00 0.00 0.00 0.00 0.00 0.00 0.00 0.00 0.00 0.00 0.00 0.00
0.00 0.00 0.00 0.00 0.00 0.00 0.00 0.00 0.00 0.00 0.00 0.00 0.00 0.00 0.00 0.00 0.00 0.00 0.00 0.00 0.00 0.00 0.00 0.00 0.00 0.00 0.00 0.00 0.00 0.00 0.00 0.00 0.00 0.00 0.00 0.00 0.00 0.00
0.00 0.00 0.00 0.00 0.00 0.00 0.00 0.00 0.00 0.00 0.00 0.00 0.00 0.00 0.00 0.00 0.00 0.00 0.00 0.00 0.00 0.00 0.00 0.00 0.00 0.00 0.00 0.00 0.00 0.00 0.00 0.00 0.00 0.00 0.00 0.00 0.00 0.00
0.00 0.00 0.00 0.00 0.00 0.00 0.00 0.00 0.00 0.00 0.00 0.00 0.00 0.00 0.00 0.00 0.00 0.00 0.00 0.00 0.00 0.00 0.00 0.00 0.00 0.00 0.00 0.00 0.00 0.00 0.00 0.00 0.00 0.00 0.00 0.00 0.00 0.00
0.00 0.00 0.00 0.00 0.00 0.00 0.00 0.00 0.00 0.00 0.00 0.00 0.00 0.00 0.00 0.00 0.00 0.00 0.00 0.00 0.00 0.00 0.00 0.00 0.00 0.00 0.00 0.00 0.00 0.00 0.00 0.00 0.00 0.00 0.00 0.00 0.00 0.00
0.00 0.00 0.00 0.00 0.00 0.00 0.00 0.00 0.00 0.00 0.00 0.00 0.00 0.00 0.00 0.00 0.00 0.00 0.00 0.00 0.00 0.00 0.00 0.01 0.00 0.00 0.00 0.00 0.00 0.00 0.00 0.00 0.00 0.00 0.00 0.00 0.00 0.00
0.00 0.00 0.00 0.00 0.00 0.00 0.00 0.00 0.00 0.00 0.00 0.00 0.00 0.00 0.00 0.00 0.00 0.00 0.00 0.00 0.00 0.00 0.00 0.01 0.02 0.01 0.01 0.01 0.00 0.00 0.00 0.00 0.00 0.00 0.00 0.00 0.00 0.00
0.01 0.00 0.00 0.00 0.00 0.00 0.00 0.00 0.00 0.00 0.00 0.00 0.00 0.00 0.00 0.00 0.00 0.00 0.00 0.00 0.00 0.00 0.00 0.00 0.02 0.02 0.04 0.03 0.01 0.00 0.00 0.00 0.00 0.00 0.00 0.00 0.00 0.00
0.01 0.01 0.00 0.00 0.00 0.00 0.00 0.00 0.00 0.00 0.00 0.00 0.00 0.00 0.00 0.00 0.00 0.00 0.00 0.00 0.00 0.00 0.00 0.00 0.00 0.02 0.03 0.02 0.01 0.01 0.00 0.00 0.00 0.00 0.00 0.00 0.00 0.00
0.00 0.00 0.00 0.00 0.00 0.00 0.00 0.00 0.00 0.00 0.00 0.00 0.00 0.00 0.00 0.00 0.00 0.00 0.00 0.00 0.01 0.01 0.00 0.00 0.00 0.00 0.00 0.01 0.02 0.00 0.00 0.00 0.00 0.00 0.00 0.00 0.00 0.00
0.00 0.00 0.00 0.00 0.00 0.00 0.00 0.00 0.00 0.00 0.00 0.00 0.00 0.00 0.00 0.00 0.00 0.00 0.00 0.01 0.01 0.01 0.00 0.00 0.00 0.01 0.00 0.00 0.00 0.00 0.00 0.00 0.00 0.00 0.00 0.01 0.00 0.00
0.00 0.00 0.00 0.00 0.00 0.00 0.00 0.00 0.00 0.00 0.00 0.00 0.00 0.00 0.00 0.00 0.01 0.01 0.00 0.00 0.01 0.00 0.00 0.00 0.00 0.03 0.04 0.01 0.00 0.00 0.00 0.00 0.00 0.00 0.00 0.00 0.00 0.00
0.00 0.00 0.00 0.00 0.00 0.00 0.00 0.00 0.00 0.00 0.00 0.00 0.00 0.00 0.00 0.00 0.01 0.01 0.00 0.01 0.00 0.00 0.00 0.00 0.00 0.02 0.04 0.02 0.03 0.00 0.00 0.00 0.00 0.00 0.00 0.00 0.00 0.00
0.00 0.00 0.00 0.00 0.00 0.00 0.00 0.00 0.00 0.00 0.00 0.00 0.00 0.00 0.00 0.01 0.01 0.01 0.00 0.01 0.01 0.01 0.01 0.00 0.00 0.00 0.04 0.10 0.06 0.00 0.00 0.00 0.00 0.00 0.00 0.03 0.01 0.00
0.00 0.00 0.00 0.00 0.00 0.00 0.00 0.00 0.00 0.00 0.00 0.00 0.00 0.00 0.00 0.00 0.01 0.01 0.00 0.01 0.00 0.00 0.00 0.00 0.00 0.00 0.03 0.07 0.03 0.00 0.00 0.00 0.00 0.00 0.00 0.03 0.03 0.03
0.00 0.00 0.00 0.00 0.00 0.00 0.00 0.00 0.00 0.00 0.00 0.00 0.00 0.00 0.00 0.00 0.00 0.00 0.00 0.01 0.01 0.01 0.01 0.01 0.00 0.01 0.02 0.03 0.03 0.02 0.00 0.00 0.00 0.00 0.00 0.00 0.00 0.00

GFSNE_prec_precacc24_102.txt.gz
Total_Precipitation_Accumulation
0.00 0.00 0.00 0.00 0.00 0.00 0.01 0.02 0.04 0.04 0.02 0.01 0.01 0.00 0.00 0.00 0.01 0.00 0.00 0.02 0.05 0.07 0.08 0.09 0.11 0.12 0.16 0.23 0.28 0.31 0.33 0.43 0.34 0.23 0.21 0.18 0.14 0.09
0.00 0.00 0.00 0.00 0.00 0.00 0.00 0.00 0.00 0.02 0.02 0.01 0.01 0.00 0.01 0.00 0.01 0.00 0.00 0.02 0.04 0.08 0.06 0.05 0.05 0.05 0.08 0.17 0.16 0.17 0.17 0.22 0.26 0.18 0.11 0.10 0.09 0.07
0.00 0.00 0.00 0.00 0.00 0.00 0.00 0.00 0.00 0.00 0.01 0.01 0.00 0.01 0.00 0.00 0.00 0.00 0.00 0.00 0.01 0.03 0.03 0.02 0.02 0.01 0.02 0.05 0.04 0.06 0.06 0.08 0.08 0.08 0.06 0.03 0.02 0.02
0.00 0.00 0.00 0.00 0.00 0.00 0.00 0.00 0.00 0.00 0.01 0.01 0.01 0.01 0.01 0.00 0.00 0.00 0.00 0.00 0.00 0.01 0.01 0.00 0.00 0.00 0.00 0.00 0.00 0.00 0.00 0.00 0.00 0.00 0.00 0.00 0.00 0.00
0.00 0.00 0.00 0.00 0.00 0.00 0.00 0.00 0.00 0.00 0.00 0.00 0.00 0.00 0.00 0.00 0.00 0.00 0.00 0.00 0.00 0.00 0.00 0.00 0.00 0.00 0.00 0.00 0.00 0.00 0.00 0.00 0.00 0.00 0.00 0.00 0.00 0.00
0.00 0.00 0.00 0.00 0.00 0.00 0.00 0.00 0.00 0.00 0.00 0.00 0.00 0.00 0.00 0.00 0.00 0.00 0.00 0.00 0.00 0.00 0.00 0.00 0.00 0.00 0.00 0.00 0.00 0.00 0.00 0.00 0.00 0.00 0.00 0.00 0.00 0.00
0.00 0.00 0.00 0.00 0.00 0.00 0.00 0.00 0.00 0.00 0.00 0.00 0.00 0.00 0.00 0.00 0.00 0.00 0.00 0.00 0.00 0.00 0.00 0.00 0.00 0.00 0.00 0.00 0.00 0.00 0.00 0.00 0.00 0.00 0.00 0.00 0.00 0.00
0.00 0.00 0.00 0.00 0.00 0.00 0.00 0.00 0.00 0.00 0.00 0.00 0.00 0.00 0.00 0.00 0.00 0.00 0.00 0.00 0.00 0.00 0.00 0.00 0.00 0.00 0.00 0.00 0.00 0.00 0.00 0.00 0.00 0.00 0.00 0.00 0.00 0.00
0.00 0.00 0.00 0.00 0.00 0.00 0.00 0.00 0.00 0.00 0.00 0.00 0.00 0.00 0.00 0.00 0.00 0.00 0.00 0.00 0.00 0.00 0.00 0.00 0.00 0.00 0.00 0.00 0.00 0.00 0.00 0.00 0.00 0.00 0.00 0.00 0.00 0.00
0.00 0.00 0.00 0.00 0.00 0.00 0.00 0.00 0.00 0.00 0.00 0.00 0.00 0.00 0.00 0.00 0.00 0.00 0.00 0.00 0.00 0.00 0.00 0.00 0.00 0.00 0.00 0.00 0.00 0.00 0.00 0.00 0.00 0.00 0.00 0.00 0.00 0.00
0.00 0.00 0.00 0.00 0.00 0.00 0.00 0.00 0.00 0.00 0.00 0.00 0.00 0.00 0.00 0.00 0.00 0.00 0.00 0.00 0.00 0.00 0.00 0.00 0.00 0.00 0.00 0.00 0.00 0.00 0.00 0.00 0.00 0.00 0.00 0.00 0.00 0.00
0.00 0.00 0.00 0.00 0.00 0.00 0.00 0.00 0.00 0.00 0.00 0.00 0.00 0.00 0.00 0.00 0.00 0.00 0.00 0.00 0.00 0.00 0.00 0.00 0.00 0.00 0.00 0.00 0.00 0.00 0.00 0.00 0.00 0.00 0.00 0.00 0.00 0.00
0.00 0.00 0.00 0.00 0.00 0.00 0.00 0.00 0.00 0.00 0.00 0.00 0.00 0.00 0.00 0.00 0.00 0.00 0.00 0.00 0.00 0.00 0.00 0.00 0.00 0.00 0.00 0.00 0.00 0.00 0.00 0.00 0.00 0.00 0.00 0.00 0.00 0.00
0.00 0.00 0.00 0.00 0.00 0.00 0.00 0.00 0.00 0.00 0.00 0.00 0.00 0.00 0.00 0.00 0.00 0.00 0.00 0.00 0.00 0.00 0.00 0.00 0.01 0.01 0.01 0.01 0.00 0.00 0.00 0.00 0.00 0.00 0.00 0.00 0.00 0.00
0.01 0.00 0.00 0.00 0.00 0.00 0.00 0.00 0.00 0.00 0.00 0.00 0.00 0.00 0.00 0.00 0.00 0.00 0.00 0.00 0.00 0.00 0.00 0.00 0.01 0.01 0.02 0.02 0.01 0.00 0.00 0.00 0.00 0.00 0.00 0.00 0.00 0.00
0.01 0.01 0.00 0.00 0.00 0.00 0.00 0.00 0.00 0.00 0.00 0.00 0.00 0.00 0.00 0.00 0.00 0.00 0.00 0.00 0.00 0.00 0.00 0.00 0.00 0.00 0.01 0.01 0.01 0.01 0.00 0.00 0.00 0.00 0.00 0.00 0.00 0.00
0.00 0.00 0.00 0.00 0.00 0.00 0.00 0.00 0.00 0.00 0.00 0.00 0.00 0.00 0.00 0.00 0.00 0.00 0.00 0.00 0.01 0.00 0.00 0.00 0.00 0.00 0.00 0.00 0.01 0.00 0.00 0.00 0.00 0.00 0.00 0.00 0.00 0.00
0.00 0.00 0.00 0.00 0.00 0.00 0.00 0.00 0.00 0.00 0.00 0.00 0.00 0.00 0.00 0.00 0.00 0.00 0.00 0.01 0.01 0.00 0.00 0.00 0.00 0.00 0.00 0.00 0.00 0.00 0.00 0.00 0.00 0.00 0.00 0.01 0.00 0.00
0.00 0.00 0.00 0.00 0.00 0.00 0.00 0.00 0.00 0.00 0.00 0.00 0.00 0.00 0.00 0.00 0.00 0.00 0.00 0.00 0.00 0.00 0.00 0.00 0.00 0.01 0.02 0.01 0.00 0.00 0.00 0.00 0.00 0.00 0.00 0.00 0.00 0.00
0.00 0.00 0.00 0.00 0.00 0.00 0.00 0.00 0.00 0.00 0.00 0.00 0.00 0.00 0.00 0.00 0.00 0.00 0.00 0.00 0.00 0.00 0.00 0.00 0.00 0.01 0.02 0.01 0.01 0.00 0.00 0.00 0.00 0.00 0.00 0.00 0.00 0.00
0.00 0.00 0.00 0.00 0.00 0.00 0.00 0.00 0.00 0.00 0.00 0.00 0.00 0.00 0.00 0.00 0.00 0.00 0.00 0.00 0.00 0.00 0.00 0.00 0.00 0.00 0.03 0.06 0.04 0.00 0.00 0.00 0.00 0.00 0.00 0.02 0.01 0.00
0.00 0.00 0.00 0.00 0.00 0.00 0.00 0.00 0.00 0.00 0.00 0.00 0.00 0.00 0.00 0.00 0.00 0.00 0.00 0.00 0.00 0.00 0.00 0.00 0.00 0.00 0.02 0.04 0.02 0.00 0.00 0.00 0.00 0.00 0.00 0.02 0.02 0.02
0.02 0.02 0.02 0.01 0.01 0.01 0.01 0.00 0.00 0.00 0.00 0.00 0.00 0.00 0.00 0.00 0.00 0.00 0.00 0.00 0.00 0.00 0.00 0.00 0.00 0.00 0.01 0.02 0.02 0.01 0.00 0.00 0.00 0.00 0.00 0.00 0.00 0.00

GFSNE_prec_precacc24_108.txt.gz
Total_Precipitation_Accumulation
0.00 0.00 0.00 0.00 0.00 0.00 0.00 0.01 0.04 0.03 0.01 0.01 0.01 0.00 0.00 0.01 0.01 0.00 0.00 0.03 0.04 0.03 0.02 0.02 0.03 0.04 0.08 0.14 0.18 0.16 0.17 0.35 0.28 0.17 0.18 0.21 0.27 0.22
0.00 0.00 0.00 0.00 0.00 0.00 0.00 0.00 0.01 0.02 0.03 0.01 0.01 0.01 0.01 0.00 0.02 0.01 0.01 0.02 0.02 0.03 0.02 0.01 0.01 0.01 0.03 0.13 0.15 0.15 0.15 0.23 0.30 0.20 0.11 0.12 0.13 0.07
0.00 0.00 0.00 0.00 0.00 0.00 0.00 0.00 0.00 0.01 0.01 0.01 0.01 0.01 0.00 0.00 0.00 0.00 0.00 0.00 0.01 0.01 0.01 0.00 0.00 0.00 0.00 0.02 0.06 0.11 0.09 0.18 0.32 0.25 0.14 0.07 0.03 0.01
0.00 0.00 0.00 0.00 0.00 0.00 0.00 0.00 0.00 0.00 0.01 0.01 0.01 0.01 0.01 0.01 0.01 0.00 0.00 0.00 0.00 0.01 0.00 0.00 0.00 0.00 0.00 0.00 0.01 0.07 0.11 0.12 0.18 0.17 0.10 0.07 0.04 0.01
0.00 0.00 0.00 0.00 0.00 0.00 0.00 0.00 0.00 0.00 0.00 0.00 0.00 0.00 0.00 0.00 0.00 0.00 0.00 0.00 0.00 0.01 0.00 0.00 0.00 0.00 0.00 0.00 0.00 0.01 0.03 0.06 0.08 0.09 0.08 0.08 0.06 0.04
0.00 0.00 0.00 0.00 0.00 0.00 0.00 0.00 0.00 0.00 0.00 0.00 0.01 0.00 0.00 0.00 0.00 0.00 0.00 0.00 0.00 0.00 0.00 0.00 0.00 0.00 0.00 0.00 0.00 0.00 0.00 0.00 0.01 0.01 0.01 0.02 0.02 0.01
0.00 0.00 0.00 0.00 0.00 0.00 0.00 0.00 0.00 0.00 0.00 0.01 0.01 0.01 0.01 0.00 0.00 0.00 0.00 0.00 0.00 0.00 0.00 0.00 0.00 0.00 0.00 0.00 0.00 0.00 0.00 0.00 0.00 0.00 0.00 0.00 0.00 0.00
0.00 0.00 0.00 0.00 0.00 0.00 0.00 0.00 0.00 0.00 0.00 0.00 0.01 0.01 0.00 0.01 0.00 0.00 0.00 0.00 0.00 0.00 0.00 0.00 0.00 0.00 0.00 0.00 0.00 0.00 0.00 0.00 0.00 0.00 0.00 0.00 0.00 0.00
0.00 0.00 0.00 0.00 0.00 0.00 0.01 0.00 0.00 0.00 0.00 0.00 0.00 0.00 0.00 0.00 0.00 0.00 0.00 0.00 0.00 0.00 0.00 0.00 0.00 0.00 0.00 0.00 0.00 0.00 0.00 0.00 0.00 0.00 0.00 0.00 0.00 0.00
0.00 0.00 0.00 0.00 0.00 0.00 0.00 0.00 0.00 0.00 0.00 0.00 0.00 0.00 0.00 0.00 0.00 0.00 0.00 0.00 0.00 0.00 0.00 0.00 0.00 0.00 0.00 0.00 0.00 0.00 0.00 0.00 0.00 0.00 0.00 0.00 0.00 0.00
0.00 0.00 0.00 0.00 0.00 0.00 0.00 0.00 0.00 0.00 0.00 0.00 0.00 0.00 0.00 0.00 0.00 0.00 0.00 0.00 0.00 0.00 0.00 0.00 0.00 0.00 0.00 0.00 0.00 0.00 0.00 0.00 0.00 0.00 0.00 0.00 0.00 0.00
0.00 0.00 0.00 0.00 0.00 0.00 0.00 0.00 0.00 0.00 0.00 0.00 0.00 0.00 0.00 0.00 0.00 0.00 0.00 0.00 0.00 0.00 0.00 0.00 0.00 0.00 0.00 0.00 0.00 0.00 0.00 0.00 0.00 0.00 0.00 0.00 0.00 0.00
0.00 0.00 0.00 0.00 0.00 0.00 0.00 0.00 0.00 0.00 0.00 0.00 0.00 0.00 0.00 0.00 0.00 0.00 0.00 0.00 0.00 0.00 0.00 0.00 0.00 0.00 0.00 0.00 0.00 0.00 0.00 0.00 0.00 0.00 0.00 0.00 0.00 0.00
0.00 0.00 0.00 0.00 0.00 0.00 0.00 0.00 0.00 0.00 0.00 0.00 0.00 0.00 0.00 0.00 0.00 0.00 0.00 0.00 0.00 0.00 0.00 0.00 0.00 0.00 0.00 0.00 0.00 0.00 0.00 0.00 0.00 0.00 0.00 0.00 0.00 0.00
0.01 0.00 0.00 0.00 0.00 0.00 0.00 0.00 0.00 0.00 0.00 0.00 0.00 0.00 0.00 0.00 0.00 0.00 0.00 0.00 0.00 0.00 0.00 0.00 0.00 0.00 0.01 0.01 0.00 0.00 0.00 0.00 0.00 0.00 0.00 0.00 0.00 0.00
0.01 0.01 0.00 0.00 0.00 0.00 0.00 0.00 0.00 0.00 0.00 0.00 0.00 0.00 0.00 0.00 0.00 0.00 0.00 0.00 0.00 0.00 0.00 0.00 0.00 0.00 0.00 0.00 0.00 0.00 0.00 0.00 0.00 0.00 0.00 0.00 0.00 0.00
0.00 0.00 0.00 0.00 0.00 0.00 0.00 0.00 0.00 0.00 0.00 0.00 0.00 0.00 0.00 0.00 0.00 0.00 0.00 0.00 0.00 0.00 0.00 0.00 0.00 0.00 0.00 0.00 0.01 0.00 0.00 0.00 0.00 0.00 0.00 0.00 0.00 0.00
0.00 0.00 0.00 0.00 0.00 0.00 0.00 0.00 0.00 0.00 0.00 0.00 0.00 0.00 0.00 0.00 0.00 0.00 0.00 0.00 0.00 0.00 0.00 0.00 0.00 0.00 0.00 0.00 0.00 0.00 0.00 0.00 0.00 0.00 0.00 0.00 0.00 0.00
0.00 0.00 0.00 0.00 0.00 0.00 0.00 0.00 0.00 0.00 0.00 0.00 0.00 0.00 0.00 0.00 0.00 0.00 0.00 0.00 0.00 0.00 0.00 0.00 0.00 0.01 0.01 0.00 0.00 0.00 0.00 0.00 0.00 0.00 0.00 0.00 0.00 0.00
0.00 0.00 0.00 0.00 0.00 0.00 0.00 0.00 0.00 0.00 0.00 0.00 0.00 0.00 0.00 0.00 0.00 0.00 0.00 0.00 0.00 0.00 0.00 0.00 0.00 0.00 0.01 0.00 0.00 0.00 0.00 0.00 0.00 0.00 0.00 0.00 0.00 0.00
0.00 0.00 0.00 0.00 0.00 0.00 0.00 0.00 0.00 0.00 0.00 0.00 0.00 0.00 0.00 0.00 0.00 0.00 0.00 0.00 0.00 0.00 0.00 0.00 0.00 0.00 0.02 0.03 0.02 0.00 0.00 0.00 0.00 0.00 0.00 0.01 0.00 0.00
0.00 0.01 0.01 0.01 0.01 0.01 0.01 0.00 0.00 0.00 0.00 0.00 0.00 0.00 0.00 0.00 0.00 0.00 0.00 0.00 0.00 0.00 0.00 0.00 0.00 0.00 0.01 0.02 0.01 0.00 0.00 0.00 0.00 0.00 0.00 0.02 0.01 0.01
0.02 0.03 0.03 0.04 0.04 0.05 0.05 0.04 0.02 0.01 0.00 0.01 0.01 0.00 0.00 0.00 0.00 0.00 0.00 0.00 0.00 0.00 0.00 0.00 0.00 0.00 0.01 0.01 0.01 0.00 0.00 0.00 0.00 0.00 0.00 0.00 0.00 0.00

GFSNE_prec_precacc24_111.txt.gz
Total_Precipitation_Accumulation
0.00 0.00 0.00 0.00 0.00 0.00 0.00 0.01 0.04 0.03 0.01 0.01 0.01 0.00 0.00 0.01 0.01 0.00 0.00 0.03 0.02 0.02 0.01 0.02 0.02 0.02 0.04 0.10 0.15 0.15 0.16 0.31 0.23 0.12 0.16 0.25 0.39 0.36
0.00 0.00 0.00 0.00 0.00 0.00 0.00 0.00 0.01 0.02 0.03 0.01 0.01 0.01 0.01 0.00 0.02 0.01 0.00 0.02 0.01 0.02 0.01 0.00 0.00 0.01 0.02 0.11 0.14 0.15 0.15 0.23 0.29 0.20 0.14 0.19 0.33 0.41
0.00 0.00 0.00 0.00 0.00 0.00 0.00 0.00 0.00 0.01 0.01 0.01 0.01 0.01 0.00 0.00 0.00 0.00 0.00 0.00 0.01 0.02 0.01 0.00 0.00 0.00 0.00 0.02 0.06 0.13 0.12 0.18 0.35 0.30 0.19 0.15 0.23 0.34
0.00 0.00 0.00 0.00 0.00 0.00 0.00 0.00 0.00 0.00 0.01 0.01 0.01 0.01 0.01 0.01 0.01 0.00 0.00 0.00 0.01 0.03 0.01 0.00 0.00 0.00 0.00 0.00 0.01 0.10 0.16 0.17 0.25 0.29 0.18 0.14 0.09 0.05
0.00 0.00 0.00 0.00 0.00 0.00 0.00 0.00 0.00 0.00 0.00 0.00 0.01 0.00 0.00 0.00 0.00 0.00 0.00 0.00 0.00 0.02 0.01 0.00 0.00 0.00 0.00 0.00 0.00 0.03 0.10 0.18 0.20 0.19 0.14 0.14 0.13 0.07
0.00 0.00 0.00 0.00 0.00 0.00 0.00 0.00 0.00 0.00 0.00 0.00 0.01 0.00 0.00 0.00 0.00 0.00 0.00 0.00 0.00 0.00 0.00 0.00 0.00 0.00 0.00 0.00 0.00 0.00 0.02 0.06 0.12 0.14 0.15 0.08 0.10 0.07
0.00 0.00 0.00 0.00 0.00 0.00 0.00 0.00 0.00 0.00 0.00 0.01 0.01 0.01 0.01 0.00 0.00 0.00 0.00 0.00 0.00 0.00 0.00 0.00 0.00 0.00 0.00 0.00 0.00 0.00 0.00 0.00 0.01 0.02 0.02 0.04 0.01 0.02
0.00 0.00 0.00 0.00 0.00 0.00 0.00 0.00 0.00 0.00 0.00 0.00 0.01 0.01 0.00 0.01 0.00 0.01 0.00 0.00 0.00 0.00 0.00 0.00 0.00 0.00 0.00 0.00 0.00 0.00 0.00 0.00 0.00 0.00 0.00 0.00 0.00 0.00
0.00 0.00 0.00 0.00 0.00 0.00 0.01 0.00 0.00 0.00 0.00 0.00 0.00 0.00 0.00 0.00 0.00 0.00 0.00 0.00 0.00 0.00 0.00 0.00 0.00 0.00 0.00 0.00 0.00 0.00 0.00 0.00 0.00 0.00 0.00 0.00 0.00 0.00
0.00 0.00 0.00 0.00 0.00 0.00 0.00 0.00 0.00 0.00 0.00 0.00 0.00 0.00 0.00 0.00 0.00 0.00 0.00 0.00 0.00 0.00 0.00 0.00 0.00 0.00 0.00 0.00 0.00 0.00 0.00 0.00 0.00 0.00 0.00 0.00 0.00 0.00
0.00 0.00 0.00 0.00 0.00 0.00 0.00 0.00 0.00 0.00 0.00 0.00 0.00 0.00 0.00 0.00 0.00 0.00 0.00 0.00 0.00 0.00 0.00 0.00 0.00 0.00 0.00 0.00 0.00 0.00 0.00 0.00 0.00 0.00 0.00 0.00 0.00 0.00
0.00 0.00 0.00 0.00 0.00 0.00 0.00 0.00 0.00 0.00 0.00 0.00 0.00 0.00 0.00 0.00 0.00 0.00 0.00 0.00 0.00 0.00 0.00 0.00 0.00 0.00 0.00 0.00 0.00 0.00 0.00 0.00 0.00 0.00 0.00 0.00 0.00 0.00
0.00 0.00 0.00 0.00 0.00 0.00 0.00 0.00 0.00 0.00 0.00 0.00 0.00 0.00 0.00 0.00 0.00 0.00 0.00 0.00 0.00 0.00 0.00 0.00 0.00 0.00 0.00 0.00 0.00 0.00 0.00 0.00 0.00 0.00 0.00 0.00 0.00 0.00
0.00 0.00 0.00 0.00 0.00 0.00 0.00 0.00 0.00 0.00 0.00 0.00 0.00 0.00 0.00 0.00 0.00 0.00 0.00 0.00 0.00 0.00 0.00 0.00 0.00 0.00 0.00 0.00 0.00 0.00 0.00 0.00 0.00 0.00 0.00 0.00 0.00 0.00
0.01 0.00 0.00 0.00 0.00 0.00 0.00 0.00 0.00 0.00 0.00 0.00 0.00 0.00 0.00 0.00 0.00 0.00 0.00 0.00 0.00 0.00 0.00 0.00 0.00 0.00 0.00 0.00 0.00 0.00 0.00 0.00 0.00 0.00 0.00 0.00 0.00 0.00
0.01 0.01 0.00 0.00 0.00 0.00 0.00 0.00 0.00 0.00 0.00 0.00 0.00 0.00 0.00 0.00 0.00 0.00 0.00 0.00 0.00 0.00 0.00 0.00 0.00 0.00 0.00 0.00 0.00 0.00 0.00 0.00 0.00 0.00 0.00 0.00 0.00 0.00
0.00 0.00 0.00 0.00 0.00 0.00 0.00 0.00 0.00 0.00 0.00 0.00 0.00 0.00 0.00 0.00 0.00 0.00 0.00 0.00 0.00 0.00 0.00 0.00 0.00 0.00 0.00 0.00 0.01 0.00 0.00 0.00 0.00 0.00 0.00 0.00 0.00 0.00
0.00 0.00 0.00 0.00 0.00 0.00 0.00 0.00 0.00 0.00 0.00 0.00 0.00 0.00 0.00 0.00 0.00 0.00 0.00 0.00 0.00 0.00 0.00 0.00 0.00 0.00 0.00 0.00 0.00 0.00 0.00 0.00 0.00 0.00 0.00 0.00 0.00 0.00
0.00 0.00 0.00 0.00 0.00 0.00 0.00 0.00 0.00 0.00 0.00 0.00 0.00 0.00 0.00 0.00 0.00 0.00 0.00 0.00 0.00 0.00 0.00 0.00 0.00 0.00 0.01 0.00 0.00 0.00 0.00 0.00 0.00 0.00 0.00 0.00 0.00 0.00
0.00 0.00 0.00 0.00 0.00 0.00 0.00 0.00 0.00 0.00 0.00 0.00 0.00 0.00 0.00 0.00 0.00 0.00 0.00 0.00 0.00 0.00 0.00 0.00 0.00 0.00 0.00 0.00 0.00 0.00 0.00 0.00 0.00 0.00 0.00 0.00 0.00 0.00
0.00 0.00 0.00 0.00 0.00 0.00 0.00 0.00 0.00 0.00 0.00 0.00 0.00 0.00 0.00 0.00 0.00 0.00 0.00 0.00 0.00 0.00 0.00 0.00 0.00 0.00 0.01 0.02 0.01 0.00 0.00 0.00 0.00 0.00 0.00 0.01 0.00 0.00
0.00 0.01 0.01 0.01 0.01 0.01 0.01 0.01 0.00 0.00 0.00 0.00 0.00 0.00 0.00 0.00 0.00 0.00 0.00 0.00 0.00 0.00 0.00 0.00 0.00 0.00 0.01 0.01 0.00 0.00 0.00 0.00 0.00 0.00 0.00 0.01 0.01 0.01
0.02 0.03 0.03 0.04 0.04 0.06 0.06 0.05 0.03 0.01 0.01 0.02 0.02 0.01 0.01 0.01 0.00 0.00 0.00 0.00 0.00 0.00 0.00 0.00 0.00 0.00 0.00 0.00 0.00 0.00 0.00 0.00 0.00 0.00 0.00 0.00 0.00 0.00

GFSNE_prec_precacc24_114.txt.gz
Total_Precipitation_Accumulation
0.03 0.04 0.04 0.02 0.00 0.00 0.00 0.01 0.04 0.03 0.01 0.01 0.01 0.00 0.00 0.01 0.01 0.00 0.00 0.03 0.02 0.01 0.01 0.01 0.01 0.01 0.03 0.08 0.13 0.12 0.14 0.30 0.21 0.11 0.14 0.22 0.41 0.51
0.03 0.02 0.00 0.00 0.00 0.00 0.00 0.00 0.01 0.02 0.03 0.01 0.01 0.01 0.01 0.00 0.02 0.01 0.01 0.02 0.01 0.01 0.01 0.00 0.00 0.01 0.02 0.11 0.13 0.13 0.14 0.22 0.29 0.20 0.14 0.20 0.36 0.56
0.01 0.00 0.00 0.00 0.00 0.00 0.00 0.00 0.00 0.01 0.01 0.01 0.01 0.01 0.00 0.00 0.00 0.00 0.00 0.00 0.01 0.02 0.00 0.00 0.00 0.00 0.00 0.02 0.06 0.13 0.13 0.19 0.36 0.31 0.21 0.19 0.33 0.76
0.00 0.00 0.00 0.00 0.00 0.00 0.00 0.00 0.00 0.00 0.01 0.01 0.01 0.01 0.01 0.01 0.01 0.00 0.00 0.00 0.01 0.04 0.01 0.00 0.00 0.00 0.00 0.00 0.01 0.10 0.19 0.21 0.27 0.32 0.27 0.26 0.26 0.52
0.00 0.00 0.00 0.00 0.00 0.00 0.00 0.00 0.00 0.00 0.00 0.01 0.01 0.00 0.00 0.00 0.00 0.00 0.00 0.00 0.00 0.02 0.01 0.00 0.00 0.00 0.00 0.00 0.00 0.03 0.12 0.25 0.31 0.25 0.27 0.27 0.32 0.22
0.00 0.00 0.00 0.00 0.00 0.00 0.00 0.00 0.00 0.00 0.00 0.00 0.01 0.00 0.00 0.00 0.00 0.00 0.00 0.00 0.00 0.00 0.01 0.00 0.00 0.00 0.00 0.00 0.00 0.00 0.04 0.09 0.22 0.22 0.25 0.17 0.22 0.18
0.00 0.00 0.00 0.00 0.00 0.00 0.00 0.00 0.00 0.00 0.00 0.01 0.01 0.01 0.01 0.00 0.00 0.00 0.00 0.00 0.00 0.00 0.00 0.00 0.00 0.00 0.00 0.00 0.00 0.00 0.00 0.02 0.05 0.11 0.12 0.21 0.12 0.16
0.00 0.00 0.00 0.00 0.00 0.00 0.00 0.00 0.00 0.00 0.00 0.00 0.01 0.01 0.00 0.01 0.00 0.01 0.00 0.00 0.00 0.00 0.00 0.00 0.00 0.00 0.00 0.00 0.00 0.00 0.00 0.00 0.00 0.03 0.15 0.08 0.15 0.03
0.00 0.00 0.00 0.00 0.00 0.00 0.01 0.00 0.00 0.00 0.00 0.00 0.00 0.00 0.00 0.00 0.00 0.00 0.00 0.00 0.00 0.00 0.00 0.00 0.00 0.00 0.00 0.00 0.00 0.00 0.00 0.00 0.00 0.00 0.01 0.03 0.00 0.01
0.00 0.00 0.00 0.00 0.00 0.00 0.00 0.00 0.00 0.00 0.00 0.00 0.00 0.00 0.00 0.00 0.00 0.00 0.01 0.00 0.00 0.00 0.00 0.00 0.00 0.00 0.00 0.00 0.00 0.00 0.00 0.00 0.00 0.00 0.00 0.00 0.00 0.00
0.00 0.00 0.00 0.00 0.00 0.00 0.00 0.00 0.00 0.00 0.00 0.00 0.00 0.00 0.00 0.00 0.00 0.00 0.00 0.00 0.00 0.00 0.00 0.00 0.00 0.00 0.00 0.00 0.00 0.00 0.00 0.00 0.00 0.00 0.00 0.00 0.00 0.00
0.00 0.00 0.00 0.00 0.00 0.00 0.00 0.00 0.00 0.00 0.00 0.00 0.00 0.00 0.00 0.00 0.00 0.00 0.00 0.00 0.00 0.00 0.00 0.00 0.00 0.00 0.00 0.00 0.00 0.00 0.00 0.00 0.00 0.00 0.00 0.00 0.00 0.00
0.00 0.00 0.00 0.00 0.00 0.00 0.00 0.00 0.00 0.00 0.00 0.00 0.00 0.00 0.00 0.00 0.00 0.00 0.00 0.00 0.00 0.00 0.00 0.00 0.00 0.00 0.00 0.00 0.00 0.00 0.00 0.00 0.00 0.00 0.00 0.00 0.00 0.00
0.00 0.00 0.00 0.00 0.00 0.00 0.00 0.00 0.00 0.00 0.00 0.00 0.00 0.00 0.00 0.00 0.00 0.00 0.00 0.00 0.00 0.00 0.00 0.00 0.00 0.00 0.00 0.00 0.00 0.00 0.00 0.00 0.00 0.00 0.00 0.00 0.00 0.00
0.01 0.00 0.00 0.00 0.00 0.00 0.00 0.00 0.00 0.00 0.00 0.00 0.00 0.00 0.00 0.00 0.00 0.00 0.00 0.00 0.00 0.00 0.00 0.00 0.00 0.00 0.00 0.00 0.00 0.00 0.00 0.00 0.00 0.00 0.00 0.00 0.00 0.00
0.01 0.01 0.00 0.00 0.00 0.00 0.00 0.00 0.00 0.00 0.00 0.00 0.00 0.00 0.00 0.00 0.00 0.00 0.00 0.00 0.00 0.00 0.00 0.00 0.00 0.00 0.00 0.00 0.00 0.00 0.00 0.00 0.00 0.00 0.00 0.00 0.00 0.00
0.00 0.00 0.00 0.00 0.00 0.00 0.00 0.00 0.00 0.00 0.00 0.00 0.00 0.00 0.00 0.00 0.00 0.00 0.00 0.00 0.00 0.00 0.00 0.00 0.00 0.00 0.00 0.00 0.00 0.00 0.00 0.00 0.00 0.00 0.00 0.00 0.00 0.00
0.00 0.00 0.00 0.00 0.00 0.00 0.00 0.00 0.00 0.00 0.00 0.00 0.00 0.00 0.00 0.00 0.00 0.00 0.00 0.00 0.00 0.00 0.00 0.00 0.00 0.00 0.00 0.00 0.00 0.00 0.00 0.00 0.00 0.00 0.00 0.00 0.00 0.00
0.00 0.00 0.00 0.00 0.00 0.00 0.00 0.00 0.00 0.00 0.00 0.00 0.00 0.00 0.00 0.00 0.00 0.00 0.00 0.00 0.00 0.00 0.00 0.00 0.00 0.00 0.00 0.00 0.00 0.00 0.00 0.00 0.00 0.00 0.00 0.00 0.00 0.00
0.00 0.00 0.00 0.00 0.00 0.00 0.00 0.00 0.00 0.00 0.00 0.00 0.00 0.00 0.00 0.00 0.00 0.00 0.00 0.00 0.00 0.00 0.00 0.00 0.00 0.00 0.00 0.00 0.00 0.00 0.00 0.00 0.00 0.00 0.00 0.00 0.00 0.00
0.00 0.00 0.00 0.00 0.00 0.00 0.00 0.00 0.00 0.00 0.00 0.00 0.00 0.00 0.00 0.00 0.00 0.00 0.00 0.00 0.00 0.00 0.00 0.00 0.00 0.00 0.00 0.00 0.00 0.00 0.00 0.00 0.00 0.00 0.00 0.00 0.00 0.00
0.00 0.01 0.01 0.01 0.01 0.01 0.01 0.01 0.00 0.00 0.00 0.00 0.00 0.00 0.00 0.00 0.00 0.00 0.00 0.00 0.00 0.00 0.00 0.00 0.00 0.00 0.00 0.01 0.00 0.00 0.00 0.00 0.00 0.00 0.00 0.00 0.00 0.00
0.02 0.03 0.03 0.04 0.05 0.06 0.08 0.06 0.04 0.02 0.02 0.03 0.03 0.03 0.03 0.02 0.01 0.01 0.00 0.00 0.00 0.00 0.00 0.00 0.00 0.00 0.00 0.00 0.00 0.00 0.00 0.00 0.00 0.00 0.00 0.00 0.00 0.00

GFSNE_prec_precacc24_117.txt.gz
Total_Precipitation_Accumulation
0.17 0.12 0.07 0.04 0.02 0.01 0.01 0.01 0.03 0.03 0.01 0.01 0.01 0.00 0.00 0.01 0.01 0.00 0.00 0.02 0.02 0.01 0.01 0.01 0.01 0.01 0.02 0.07 0.12 0.08 0.11 0.27 0.20 0.11 0.14 0.22 0.41 0.55
0.06 0.08 0.05 0.02 0.01 0.01 0.00 0.00 0.01 0.02 0.03 0.01 0.01 0.01 0.01 0.00 0.02 0.01 0.01 0.02 0.01 0.01 0.00 0.00 0.00 0.00 0.02 0.10 0.11 0.12 0.12 0.22 0.30 0.20 0.14 0.21 0.36 0.57
0.02 0.02 0.01 0.00 0.00 0.00 0.00 0.00 0.00 0.01 0.01 0.01 0.01 0.01 0.00 0.00 0.00 0.00 0.00 0.00 0.01 0.02 0.00 0.00 0.00 0.00 0.00 0.02 0.06 0.13 0.13 0.20 0.36 0.31 0.21 0.20 0.35 0.80
0.01 0.01 0.01 0.00 0.00 0.00 0.00 0.00 0.00 0.00 0.01 0.01 0.01 0.01 0.01 0.01 0.01 0.00 0.00 0.00 0.01 0.04 0.01 0.00 0.00 0.00 0.00 0.00 0.01 0.10 0.19 0.22 0.29 0.32 0.27 0.27 0.31 0.65
0.01 0.00 0.00 0.00 0.00 0.00 0.00 0.00 0.00 0.00 0.00 0.01 0.01 0.00 0.00 0.00 0.00 0.00 0.00 0.00 0.00 0.02 0.01 0.00 0.00 0.00 0.00 0.00 0.00 0.03 0.13 0.30 0.39 0.28 0.29 0.32 0.37 0.32
0.01 0.00 0.00 0.00 0.00 0.00 0.00 0.00 0.00 0.00 0.00 0.00 0.01 0.00 0.00 0.00 0.00 0.00 0.00 0.00 0.00 0.00 0.01 0.00 0.00 0.00 0.00 0.00 0.00 0.00 0.04 0.12 0.35 0.33 0.34 0.31 0.58 0.42
0.00 0.00 0.00 0.00 0.00 0.00 0.00 0.00 0.00 0.00 0.00 0.01 0.01 0.01 0.01 0.00 0.00 0.00 0.00 0.00 0.00 0.00 0.00 0.00 0.00 0.00 0.00 0.00 0.00 0.00 0.00 0.03 0.10 0.19 0.19 0.40 0.27 0.34
0.00 0.00 0.00 0.00 0.00 0.00 0.00 0.00 0.00 0.00 0.00 0.00 0.01 0.01 0.00 0.01 0.00 0.01 0.00 0.00 0.00 0.00 0.00 0.00 0.00 0.00 0.00 0.00 0.00 0.00 0.00 0.00 0.01 0.07 0.19 0.16 0.30 0.19
0.00 0.00 0.00 0.00 0.00 0.00 0.01 0.00 0.00 0.00 0.00 0.00 0.00 0.00 0.00 0.00 0.00 0.00 0.00 0.00 0.00 0.00 0.00 0.00 0.00 0.00 0.00 0.00 0.00 0.00 0.00 0.00 0.00 0.01 0.05 0.11 0.13 0.12
0.00 0.00 0.00 0.00 0.00 0.00 0.00 0.00 0.00 0.00 0.00 0.00 0.00 0.00 0.00 0.00 0.00 0.00 0.01 0.00 0.00 0.00 0.00 0.00 0.00 0.00 0.00 0.00 0.00 0.00 0.00 0.00 0.00 0.00 0.00 0.00 0.01 0.01
0.00 0.00 0.00 0.00 0.00 0.00 0.00 0.00 0.00 0.00 0.00 0.00 0.00 0.00 0.00 0.00 0.00 0.00 0.00 0.00 0.00 0.00 0.00 0.00 0.00 0.00 0.00 0.00 0.00 0.00 0.00 0.00 0.00 0.00 0.00 0.00 0.00 0.00
0.00 0.00 0.00 0.00 0.00 0.00 0.00 0.00 0.00 0.00 0.00 0.00 0.00 0.00 0.00 0.00 0.00 0.00 0.00 0.00 0.00 0.00 0.00 0.00 0.00 0.00 0.00 0.00 0.00 0.00 0.00 0.00 0.00 0.00 0.00 0.00 0.00 0.00
0.00 0.00 0.00 0.00 0.00 0.00 0.00 0.00 0.00 0.00 0.00 0.00 0.00 0.00 0.00 0.00 0.00 0.00 0.00 0.00 0.00 0.00 0.00 0.00 0.00 0.00 0.00 0.00 0.00 0.00 0.00 0.00 0.00 0.00 0.00 0.00 0.00 0.00
0.00 0.00 0.00 0.00 0.00 0.00 0.00 0.00 0.00 0.00 0.00 0.00 0.00 0.00 0.00 0.00 0.00 0.00 0.00 0.00 0.00 0.00 0.00 0.00 0.00 0.00 0.00 0.00 0.00 0.00 0.00 0.00 0.00 0.00 0.00 0.00 0.00 0.00
0.01 0.00 0.00 0.00 0.00 0.00 0.00 0.00 0.00 0.00 0.00 0.00 0.00 0.00 0.00 0.00 0.00 0.00 0.00 0.00 0.00 0.00 0.00 0.00 0.00 0.00 0.00 0.00 0.00 0.00 0.00 0.00 0.00 0.00 0.00 0.00 0.00 0.00
0.01 0.01 0.00 0.00 0.00 0.00 0.00 0.00 0.00 0.00 0.00 0.00 0.00 0.00 0.00 0.00 0.00 0.00 0.00 0.00 0.00 0.00 0.00 0.00 0.00 0.00 0.00 0.00 0.00 0.00 0.00 0.00 0.00 0.00 0.00 0.00 0.00 0.00
0.00 0.00 0.00 0.00 0.00 0.00 0.00 0.00 0.00 0.00 0.00 0.00 0.00 0.00 0.00 0.00 0.00 0.00 0.00 0.00 0.00 0.00 0.00 0.00 0.00 0.00 0.00 0.00 0.00 0.00 0.00 0.00 0.00 0.00 0.00 0.00 0.00 0.00
0.00 0.00 0.00 0.00 0.00 0.00 0.00 0.00 0.00 0.00 0.00 0.00 0.00 0.00 0.00 0.00 0.00 0.00 0.00 0.00 0.00 0.00 0.00 0.00 0.00 0.00 0.00 0.00 0.00 0.00 0.00 0.00 0.00 0.00 0.00 0.00 0.00 0.00
0.04 0.03 0.02 0.00 0.00 0.00 0.00 0.00 0.00 0.00 0.00 0.00 0.00 0.00 0.00 0.00 0.00 0.00 0.00 0.00 0.00 0.00 0.00 0.00 0.00 0.00 0.00 0.00 0.00 0.00 0.00 0.00 0.00 0.00 0.00 0.00 0.00 0.00
0.09 0.09 0.04 0.01 0.00 0.00 0.00 0.00 0.00 0.00 0.00 0.00 0.00 0.00 0.00 0.00 0.00 0.00 0.00 0.00 0.00 0.00 0.00 0.00 0.00 0.00 0.00 0.00 0.00 0.00 0.00 0.00 0.00 0.00 0.00 0.00 0.00 0.00
0.06 0.04 0.01 0.00 0.00 0.00 0.00 0.00 0.00 0.00 0.00 0.00 0.00 0.00 0.00 0.00 0.00 0.00 0.00 0.00 0.00 0.00 0.00 0.00 0.00 0.00 0.00 0.00 0.00 0.00 0.00 0.00 0.00 0.00 0.00 0.00 0.00 0.00
0.02 0.02 0.01 0.01 0.01 0.01 0.01 0.01 0.00 0.00 0.00 0.00 0.00 0.00 0.00 0.00 0.00 0.00 0.00 0.00 0.00 0.00 0.00 0.00 0.00 0.00 0.00 0.00 0.00 0.00 0.00 0.00 0.00 0.00 0.00 0.00 0.00 0.00
0.07 0.05 0.04 0.04 0.05 0.07 0.08 0.06 0.04 0.02 0.03 0.03 0.03 0.03 0.04 0.03 0.02 0.02 0.02 0.01 0.01 0.01 0.00 0.00 0.00 0.00 0.00 0.00 0.00 0.00 0.00 0.00 0.00 0.00 0.00 0.00 0.00 0.00

GFSNE_prec_precacc24_120.txt.gz
Total_Precipitation_Accumulation
0.18 0.18 0.15 0.14 0.10 0.05 0.04 0.04 0.04 0.03 0.01 0.01 0.01 0.00 0.00 0.01 0.01 0.00 0.00 0.02 0.02 0.01 0.01 0.01 0.00 0.00 0.01 0.04 0.10 0.06 0.07 0.21 0.16 0.09 0.15 0.24 0.42 0.56
0.13 0.16 0.16 0.12 0.09 0.06 0.04 0.02 0.01 0.02 0.03 0.01 0.01 0.01 0.01 0.00 0.02 0.01 0.01 0.02 0.01 0.00 0.00 0.00 0.00 0.00 0.01 0.07 0.10 0.10 0.11 0.21 0.29 0.20 0.15 0.22 0.38 0.58
0.11 0.11 0.09 0.08 0.04 0.02 0.01 0.00 0.00 0.01 0.01 0.01 0.01 0.01 0.00 0.00 0.00 0.00 0.00 0.00 0.01 0.02 0.00 0.00 0.00 0.00 0.00 0.02 0.05 0.13 0.12 0.19 0.37 0.31 0.21 0.20 0.36 0.81
0.18 0.14 0.08 0.02 0.00 0.00 0.00 0.00 0.00 0.00 0.01 0.01 0.01 0.01 0.01 0.01 0.01 0.00 0.00 0.00 0.01 0.04 0.01 0.00 0.00 0.00 0.00 0.00 0.01 0.10 0.19 0.23 0.30 0.32 0.27 0.27 0.31 0.66
0.08 0.06 0.02 0.01 0.00 0.00 0.00 0.00 0.00 0.00 0.00 0.01 0.01 0.00 0.00 0.00 0.00 0.00 0.00 0.00 0.00 0.02 0.01 0.00 0.00 0.00 0.00 0.00 0.00 0.03 0.13 0.30 0.44 0.31 0.30 0.32 0.37 0.33
0.02 0.03 0.02 0.01 0.00 0.00 0.00 0.00 0.00 0.00 0.00 0.00 0.01 0.00 0.00 0.00 0.00 0.00 0.00 0.00 0.00 0.00 0.01 0.00 0.00 0.00 0.00 0.00 0.00 0.00 0.04 0.13 0.40 0.42 0.44 0.32 0.58 0.42
0.01 0.01 0.00 0.00 0.00 0.00 0.00 0.00 0.00 0.00 0.00 0.01 0.01 0.01 0.01 0.00 0.00 0.00 0.00 0.00 0.00 0.00 0.00 0.00 0.00 0.00 0.00 0.00 0.00 0.00 0.00 0.03 0.14 0.29 0.33 0.49 0.36 0.40
0.01 0.01 0.00 0.00 0.00 0.00 0.00 0.00 0.00 0.00 0.00 0.00 0.01 0.01 0.00 0.01 0.00 0.01 0.00 0.00 0.00 0.00 0.00 0.00 0.00 0.00 0.00 0.00 0.00 0.00 0.00 0.01 0.02 0.11 0.21 0.23 0.47 0.47
0.00 0.00 0.00 0.00 0.00 0.00 0.01 0.00 0.00 0.00 0.00 0.00 0.00 0.00 0.00 0.00 0.00 0.00 0.00 0.00 0.00 0.00 0.00 0.00 0.00 0.00 0.00 0.00 0.00 0.00 0.00 0.00 0.00 0.02 0.10 0.15 0.19 0.27
0.00 0.00 0.00 0.00 0.00 0.00 0.00 0.00 0.00 0.00 0.00 0.00 0.00 0.00 0.00 0.00 0.00 0.00 0.01 0.00 0.00 0.00 0.00 0.00 0.00 0.00 0.00 0.00 0.00 0.00 0.00 0.00 0.00 0.00 0.02 0.12 0.13 0.08
0.00 0.00 0.00 0.00 0.00 0.00 0.00 0.00 0.00 0.00 0.00 0.00 0.00 0.00 0.00 0.00 0.00 0.00 0.00 0.00 0.00 0.00 0.00 0.00 0.00 0.00 0.00 0.00 0.00 0.00 0.00 0.00 0.00 0.00 0.00 0.00 0.04 0.06
0.00 0.00 0.00 0.00 0.00 0.00 0.00 0.00 0.00 0.00 0.00 0.00 0.00 0.00 0.00 0.00 0.00 0.00 0.00 0.00 0.00 0.00 0.00 0.00 0.00 0.00 0.00 0.00 0.00 0.00 0.00 0.00 0.00 0.00 0.00 0.00 0.00 0.00
0.00 0.00 0.00 0.00 0.00 0.00 0.00 0.00 0.00 0.00 0.00 0.00 0.00 0.00 0.00 0.00 0.00 0.00 0.00 0.00 0.00 0.00 0.00 0.00 0.00 0.00 0.00 0.00 0.00 0.00 0.00 0.00 0.00 0.00 0.00 0.00 0.00 0.00
0.00 0.00 0.00 0.00 0.00 0.00 0.00 0.00 0.00 0.00 0.00 0.00 0.00 0.00 0.00 0.00 0.00 0.00 0.00 0.00 0.00 0.00 0.00 0.00 0.00 0.00 0.00 0.00 0.00 0.00 0.00 0.00 0.00 0.00 0.00 0.00 0.00 0.00
0.00 0.00 0.00 0.00 0.00 0.00 0.00 0.00 0.00 0.00 0.00 0.00 0.00 0.00 0.00 0.00 0.00 0.00 0.00 0.00 0.00 0.00 0.00 0.00 0.00 0.00 0.00 0.00 0.00 0.00 0.00 0.00 0.00 0.00 0.00 0.00 0.00 0.00
0.00 0.00 0.00 0.00 0.00 0.00 0.00 0.00 0.00 0.00 0.00 0.00 0.00 0.00 0.00 0.00 0.00 0.00 0.00 0.00 0.00 0.00 0.00 0.00 0.00 0.00 0.00 0.00 0.00 0.00 0.00 0.00 0.00 0.00 0.00 0.00 0.00 0.00
0.00 0.00 0.00 0.00 0.00 0.00 0.00 0.00 0.00 0.00 0.00 0.00 0.00 0.00 0.00 0.00 0.00 0.00 0.00 0.00 0.00 0.00 0.00 0.00 0.00 0.00 0.00 0.00 0.00 0.00 0.00 0.00 0.00 0.00 0.00 0.00 0.00 0.00
0.01 0.00 0.01 0.01 0.01 0.00 0.00 0.00 0.00 0.00 0.00 0.00 0.00 0.00 0.00 0.00 0.00 0.00 0.00 0.00 0.00 0.00 0.00 0.00 0.00 0.00 0.00 0.00 0.00 0.00 0.00 0.00 0.00 0.00 0.00 0.00 0.00 0.00
0.04 0.04 0.05 0.04 0.03 0.01 0.00 0.00 0.00 0.00 0.00 0.00 0.00 0.00 0.00 0.00 0.00 0.00 0.00 0.00 0.00 0.00 0.00 0.00 0.00 0.00 0.00 0.00 0.00 0.00 0.00 0.00 0.00 0.00 0.00 0.00 0.00 0.00
0.10 0.13 0.12 0.10 0.07 0.03 0.01 0.00 0.00 0.00 0.00 0.00 0.00 0.00 0.00 0.00 0.00 0.00 0.00 0.00 0.00 0.00 0.00 0.00 0.00 0.00 0.00 0.00 0.00 0.00 0.00 0.00 0.00 0.00 0.00 0.00 0.00 0.00
0.11 0.16 0.15 0.12 0.08 0.04 0.03 0.01 0.00 0.00 0.00 0.00 0.00 0.00 0.00 0.00 0.00 0.00 0.00 0.00 0.00 0.00 0.00 0.00 0.00 0.00 0.00 0.00 0.00 0.00 0.00 0.00 0.00 0.00 0.00 0.00 0.00 0.00
0.12 0.15 0.13 0.10 0.07 0.06 0.03 0.01 0.00 0.00 0.00 0.00 0.00 0.00 0.00 0.00 0.00 0.00 0.00 0.00 0.00 0.00 0.00 0.00 0.00 0.00 0.00 0.00 0.00 0.00 0.00 0.00 0.00 0.00 0.00 0.00 0.00 0.00
0.16 0.16 0.14 0.11 0.08 0.09 0.09 0.06 0.04 0.02 0.03 0.03 0.03 0.03 0.04 0.04 0.02 0.02 0.02 0.02 0.01 0.01 0.01 0.00 0.00 0.00 0.00 0.00 0.00 0.00 0.00 0.00 0.00 0.00 0.00 0.00 0.00 0.00

GFSNE_prec_precacc24_123.txt.gz
Total_Precipitation_Accumulation
0.18 0.18 0.15 0.14 0.11 0.09 0.09 0.09 0.09 0.07 0.03 0.01 0.00 0.00 0.00 0.01 0.01 0.00 0.00 0.02 0.01 0.00 0.00 0.01 0.00 0.00 0.01 0.02 0.07 0.05 0.03 0.08 0.11 0.08 0.12 0.23 0.43 0.57
0.13 0.17 0.18 0.14 0.15 0.17 0.16 0.17 0.15 0.11 0.10 0.02 0.00 0.00 0.01 0.00 0.02 0.01 0.01 0.02 0.01 0.00 0.00 0.00 0.00 0.00 0.00 0.05 0.08 0.08 0.08 0.16 0.22 0.16 0.14 0.20 0.38 0.58
0.12 0.13 0.14 0.14 0.12 0.11 0.12 0.13 0.14 0.06 0.01 0.00 0.01 0.01 0.00 0.00 0.00 0.00 0.00 0.00 0.01 0.02 0.00 0.00 0.00 0.00 0.00 0.02 0.05 0.11 0.11 0.18 0.36 0.31 0.22 0.21 0.36 0.81
0.31 0.30 0.27 0.30 0.26 0.11 0.07 0.04 0.02 0.00 0.01 0.01 0.00 0.01 0.00 0.01 0.01 0.00 0.00 0.00 0.01 0.04 0.01 0.01 0.00 0.00 0.00 0.00 0.01 0.10 0.19 0.23 0.30 0.33 0.27 0.27 0.31 0.66
0.18 0.18 0.15 0.14 0.15 0.14 0.11 0.05 0.01 0.00 0.00 0.01 0.01 0.00 0.00 0.00 0.00 0.00 0.00 0.00 0.00 0.02 0.01 0.00 0.00 0.00 0.00 0.00 0.00 0.03 0.13 0.30 0.44 0.32 0.33 0.32 0.37 0.34
0.08 0.11 0.09 0.06 0.08 0.07 0.04 0.01 0.00 0.00 0.00 0.00 0.01 0.00 0.00 0.00 0.00 0.00 0.00 0.00 0.00 0.00 0.01 0.00 0.00 0.00 0.00 0.00 0.00 0.00 0.04 0.13 0.42 0.48 0.50 0.33 0.58 0.43
0.10 0.08 0.08 0.08 0.07 0.04 0.01 0.00 0.00 0.00 0.00 0.01 0.01 0.01 0.01 0.00 0.00 0.00 0.00 0.00 0.00 0.00 0.00 0.00 0.00 0.00 0.00 0.00 0.00 0.00 0.00 0.03 0.15 0.37 0.46 0.56 0.37 0.41
0.04 0.03 0.05 0.04 0.02 0.01 0.00 0.00 0.00 0.00 0.00 0.00 0.01 0.01 0.00 0.01 0.00 0.01 0.00 0.00 0.00 0.00 0.00 0.00 0.00 0.00 0.00 0.00 0.00 0.00 0.00 0.01 0.02 0.16 0.25 0.28 0.52 0.53
0.02 0.02 0.02 0.01 0.01 0.00 0.00 0.00 0.00 0.00 0.00 0.00 0.00 0.00 0.00 0.00 0.00 0.00 0.00 0.00 0.00 0.00 0.00 0.00 0.00 0.00 0.00 0.00 0.00 0.00 0.00 0.00 0.00 0.03 0.13 0.17 0.27 0.44
0.00 0.00 0.01 0.01 0.01 0.00 0.00 0.00 0.00 0.00 0.00 0.00 0.00 0.00 0.00 0.00 0.00 0.00 0.01 0.00 0.00 0.00 0.00 0.00 0.00 0.00 0.00 0.00 0.00 0.00 0.00 0.00 0.00 0.00 0.03 0.16 0.22 0.26
0.00 0.00 0.01 0.02 0.04 0.03 0.02 0.00 0.00 0.00 0.00 0.00 0.00 0.00 0.00 0.00 0.00 0.00 0.00 0.00 0.00 0.00 0.00 0.00 0.00 0.00 0.00 0.00 0.00 0.00 0.00 0.00 0.00 0.00 0.00 0.00 0.12 0.17
0.00 0.00 0.01 0.00 0.00 0.00 0.00 0.00 0.00 0.00 0.00 0.00 0.00 0.00 0.00 0.00 0.00 0.00 0.00 0.00 0.00 0.00 0.00 0.00 0.00 0.00 0.00 0.00 0.00 0.00 0.00 0.00 0.00 0.00 0.00 0.00 0.00 0.00
0.00 0.00 0.00 0.00 0.00 0.00 0.00 0.00 0.00 0.00 0.00 0.00 0.00 0.00 0.00 0.00 0.00 0.00 0.00 0.00 0.00 0.00 0.00 0.00 0.00 0.00 0.00 0.00 0.00 0.00 0.00 0.00 0.00 0.00 0.00 0.00 0.00 0.00
0.00 0.00 0.00 0.00 0.00 0.00 0.00 0.00 0.00 0.00 0.00 0.00 0.00 0.00 0.00 0.00 0.00 0.00 0.00 0.00 0.00 0.00 0.00 0.00 0.00 0.00 0.00 0.00 0.00 0.00 0.00 0.00 0.00 0.00 0.00 0.00 0.00 0.00
0.00 0.00 0.00 0.00 0.00 0.00 0.00 0.00 0.00 0.00 0.00 0.00 0.00 0.00 0.00 0.00 0.00 0.00 0.00 0.00 0.00 0.00 0.00 0.00 0.00 0.00 0.00 0.00 0.00 0.00 0.00 0.00 0.00 0.00 0.00 0.00 0.00 0.00
0.00 0.00 0.00 0.00 0.00 0.00 0.00 0.00 0.00 0.00 0.00 0.00 0.00 0.00 0.00 0.00 0.00 0.00 0.00 0.00 0.00 0.00 0.00 0.00 0.00 0.00 0.00 0.00 0.00 0.00 0.00 0.00 0.00 0.00 0.00 0.00 0.00 0.00
0.01 0.00 0.00 0.00 0.00 0.00 0.00 0.00 0.00 0.00 0.00 0.00 0.00 0.00 0.00 0.00 0.00 0.00 0.00 0.00 0.00 0.00 0.00 0.00 0.00 0.00 0.00 0.00 0.00 0.00 0.00 0.00 0.00 0.00 0.00 0.00 0.00 0.00
0.01 0.00 0.01 0.01 0.01 0.00 0.00 0.00 0.00 0.00 0.00 0.00 0.00 0.00 0.00 0.00 0.00 0.00 0.00 0.00 0.00 0.00 0.00 0.00 0.00 0.00 0.00 0.00 0.00 0.00 0.00 0.00 0.00 0.00 0.00 0.00 0.00 0.00
0.04 0.04 0.05 0.04 0.03 0.02 0.01 0.00 0.00 0.00 0.00 0.00 0.00 0.00 0.00 0.00 0.00 0.00 0.00 0.00 0.00 0.00 0.00 0.00 0.00 0.00 0.00 0.00 0.00 0.00 0.00 0.00 0.00 0.00 0.00 0.00 0.00 0.00
0.13 0.14 0.13 0.12 0.09 0.05 0.03 0.01 0.00 0.00 0.00 0.00 0.00 0.00 0.00 0.00 0.00 0.00 0.00 0.00 0.00 0.00 0.00 0.00 0.00 0.00 0.00 0.00 0.00 0.00 0.00 0.00 0.00 0.00 0.00 0.00 0.00 0.00
0.17 0.22 0.24 0.24 0.25 0.20 0.15 0.10 0.06 0.01 0.00 0.00 0.00 0.00 0.00 0.00 0.00 0.00 0.00 0.00 0.00 0.00 0.00 0.00 0.00 0.00 0.00 0.00 0.00 0.00 0.00 0.00 0.00 0.00 0.00 0.00 0.00 0.00
0.23 0.25 0.27 0.27 0.25 0.22 0.20 0.15 0.08 0.04 0.01 0.00 0.00 0.00 0.00 0.00 0.00 0.00 0.00 0.00 0.00 0.00 0.00 0.00 0.00 0.00 0.00 0.00 0.00 0.00 0.00 0.00 0.00 0.00 0.00 0.00 0.00 0.00
0.26 0.26 0.25 0.23 0.20 0.20 0.20 0.17 0.11 0.06 0.04 0.04 0.03 0.03 0.04 0.04 0.02 0.02 0.02 0.02 0.01 0.01 0.01 0.00 0.00 0.00 0.00 0.00 0.00 0.00 0.00 0.00 0.00 0.00 0.00 0.00 0.00 0.00

GFSNE_prec_precacc24_126.txt.gz
Total_Precipitation_Accumulation
0.23 0.22 0.17 0.16 0.12 0.09 0.09 0.09 0.09 0.07 0.04 0.02 0.03 0.03 0.03 0.01 0.00 0.00 0.00 0.02 0.01 0.00 0.00 0.00 0.00 0.00 0.00 0.01 0.04 0.03 0.02 0.03 0.06 0.08 0.14 0.25 0.45 0.59
0.21 0.21 0.19 0.15 0.15 0.17 0.16 0.18 0.19 0.21 0.23 0.20 0.16 0.08 0.01 0.00 0.01 0.00 0.01 0.02 0.01 0.00 0.00 0.00 0.00 0.00 0.00 0.03 0.06 0.04 0.05 0.09 0.11 0.10 0.13 0.20 0.38 0.58
0.15 0.16 0.16 0.17 0.15 0.13 0.14 0.15 0.18 0.21 0.18 0.12 0.10 0.07 0.01 0.00 0.00 0.00 0.00 0.00 0.01 0.02 0.00 0.01 0.01 0.00 0.00 0.01 0.04 0.09 0.09 0.14 0.31 0.25 0.18 0.19 0.36 0.81
0.33 0.31 0.27 0.32 0.35 0.34 0.31 0.24 0.18 0.13 0.10 0.07 0.05 0.02 0.00 0.00 0.00 0.00 0.00 0.00 0.01 0.04 0.01 0.01 0.00 0.00 0.00 0.00 0.01 0.10 0.19 0.22 0.30 0.33 0.28 0.28 0.31 0.66
0.24 0.23 0.18 0.17 0.18 0.20 0.23 0.28 0.25 0.17 0.08 0.03 0.01 0.00 0.00 0.00 0.00 0.00 0.00 0.00 0.00 0.02 0.01 0.00 0.00 0.00 0.00 0.00 0.00 0.03 0.13 0.30 0.45 0.34 0.36 0.33 0.37 0.35
0.14 0.17 0.16 0.13 0.11 0.11 0.11 0.14 0.15 0.13 0.06 0.01 0.00 0.00 0.00 0.00 0.00 0.00 0.00 0.00 0.00 0.00 0.01 0.00 0.00 0.00 0.00 0.00 0.00 0.00 0.04 0.13 0.43 0.50 0.52 0.34 0.60 0.44
0.20 0.18 0.21 0.22 0.19 0.17 0.14 0.11 0.08 0.05 0.02 0.00 0.01 0.00 0.00 0.00 0.00 0.00 0.00 0.00 0.00 0.00 0.00 0.00 0.00 0.00 0.00 0.00 0.00 0.00 0.00 0.03 0.16 0.40 0.48 0.57 0.38 0.42
0.13 0.11 0.12 0.13 0.15 0.20 0.22 0.17 0.08 0.03 0.01 0.00 0.01 0.01 0.00 0.01 0.00 0.01 0.00 0.00 0.00 0.00 0.00 0.00 0.00 0.00 0.00 0.00 0.00 0.00 0.00 0.01 0.02 0.19 0.29 0.32 0.54 0.55
0.07 0.07 0.07 0.07 0.07 0.02 0.03 0.04 0.02 0.01 0.00 0.00 0.00 0.00 0.00 0.00 0.00 0.00 0.00 0.00 0.00 0.00 0.00 0.00 0.00 0.00 0.00 0.00 0.00 0.00 0.00 0.00 0.00 0.05 0.16 0.20 0.32 0.45
0.10 0.10 0.07 0.06 0.05 0.02 0.02 0.02 0.01 0.00 0.00 0.00 0.00 0.00 0.00 0.00 0.00 0.00 0.01 0.00 0.00 0.00 0.00 0.00 0.00 0.00 0.00 0.00 0.00 0.00 0.00 0.00 0.00 0.00 0.06 0.20 0.34 0.34
0.02 0.02 0.02 0.03 0.05 0.04 0.03 0.03 0.03 0.01 0.01 0.00 0.00 0.00 0.00 0.00 0.00 0.00 0.00 0.00 0.00 0.00 0.00 0.00 0.00 0.00 0.00 0.00 0.00 0.00 0.00 0.00 0.00 0.00 0.01 0.05 0.20 0.28
0.01 0.02 0.03 0.01 0.02 0.03 0.04 0.04 0.05 0.03 0.00 0.00 0.00 0.00 0.00 0.00 0.00 0.00 0.00 0.00 0.00 0.00 0.00 0.00 0.00 0.00 0.00 0.00 0.00 0.00 0.00 0.00 0.00 0.00 0.00 0.00 0.02 0.04
0.00 0.02 0.02 0.02 0.02 0.04 0.09 0.10 0.04 0.00 0.00 0.00 0.00 0.00 0.00 0.00 0.00 0.00 0.00 0.00 0.00 0.00 0.00 0.00 0.00 0.00 0.00 0.00 0.00 0.00 0.00 0.00 0.00 0.00 0.00 0.00 0.00 0.00
0.01 0.01 0.01 0.00 0.01 0.03 0.05 0.05 0.02 0.00 0.00 0.00 0.00 0.00 0.00 0.00 0.00 0.00 0.00 0.00 0.00 0.00 0.00 0.00 0.00 0.00 0.00 0.00 0.00 0.00 0.00 0.00 0.00 0.00 0.00 0.00 0.00 0.00
0.01 0.01 0.01 0.00 0.00 0.00 0.00 0.00 0.00 0.00 0.00 0.00 0.00 0.00 0.00 0.00 0.00 0.00 0.00 0.00 0.00 0.00 0.00 0.00 0.00 0.00 0.00 0.00 0.00 0.00 0.00 0.00 0.00 0.00 0.00 0.00 0.00 0.00
0.00 0.01 0.01 0.01 0.01 0.01 0.01 0.02 0.01 0.00 0.00 0.00 0.00 0.00 0.00 0.00 0.00 0.00 0.00 0.00 0.00 0.00 0.00 0.00 0.00 0.00 0.00 0.00 0.00 0.00 0.00 0.00 0.00 0.00 0.00 0.00 0.00 0.00
0.01 0.00 0.01 0.00 0.00 0.01 0.02 0.03 0.03 0.02 0.00 0.00 0.00 0.00 0.00 0.00 0.00 0.00 0.00 0.00 0.00 0.00 0.00 0.00 0.00 0.00 0.00 0.00 0.00 0.00 0.00 0.00 0.00 0.00 0.00 0.00 0.00 0.00
0.03 0.01 0.01 0.01 0.01 0.00 0.01 0.03 0.03 0.02 0.02 0.01 0.00 0.00 0.00 0.00 0.00 0.00 0.00 0.00 0.00 0.00 0.00 0.00 0.00 0.00 0.00 0.00 0.00 0.00 0.00 0.00 0.00 0.00 0.00 0.00 0.00 0.00
0.07 0.04 0.05 0.04 0.03 0.02 0.02 0.02 0.02 0.02 0.02 0.01 0.00 0.00 0.00 0.00 0.00 0.00 0.00 0.00 0.00 0.00 0.00 0.00 0.00 0.00 0.00 0.00 0.00 0.00 0.00 0.00 0.00 0.00 0.00 0.00 0.00 0.00
0.15 0.15 0.13 0.12 0.10 0.07 0.06 0.03 0.02 0.02 0.03 0.02 0.00 0.00 0.00 0.00 0.00 0.00 0.00 0.00 0.00 0.00 0.00 0.00 0.00 0.00 0.00 0.00 0.00 0.00 0.00 0.00 0.00 0.00 0.00 0.00 0.00 0.00
0.29 0.31 0.32 0.35 0.37 0.35 0.31 0.23 0.15 0.07 0.04 0.02 0.01 0.01 0.00 0.00 0.00 0.00 0.00 0.00 0.00 0.00 0.00 0.00 0.00 0.00 0.00 0.00 0.00 0.00 0.00 0.00 0.00 0.00 0.00 0.00 0.00 0.00
0.36 0.41 0.42 0.47 0.48 0.45 0.42 0.36 0.29 0.22 0.14 0.08 0.04 0.02 0.01 0.00 0.00 0.00 0.00 0.00 0.00 0.00 0.00 0.00 0.00 0.00 0.00 0.00 0.00 0.00 0.00 0.00 0.00 0.00 0.00 0.00 0.00 0.00
0.38 0.39 0.36 0.35 0.37 0.36 0.33 0.27 0.20 0.15 0.14 0.14 0.11 0.08 0.06 0.04 0.02 0.02 0.02 0.02 0.01 0.01 0.01 0.00 0.01 0.01 0.00 0.00 0.00 0.00 0.00 0.00 0.00 0.00 0.00 0.00 0.00 0.00

GFSNE_prec_precacc24_129.txt.gz
Total_Precipitation_Accumulation
0.26 0.26 0.21 0.22 0.18 0.13 0.13 0.12 0.10 0.07 0.04 0.02 0.03 0.03 0.04 0.06 0.09 0.05 0.00 0.01 0.01 0.00 0.00 0.00 0.00 0.00 0.00 0.00 0.02 0.02 0.01 0.02 0.04 0.06 0.13 0.23 0.42 0.59
0.33 0.33 0.29 0.23 0.20 0.21 0.18 0.19 0.20 0.22 0.24 0.20 0.17 0.13 0.11 0.10 0.09 0.02 0.00 0.01 0.01 0.00 0.00 0.00 0.00 0.00 0.00 0.01 0.04 0.02 0.02 0.03 0.05 0.07 0.11 0.21 0.39 0.60
0.29 0.30 0.29 0.28 0.24 0.21 0.20 0.20 0.22 0.24 0.22 0.15 0.13 0.12 0.06 0.02 0.01 0.00 0.00 0.00 0.01 0.02 0.00 0.01 0.01 0.00 0.00 0.00 0.03 0.06 0.06 0.06 0.18 0.17 0.13 0.18 0.36 0.81
0.40 0.37 0.34 0.39 0.42 0.40 0.34 0.27 0.20 0.16 0.16 0.14 0.13 0.10 0.05 0.04 0.01 0.00 0.00 0.00 0.01 0.04 0.01 0.01 0.00 0.00 0.00 0.00 0.01 0.08 0.17 0.17 0.22 0.27 0.22 0.24 0.30 0.66
0.31 0.30 0.24 0.23 0.24 0.23 0.25 0.29 0.31 0.30 0.25 0.17 0.13 0.10 0.06 0.04 0.00 0.00 0.00 0.00 0.00 0.02 0.01 0.00 0.00 0.00 0.00 0.00 0.00 0.03 0.13 0.30 0.43 0.33 0.36 0.34 0.37 0.35
0.24 0.25 0.25 0.23 0.19 0.17 0.17 0.19 0.19 0.18 0.18 0.18 0.17 0.09 0.05 0.01 0.00 0.00 0.00 0.00 0.00 0.00 0.01 0.00 0.00 0.00 0.00 0.00 0.00 0.00 0.04 0.13 0.43 0.50 0.52 0.35 0.60 0.44
0.31 0.30 0.30 0.30 0.28 0.27 0.24 0.21 0.20 0.20 0.16 0.14 0.12 0.06 0.02 0.00 0.00 0.00 0.00 0.00 0.00 0.00 0.00 0.00 0.00 0.00 0.00 0.00 0.00 0.00 0.00 0.03 0.16 0.41 0.49 0.58 0.38 0.42
0.31 0.27 0.28 0.28 0.25 0.32 0.36 0.29 0.24 0.23 0.19 0.14 0.13 0.07 0.02 0.00 0.00 0.00 0.00 0.00 0.00 0.00 0.00 0.00 0.00 0.00 0.00 0.00 0.00 0.00 0.00 0.01 0.02 0.19 0.30 0.34 0.54 0.55
0.40 0.41 0.41 0.35 0.25 0.17 0.20 0.22 0.23 0.26 0.20 0.14 0.08 0.05 0.03 0.00 0.00 0.00 0.00 0.00 0.00 0.00 0.00 0.00 0.00 0.00 0.00 0.00 0.00 0.00 0.00 0.00 0.00 0.05 0.17 0.23 0.32 0.45
0.28 0.30 0.32 0.34 0.35 0.29 0.21 0.20 0.21 0.20 0.13 0.07 0.04 0.03 0.02 0.01 0.00 0.00 0.00 0.00 0.00 0.00 0.00 0.00 0.00 0.00 0.00 0.00 0.00 0.00 0.00 0.00 0.00 0.00 0.07 0.23 0.37 0.35
0.06 0.11 0.13 0.12 0.13 0.15 0.18 0.19 0.18 0.15 0.15 0.12 0.11 0.07 0.05 0.02 0.01 0.00 0.00 0.00 0.00 0.00 0.00 0.00 0.00 0.00 0.00 0.00 0.00 0.00 0.00 0.00 0.00 0.00 0.01 0.12 0.28 0.33
0.01 0.02 0.03 0.04 0.11 0.15 0.17 0.18 0.15 0.13 0.12 0.10 0.05 0.02 0.00 0.00 0.00 0.00 0.00 0.00 0.00 0.00 0.00 0.00 0.00 0.00 0.00 0.00 0.00 0.00 0.00 0.00 0.00 0.00 0.00 0.03 0.10 0.07
0.00 0.02 0.02 0.02 0.02 0.05 0.12 0.16 0.17 0.17 0.14 0.10 0.04 0.01 0.00 0.00 0.00 0.00 0.00 0.00 0.00 0.00 0.00 0.00 0.00 0.00 0.00 0.00 0.00 0.00 0.00 0.00 0.00 0.00 0.00 0.00 0.01 0.03
0.01 0.01 0.01 0.01 0.01 0.03 0.07 0.12 0.15 0.15 0.12 0.08 0.04 0.00 0.00 0.00 0.00 0.00 0.00 0.00 0.00 0.00 0.00 0.00 0.00 0.00 0.00 0.00 0.00 0.00 0.00 0.00 0.00 0.00 0.00 0.00 0.00 0.00
0.01 0.02 0.02 0.01 0.01 0.01 0.00 0.01 0.02 0.03 0.05 0.06 0.04 0.02 0.00 0.00 0.00 0.00 0.00 0.00 0.00 0.00 0.00 0.00 0.00 0.00 0.00 0.00 0.00 0.00 0.00 0.00 0.00 0.00 0.00 0.00 0.00 0.00
0.00 0.01 0.02 0.03 0.03 0.03 0.05 0.05 0.05 0.06 0.07 0.07 0.06 0.03 0.00 0.00 0.00 0.00 0.00 0.00 0.00 0.00 0.00 0.00 0.00 0.00 0.00 0.00 0.00 0.00 0.00 0.00 0.00 0.00 0.00 0.00 0.00 0.00
0.01 0.00 0.01 0.01 0.01 0.02 0.04 0.07 0.09 0.14 0.15 0.14 0.10 0.07 0.01 0.00 0.00 0.00 0.00 0.00 0.00 0.00 0.00 0.00 0.00 0.00 0.00 0.00 0.00 0.00 0.00 0.00 0.00 0.00 0.00 0.00 0.00 0.00
0.04 0.01 0.01 0.01 0.01 0.00 0.03 0.09 0.10 0.10 0.10 0.10 0.07 0.03 0.01 0.01 0.00 0.01 0.00 0.00 0.00 0.00 0.00 0.00 0.00 0.00 0.00 0.00 0.00 0.00 0.00 0.00 0.00 0.00 0.00 0.00 0.00 0.00
0.09 0.05 0.05 0.04 0.03 0.03 0.05 0.05 0.06 0.07 0.10 0.14 0.10 0.06 0.03 0.01 0.00 0.01 0.01 0.00 0.00 0.00 0.00 0.00 0.00 0.00 0.00 0.00 0.00 0.00 0.00 0.00 0.00 0.00 0.00 0.00 0.00 0.00
0.19 0.19 0.15 0.13 0.13 0.14 0.15 0.15 0.15 0.16 0.16 0.12 0.09 0.06 0.04 0.02 0.02 0.02 0.01 0.01 0.00 0.00 0.00 0.00 0.00 0.00 0.00 0.00 0.00 0.00 0.00 0.00 0.00 0.00 0.00 0.00 0.00 0.00
0.32 0.37 0.38 0.38 0.40 0.42 0.42 0.39 0.33 0.24 0.16 0.16 0.14 0.11 0.06 0.04 0.02 0.02 0.01 0.01 0.00 0.00 0.00 0.00 0.00 0.00 0.00 0.00 0.00 0.00 0.00 0.00 0.00 0.00 0.00 0.00 0.00 0.00
0.40 0.45 0.49 0.55 0.55 0.54 0.54 0.52 0.48 0.41 0.33 0.23 0.16 0.11 0.09 0.07 0.04 0.03 0.01 0.00 0.00 0.00 0.00 0.00 0.00 0.00 0.00 0.00 0.00 0.00 0.00 0.00 0.00 0.00 0.00 0.00 0.00 0.00
0.42 0.45 0.43 0.40 0.41 0.43 0.45 0.41 0.33 0.26 0.24 0.23 0.22 0.19 0.16 0.13 0.09 0.06 0.03 0.02 0.01 0.01 0.01 0.00 0.01 0.01 0.00 0.00 0.00 0.00 0.00 0.00 0.00 0.00 0.00 0.00 0.00 0.00

GFSNE_prec_precacc24_132.txt.gz
Total_Precipitation_Accumulation
0.27 0.26 0.21 0.22 0.21 0.18 0.22 0.23 0.21 0.14 0.06 0.03 0.03 0.04 0.05 0.06 0.10 0.11 0.10 0.12 0.06 0.00 0.00 0.00 0.00 0.00 0.00 0.00 0.00 0.01 0.01 0.02 0.03 0.05 0.08 0.13 0.27 0.45
0.36 0.34 0.31 0.26 0.27 0.31 0.30 0.27 0.24 0.23 0.24 0.20 0.17 0.13 0.12 0.11 0.14 0.11 0.07 0.06 0.02 0.00 0.00 0.00 0.00 0.00 0.00 0.00 0.01 0.01 0.01 0.01 0.02 0.04 0.09 0.15 0.32 0.57
0.33 0.34 0.33 0.33 0.29 0.28 0.28 0.28 0.29 0.31 0.28 0.16 0.13 0.13 0.09 0.06 0.06 0.06 0.05 0.01 0.01 0.01 0.00 0.01 0.01 0.00 0.00 0.00 0.00 0.02 0.04 0.02 0.05 0.08 0.10 0.16 0.37 0.82
0.46 0.44 0.39 0.45 0.49 0.49 0.46 0.39 0.32 0.26 0.26 0.20 0.15 0.16 0.13 0.12 0.13 0.12 0.05 0.01 0.00 0.03 0.01 0.01 0.00 0.00 0.00 0.00 0.00 0.04 0.08 0.10 0.12 0.16 0.19 0.22 0.28 0.65
0.33 0.33 0.28 0.30 0.33 0.35 0.40 0.45 0.45 0.42 0.37 0.28 0.19 0.16 0.16 0.15 0.13 0.09 0.04 0.01 0.00 0.01 0.01 0.00 0.00 0.00 0.00 0.00 0.00 0.02 0.10 0.24 0.37 0.25 0.29 0.26 0.31 0.31
0.32 0.33 0.31 0.29 0.28 0.27 0.29 0.31 0.32 0.33 0.32 0.31 0.25 0.18 0.16 0.16 0.17 0.14 0.08 0.02 0.00 0.00 0.01 0.00 0.00 0.00 0.00 0.00 0.00 0.00 0.04 0.13 0.42 0.49 0.51 0.33 0.58 0.43
0.41 0.43 0.46 0.47 0.45 0.43 0.40 0.35 0.34 0.38 0.39 0.37 0.28 0.21 0.18 0.17 0.15 0.12 0.08 0.02 0.00 0.00 0.00 0.00 0.00 0.00 0.00 0.00 0.00 0.00 0.00 0.03 0.16 0.41 0.49 0.58 0.38 0.42
0.34 0.32 0.36 0.43 0.45 0.57 0.63 0.53 0.44 0.39 0.33 0.28 0.26 0.23 0.19 0.18 0.15 0.08 0.04 0.01 0.00 0.00 0.00 0.00 0.00 0.00 0.00 0.00 0.00 0.00 0.00 0.01 0.02 0.19 0.31 0.35 0.54 0.55
0.43 0.45 0.47 0.48 0.52 0.44 0.47 0.47 0.45 0.47 0.42 0.37 0.33 0.27 0.25 0.16 0.09 0.06 0.03 0.01 0.00 0.00 0.00 0.00 0.00 0.00 0.00 0.00 0.00 0.00 0.00 0.00 0.00 0.06 0.19 0.23 0.33 0.45
0.29 0.31 0.33 0.38 0.42 0.40 0.36 0.36 0.40 0.39 0.37 0.35 0.32 0.31 0.26 0.16 0.08 0.07 0.04 0.02 0.00 0.00 0.00 0.00 0.00 0.00 0.00 0.00 0.00 0.00 0.00 0.00 0.00 0.01 0.09 0.24 0.37 0.36
0.06 0.12 0.13 0.13 0.16 0.19 0.24 0.28 0.32 0.34 0.35 0.36 0.33 0.31 0.29 0.23 0.16 0.12 0.08 0.03 0.01 0.00 0.00 0.00 0.00 0.00 0.00 0.00 0.00 0.00 0.00 0.00 0.00 0.00 0.02 0.15 0.31 0.33
0.01 0.02 0.03 0.04 0.11 0.16 0.17 0.19 0.19 0.19 0.23 0.24 0.23 0.21 0.17 0.14 0.11 0.08 0.05 0.02 0.00 0.00 0.00 0.00 0.00 0.00 0.00 0.00 0.00 0.00 0.00 0.00 0.00 0.00 0.00 0.06 0.20 0.09
0.00 0.02 0.02 0.03 0.03 0.05 0.12 0.16 0.18 0.19 0.19 0.19 0.17 0.15 0.14 0.13 0.08 0.05 0.03 0.02 0.00 0.00 0.00 0.00 0.00 0.00 0.00 0.00 0.00 0.00 0.00 0.00 0.00 0.00 0.00 0.01 0.08 0.10
0.01 0.01 0.01 0.01 0.02 0.04 0.07 0.12 0.15 0.15 0.16 0.16 0.18 0.17 0.12 0.07 0.03 0.02 0.02 0.01 0.00 0.00 0.00 0.00 0.00 0.00 0.00 0.00 0.00 0.00 0.00 0.00 0.00 0.00 0.00 0.00 0.01 0.04
0.01 0.02 0.02 0.02 0.01 0.01 0.01 0.01 0.03 0.03 0.06 0.09 0.09 0.10 0.10 0.09 0.03 0.00 0.00 0.00 0.00 0.00 0.00 0.00 0.00 0.00 0.00 0.00 0.00 0.00 0.00 0.00 0.00 0.00 0.00 0.00 0.00 0.00
0.00 0.01 0.02 0.03 0.03 0.03 0.06 0.06 0.06 0.07 0.09 0.10 0.10 0.12 0.13 0.09 0.07 0.04 0.01 0.00 0.00 0.00 0.00 0.00 0.00 0.00 0.00 0.00 0.00 0.00 0.00 0.00 0.00 0.00 0.00 0.00 0.00 0.00
0.01 0.00 0.01 0.01 0.01 0.02 0.04 0.08 0.11 0.17 0.24 0.27 0.33 0.34 0.30 0.25 0.19 0.14 0.05 0.01 0.00 0.00 0.00 0.00 0.00 0.00 0.00 0.00 0.00 0.00 0.00 0.00 0.00 0.00 0.00 0.00 0.00 0.00
0.04 0.01 0.01 0.01 0.01 0.01 0.04 0.10 0.15 0.18 0.19 0.21 0.22 0.21 0.19 0.19 0.18 0.16 0.09 0.03 0.01 0.00 0.00 0.00 0.00 0.00 0.00 0.00 0.00 0.00 0.00 0.00 0.00 0.00 0.00 0.00 0.00 0.00
0.10 0.05 0.05 0.05 0.04 0.04 0.07 0.08 0.09 0.10 0.17 0.28 0.34 0.32 0.26 0.19 0.15 0.09 0.07 0.06 0.03 0.02 0.01 0.00 0.00 0.00 0.00 0.00 0.00 0.00 0.00 0.00 0.00 0.00 0.00 0.00 0.00 0.00
0.20 0.21 0.17 0.14 0.14 0.16 0.18 0.20 0.23 0.28 0.29 0.27 0.24 0.20 0.19 0.16 0.12 0.08 0.06 0.07 0.05 0.03 0.01 0.01 0.00 0.00 0.00 0.00 0.00 0.00 0.00 0.00 0.00 0.00 0.00 0.00 0.00 0.00
0.32 0.38 0.40 0.42 0.44 0.45 0.45 0.42 0.40 0.35 0.28 0.33 0.39 0.34 0.23 0.15 0.09 0.09 0.09 0.08 0.05 0.02 0.01 0.01 0.00 0.00 0.00 0.00 0.00 0.00 0.00 0.00 0.00 0.00 0.00 0.00 0.00 0.00
0.41 0.46 0.50 0.56 0.56 0.56 0.57 0.58 0.56 0.50 0.42 0.33 0.27 0.22 0.20 0.17 0.13 0.12 0.10 0.06 0.04 0.02 0.02 0.00 0.00 0.00 0.00 0.00 0.00 0.00 0.00 0.00 0.00 0.00 0.00 0.00 0.00 0.00
0.43 0.45 0.43 0.40 0.41 0.45 0.50 0.49 0.42 0.33 0.29 0.27 0.28 0.28 0.26 0.24 0.16 0.14 0.12 0.09 0.05 0.03 0.02 0.01 0.01 0.01 0.00 0.00 0.00 0.00 0.00 0.00 0.00 0.00 0.00 0.00 0.00 0.00

GFSNE_prec_precacc24_135.txt.gz
Total_Precipitation_Accumulation
0.31 0.31 0.25 0.25 0.23 0.20 0.24 0.23 0.23 0.16 0.07 0.04 0.05 0.04 0.05 0.07 0.10 0.11 0.10 0.12 0.09 0.04 0.02 0.01 0.00 0.00 0.00 0.00 0.00 0.00 0.01 0.02 0.03 0.04 0.06 0.09 0.15 0.31
0.49 0.44 0.41 0.35 0.37 0.40 0.39 0.35 0.30 0.31 0.31 0.23 0.21 0.15 0.13 0.12 0.14 0.11 0.07 0.08 0.05 0.03 0.03 0.02 0.01 0.00 0.00 0.00 0.00 0.00 0.01 0.01 0.02 0.03 0.05 0.08 0.13 0.25
0.49 0.47 0.44 0.44 0.43 0.41 0.38 0.38 0.41 0.41 0.35 0.21 0.17 0.15 0.10 0.08 0.09 0.08 0.06 0.05 0.05 0.07 0.04 0.03 0.01 0.00 0.00 0.00 0.00 0.00 0.01 0.02 0.02 0.02 0.04 0.09 0.16 0.50
0.56 0.55 0.50 0.55 0.62 0.61 0.58 0.48 0.39 0.33 0.36 0.31 0.22 0.20 0.17 0.16 0.16 0.15 0.10 0.06 0.03 0.06 0.04 0.02 0.01 0.00 0.00 0.00 0.00 0.01 0.02 0.06 0.05 0.05 0.11 0.16 0.23 0.62
0.38 0.39 0.36 0.39 0.42 0.41 0.46 0.51 0.53 0.53 0.52 0.45 0.32 0.23 0.19 0.17 0.15 0.12 0.09 0.07 0.05 0.06 0.05 0.02 0.00 0.00 0.00 0.00 0.00 0.01 0.02 0.12 0.24 0.16 0.23 0.20 0.24 0.28
0.36 0.36 0.34 0.33 0.31 0.31 0.34 0.37 0.39 0.43 0.44 0.46 0.41 0.30 0.24 0.23 0.24 0.22 0.17 0.11 0.07 0.05 0.05 0.02 0.00 0.00 0.00 0.00 0.00 0.00 0.02 0.07 0.30 0.36 0.37 0.27 0.50 0.37
0.42 0.45 0.49 0.53 0.52 0.50 0.47 0.42 0.42 0.49 0.50 0.48 0.44 0.37 0.31 0.27 0.23 0.19 0.19 0.17 0.13 0.06 0.03 0.01 0.00 0.00 0.00 0.00 0.00 0.00 0.00 0.03 0.15 0.38 0.47 0.56 0.38 0.39
0.37 0.35 0.40 0.52 0.51 0.65 0.74 0.68 0.64 0.61 0.52 0.45 0.42 0.35 0.27 0.25 0.26 0.24 0.23 0.18 0.13 0.06 0.07 0.05 0.01 0.00 0.00 0.00 0.00 0.00 0.00 0.01 0.02 0.19 0.33 0.37 0.54 0.55
0.44 0.46 0.47 0.49 0.54 0.45 0.52 0.54 0.55 0.61 0.59 0.52 0.45 0.38 0.37 0.31 0.31 0.32 0.29 0.26 0.20 0.13 0.11 0.06 0.01 0.00 0.00 0.00 0.00 0.00 0.00 0.00 0.00 0.06 0.21 0.25 0.33 0.45
0.29 0.31 0.33 0.38 0.42 0.40 0.36 0.37 0.40 0.40 0.40 0.39 0.39 0.40 0.38 0.36 0.35 0.34 0.34 0.32 0.23 0.17 0.15 0.09 0.02 0.00 0.00 0.00 0.00 0.00 0.00 0.00 0.00 0.01 0.12 0.27 0.37 0.36
0.06 0.12 0.13 0.13 0.16 0.19 0.24 0.28 0.32 0.34 0.35 0.36 0.36 0.35 0.35 0.35 0.32 0.30 0.28 0.26 0.22 0.16 0.14 0.08 0.02 0.00 0.00 0.00 0.00 0.00 0.00 0.00 0.00 0.00 0.04 0.19 0.31 0.34
0.01 0.02 0.03 0.04 0.11 0.16 0.17 0.19 0.19 0.19 0.23 0.24 0.24 0.22 0.21 0.21 0.22 0.21 0.20 0.18 0.13 0.09 0.07 0.05 0.02 0.01 0.00 0.00 0.00 0.00 0.00 0.00 0.00 0.00 0.03 0.09 0.24 0.09
0.00 0.02 0.02 0.03 0.03 0.06 0.13 0.16 0.18 0.20 0.20 0.20 0.17 0.15 0.15 0.16 0.15 0.13 0.13 0.15 0.13 0.07 0.03 0.02 0.01 0.00 0.00 0.00 0.00 0.00 0.00 0.00 0.00 0.00 0.01 0.03 0.16 0.14
0.01 0.01 0.01 0.01 0.02 0.04 0.07 0.12 0.16 0.17 0.16 0.16 0.18 0.17 0.12 0.09 0.08 0.09 0.09 0.09 0.09 0.08 0.04 0.02 0.01 0.01 0.00 0.00 0.00 0.00 0.00 0.00 0.00 0.00 0.00 0.02 0.06 0.14
0.01 0.02 0.02 0.02 0.01 0.01 0.01 0.02 0.04 0.04 0.06 0.10 0.10 0.11 0.12 0.11 0.08 0.04 0.03 0.04 0.05 0.06 0.05 0.03 0.02 0.01 0.00 0.00 0.00 0.00 0.00 0.00 0.00 0.00 0.00 0.00 0.00 0.02
0.00 0.01 0.03 0.03 0.03 0.03 0.06 0.06 0.06 0.08 0.11 0.11 0.12 0.15 0.20 0.21 0.18 0.15 0.11 0.07 0.05 0.04 0.04 0.03 0.02 0.00 0.00 0.00 0.00 0.00 0.00 0.00 0.00 0.00 0.00 0.00 0.00 0.00
0.01 0.00 0.01 0.01 0.01 0.02 0.04 0.08 0.11 0.19 0.28 0.29 0.37 0.42 0.44 0.40 0.37 0.33 0.28 0.24 0.19 0.12 0.08 0.04 0.02 0.00 0.00 0.00 0.00 0.00 0.00 0.00 0.00 0.00 0.00 0.00 0.00 0.00
0.04 0.01 0.01 0.01 0.01 0.01 0.04 0.11 0.16 0.21 0.21 0.25 0.29 0.31 0.33 0.35 0.37 0.38 0.36 0.30 0.24 0.18 0.12 0.05 0.02 0.01 0.00 0.00 0.00 0.00 0.00 0.00 0.00 0.00 0.00 0.00 0.00 0.00
0.10 0.05 0.05 0.05 0.04 0.04 0.07 0.09 0.11 0.13 0.21 0.35 0.42 0.42 0.39 0.35 0.32 0.29 0.27 0.25 0.20 0.15 0.11 0.05 0.02 0.01 0.00 0.00 0.00 0.00 0.00 0.00 0.00 0.00 0.00 0.00 0.00 0.00
0.20 0.21 0.17 0.15 0.14 0.16 0.18 0.21 0.24 0.31 0.32 0.30 0.29 0.30 0.33 0.31 0.29 0.23 0.22 0.22 0.20 0.16 0.11 0.06 0.03 0.01 0.00 0.00 0.00 0.00 0.00 0.00 0.00 0.00 0.00 0.00 0.00 0.00
0.32 0.38 0.40 0.42 0.44 0.45 0.45 0.43 0.41 0.38 0.33 0.37 0.46 0.45 0.34 0.27 0.23 0.19 0.20 0.22 0.21 0.15 0.09 0.05 0.03 0.02 0.01 0.00 0.00 0.00 0.00 0.00 0.00 0.00 0.00 0.00 0.00 0.00
0.41 0.46 0.50 0.56 0.57 0.56 0.58 0.58 0.57 0.53 0.46 0.39 0.31 0.29 0.30 0.30 0.27 0.23 0.22 0.20 0.17 0.11 0.08 0.06 0.03 0.01 0.00 0.00 0.00 0.00 0.00 0.00 0.00 0.00 0.00 0.00 0.00 0.00
0.43 0.45 0.43 0.41 0.41 0.44 0.49 0.48 0.42 0.34 0.32 0.32 0.33 0.33 0.34 0.35 0.30 0.27 0.25 0.22 0.17 0.13 0.09 0.05 0.02 0.02 0.01 0.00 0.00 0.00 0.00 0.00 0.00 0.00 0.00 0.00 0.00 0.00

GFSNE_prec_precacc24_138.txt.gz
Total_Precipitation_Accumulation
0.38 0.32 0.24 0.25 0.24 0.22 0.27 0.29 0.29 0.18 0.08 0.06 0.06 0.05 0.07 0.09 0.12 0.13 0.12 0.13 0.09 0.04 0.02 0.01 0.00 0.00 0.00 0.00 0.00 0.00 0.00 0.01 0.03 0.04 0.06 0.08 0.10 0.16
0.55 0.54 0.53 0.45 0.44 0.48 0.46 0.44 0.43 0.44 0.38 0.24 0.23 0.18 0.17 0.16 0.17 0.13 0.08 0.09 0.05 0.03 0.03 0.02 0.02 0.01 0.01 0.00 0.00 0.00 0.00 0.01 0.02 0.03 0.04 0.06 0.09 0.10
0.69 0.65 0.58 0.57 0.58 0.55 0.51 0.52 0.58 0.58 0.51 0.26 0.20 0.18 0.14 0.12 0.14 0.14 0.11 0.07 0.06 0.09 0.06 0.04 0.02 0.01 0.01 0.00 0.00 0.00 0.00 0.01 0.02 0.01 0.02 0.05 0.06 0.08
0.84 0.80 0.70 0.72 0.75 0.70 0.69 0.63 0.57 0.54 0.59 0.48 0.27 0.22 0.21 0.19 0.19 0.18 0.12 0.08 0.04 0.06 0.06 0.04 0.03 0.01 0.01 0.00 0.00 0.00 0.00 0.02 0.03 0.01 0.02 0.04 0.06 0.15
0.51 0.52 0.47 0.53 0.54 0.51 0.59 0.65 0.65 0.67 0.68 0.60 0.38 0.24 0.19 0.18 0.16 0.14 0.10 0.09 0.09 0.12 0.10 0.08 0.06 0.03 0.02 0.01 0.00 0.00 0.00 0.05 0.14 0.09 0.11 0.07 0.05 0.13
0.47 0.49 0.46 0.42 0.39 0.39 0.45 0.47 0.47 0.52 0.54 0.55 0.46 0.32 0.24 0.23 0.26 0.24 0.21 0.16 0.12 0.08 0.07 0.07 0.08 0.07 0.05 0.02 0.00 0.00 0.00 0.03 0.20 0.28 0.28 0.19 0.38 0.25
0.46 0.47 0.50 0.56 0.57 0.53 0.49 0.43 0.43 0.51 0.53 0.51 0.47 0.41 0.33 0.28 0.25 0.23 0.25 0.23 0.20 0.12 0.08 0.07 0.07 0.07 0.07 0.05 0.01 0.00 0.00 0.01 0.11 0.30 0.37 0.38 0.27 0.26
0.38 0.36 0.40 0.54 0.53 0.70 0.81 0.76 0.72 0.69 0.59 0.53 0.51 0.42 0.30 0.30 0.30 0.29 0.29 0.24 0.18 0.11 0.14 0.17 0.16 0.14 0.10 0.08 0.04 0.01 0.00 0.01 0.02 0.16 0.18 0.29 0.40 0.51
0.45 0.46 0.47 0.50 0.55 0.45 0.53 0.55 0.56 0.63 0.61 0.54 0.47 0.40 0.39 0.32 0.31 0.32 0.30 0.27 0.26 0.20 0.23 0.19 0.14 0.12 0.09 0.06 0.03 0.00 0.00 0.00 0.00 0.06 0.20 0.23 0.33 0.45
0.29 0.31 0.33 0.38 0.42 0.40 0.36 0.37 0.40 0.40 0.40 0.39 0.39 0.40 0.38 0.36 0.35 0.33 0.33 0.33 0.27 0.23 0.23 0.17 0.13 0.11 0.05 0.02 0.01 0.00 0.00 0.00 0.00 0.01 0.12 0.29 0.38 0.36
0.06 0.12 0.13 0.13 0.16 0.19 0.24 0.28 0.32 0.34 0.35 0.37 0.36 0.35 0.35 0.34 0.31 0.30 0.28 0.26 0.23 0.19 0.19 0.14 0.09 0.07 0.03 0.01 0.01 0.01 0.00 0.00 0.00 0.00 0.05 0.24 0.33 0.34
0.01 0.02 0.03 0.04 0.11 0.16 0.17 0.19 0.19 0.19 0.23 0.25 0.24 0.22 0.21 0.21 0.22 0.21 0.20 0.18 0.13 0.10 0.08 0.07 0.04 0.04 0.03 0.02 0.01 0.01 0.00 0.00 0.00 0.00 0.04 0.16 0.28 0.09
0.00 0.02 0.02 0.03 0.03 0.06 0.13 0.16 0.18 0.20 0.21 0.20 0.18 0.16 0.15 0.16 0.16 0.14 0.13 0.15 0.13 0.08 0.04 0.04 0.02 0.03 0.03 0.02 0.03 0.02 0.00 0.00 0.00 0.00 0.03 0.08 0.20 0.15
0.01 0.01 0.01 0.01 0.02 0.04 0.07 0.12 0.16 0.17 0.16 0.16 0.19 0.18 0.13 0.10 0.10 0.11 0.12 0.12 0.11 0.10 0.08 0.06 0.04 0.05 0.05 0.04 0.03 0.02 0.00 0.00 0.00 0.00 0.00 0.04 0.09 0.20
0.01 0.02 0.02 0.02 0.02 0.01 0.01 0.02 0.04 0.04 0.06 0.10 0.10 0.11 0.12 0.14 0.16 0.16 0.15 0.13 0.12 0.12 0.12 0.12 0.12 0.13 0.09 0.06 0.04 0.02 0.01 0.00 0.00 0.00 0.00 0.01 0.01 0.06
0.00 0.01 0.03 0.03 0.03 0.04 0.06 0.06 0.06 0.08 0.12 0.12 0.12 0.16 0.22 0.25 0.27 0.27 0.26 0.22 0.21 0.19 0.16 0.16 0.18 0.17 0.12 0.07 0.05 0.02 0.01 0.00 0.00 0.00 0.00 0.00 0.01 0.03
0.01 0.00 0.01 0.01 0.01 0.02 0.04 0.08 0.11 0.19 0.28 0.30 0.37 0.43 0.45 0.45 0.45 0.43 0.43 0.41 0.36 0.24 0.22 0.21 0.21 0.20 0.16 0.10 0.06 0.02 0.01 0.00 0.00 0.00 0.00 0.00 0.01 0.02
0.04 0.01 0.01 0.01 0.01 0.01 0.05 0.11 0.16 0.22 0.22 0.25 0.30 0.32 0.35 0.37 0.41 0.44 0.46 0.43 0.39 0.35 0.33 0.28 0.23 0.21 0.17 0.11 0.05 0.02 0.00 0.00 0.00 0.00 0.00 0.00 0.00 0.00
0.10 0.05 0.05 0.05 0.04 0.05 0.07 0.09 0.11 0.13 0.21 0.35 0.43 0.43 0.39 0.37 0.37 0.35 0.35 0.36 0.32 0.26 0.23 0.21 0.19 0.17 0.15 0.11 0.07 0.03 0.00 0.00 0.00 0.00 0.00 0.00 0.00 0.00
0.20 0.21 0.17 0.15 0.14 0.16 0.18 0.21 0.25 0.31 0.33 0.31 0.30 0.31 0.35 0.35 0.34 0.28 0.26 0.29 0.29 0.26 0.22 0.18 0.16 0.15 0.13 0.10 0.08 0.03 0.00 0.00 0.00 0.00 0.00 0.00 0.00 0.00
0.32 0.38 0.40 0.42 0.44 0.45 0.45 0.43 0.41 0.39 0.34 0.38 0.46 0.46 0.36 0.30 0.26 0.22 0.24 0.30 0.33 0.28 0.21 0.15 0.13 0.16 0.13 0.08 0.05 0.01 0.00 0.00 0.00 0.00 0.00 0.00 0.00 0.00
0.41 0.46 0.50 0.56 0.57 0.56 0.58 0.58 0.57 0.54 0.47 0.40 0.32 0.30 0.31 0.33 0.30 0.27 0.27 0.27 0.26 0.19 0.20 0.20 0.23 0.15 0.06 0.03 0.02 0.01 0.01 0.00 0.00 0.00 0.00 0.00 0.00 0.00
0.42 0.45 0.43 0.40 0.40 0.43 0.48 0.47 0.42 0.34 0.31 0.32 0.34 0.33 0.33 0.36 0.32 0.31 0.31 0.30 0.28 0.24 0.21 0.18 0.16 0.09 0.04 0.04 0.04 0.01 0.00 0.00 0.00 0.00 0.00 0.00 0.00 0.00

GFSNE_prec_precacc24_141.txt.gz
Total_Precipitation_Accumulation
0.34 0.34 0.28 0.26 0.24 0.22 0.29 0.31 0.31 0.21 0.09 0.07 0.08 0.08 0.10 0.13 0.18 0.18 0.16 0.16 0.12 0.06 0.02 0.01 0.00 0.00 0.00 0.00 0.00 0.00 0.00 0.01 0.02 0.03 0.06 0.08 0.10 0.11
0.81 0.70 0.58 0.47 0.46 0.53 0.52 0.49 0.48 0.51 0.44 0.25 0.24 0.20 0.19 0.17 0.18 0.14 0.09 0.10 0.06 0.04 0.03 0.02 0.02 0.01 0.01 0.00 0.00 0.00 0.00 0.00 0.01 0.02 0.04 0.06 0.09 0.08
0.74 0.74 0.68 0.66 0.70 0.71 0.69 0.67 0.69 0.70 0.66 0.32 0.21 0.22 0.21 0.15 0.16 0.15 0.12 0.08 0.07 0.10 0.06 0.04 0.03 0.01 0.01 0.00 0.00 0.00 0.00 0.00 0.01 0.01 0.02 0.04 0.05 0.03
0.92 0.94 0.87 0.93 0.99 0.94 0.91 0.81 0.74 0.71 0.76 0.57 0.31 0.28 0.27 0.24 0.23 0.20 0.13 0.08 0.04 0.06 0.07 0.05 0.03 0.02 0.02 0.02 0.01 0.01 0.01 0.00 0.01 0.01 0.02 0.03 0.01 0.02
0.70 0.75 0.70 0.72 0.70 0.66 0.72 0.79 0.79 0.82 0.82 0.70 0.44 0.27 0.22 0.20 0.19 0.16 0.11 0.09 0.09 0.13 0.11 0.09 0.07 0.05 0.04 0.03 0.02 0.02 0.01 0.01 0.05 0.06 0.09 0.03 0.01 0.03
0.54 0.55 0.54 0.50 0.47 0.47 0.55 0.57 0.57 0.62 0.62 0.62 0.50 0.34 0.26 0.25 0.27 0.25 0.22 0.16 0.12 0.09 0.08 0.09 0.10 0.10 0.08 0.05 0.04 0.02 0.00 0.00 0.07 0.17 0.18 0.05 0.02 0.02
0.61 0.58 0.61 0.66 0.63 0.57 0.53 0.45 0.45 0.53 0.55 0.53 0.48 0.41 0.33 0.29 0.26 0.24 0.26 0.24 0.20 0.12 0.08 0.07 0.08 0.10 0.11 0.13 0.07 0.04 0.02 0.00 0.05 0.21 0.31 0.20 0.12 0.08
0.61 0.54 0.56 0.67 0.62 0.78 0.91 0.90 0.85 0.77 0.67 0.62 0.59 0.49 0.37 0.34 0.32 0.31 0.30 0.25 0.18 0.11 0.14 0.17 0.16 0.15 0.12 0.11 0.13 0.08 0.02 0.01 0.02 0.13 0.14 0.21 0.24 0.36
0.58 0.57 0.57 0.59 0.62 0.47 0.55 0.57 0.58 0.65 0.62 0.55 0.49 0.41 0.39 0.32 0.31 0.32 0.30 0.27 0.26 0.20 0.23 0.19 0.14 0.13 0.10 0.10 0.11 0.04 0.02 0.01 0.00 0.05 0.16 0.15 0.21 0.33
0.31 0.33 0.34 0.38 0.42 0.40 0.36 0.37 0.40 0.40 0.40 0.39 0.39 0.40 0.38 0.36 0.35 0.33 0.33 0.33 0.27 0.23 0.23 0.17 0.13 0.11 0.06 0.03 0.06 0.03 0.02 0.01 0.00 0.01 0.12 0.29 0.37 0.35
0.06 0.12 0.13 0.13 0.16 0.19 0.24 0.28 0.32 0.34 0.35 0.37 0.36 0.35 0.35 0.35 0.31 0.30 0.28 0.26 0.23 0.19 0.19 0.14 0.09 0.07 0.04 0.03 0.04 0.06 0.02 0.01 0.02 0.02 0.06 0.25 0.35 0.35
0.01 0.02 0.03 0.04 0.11 0.16 0.17 0.19 0.19 0.19 0.23 0.25 0.24 0.22 0.21 0.22 0.23 0.21 0.20 0.18 0.13 0.10 0.08 0.07 0.04 0.05 0.04 0.03 0.02 0.03 0.04 0.06 0.06 0.06 0.08 0.18 0.37 0.13
0.00 0.02 0.02 0.03 0.03 0.06 0.13 0.16 0.18 0.20 0.21 0.20 0.18 0.16 0.15 0.16 0.16 0.14 0.14 0.16 0.14 0.09 0.06 0.05 0.02 0.03 0.04 0.03 0.04 0.06 0.08 0.10 0.10 0.07 0.06 0.14 0.38 0.26
0.01 0.01 0.01 0.01 0.02 0.04 0.08 0.13 0.17 0.17 0.16 0.17 0.19 0.18 0.13 0.10 0.10 0.11 0.14 0.16 0.16 0.14 0.13 0.12 0.07 0.06 0.07 0.07 0.09 0.11 0.11 0.09 0.07 0.03 0.02 0.13 0.29 0.39
0.01 0.02 0.02 0.02 0.02 0.01 0.01 0.02 0.04 0.04 0.06 0.10 0.11 0.11 0.12 0.14 0.16 0.16 0.16 0.16 0.17 0.19 0.21 0.19 0.18 0.18 0.16 0.13 0.13 0.14 0.14 0.10 0.06 0.01 0.01 0.08 0.14 0.19
0.00 0.01 0.03 0.03 0.03 0.04 0.06 0.06 0.06 0.08 0.12 0.12 0.12 0.16 0.22 0.25 0.27 0.27 0.27 0.24 0.23 0.22 0.23 0.26 0.28 0.26 0.23 0.20 0.21 0.21 0.17 0.10 0.04 0.01 0.01 0.05 0.16 0.20
0.01 0.00 0.01 0.01 0.01 0.02 0.04 0.08 0.11 0.19 0.28 0.30 0.37 0.43 0.45 0.45 0.45 0.44 0.44 0.43 0.39 0.25 0.23 0.24 0.26 0.26 0.25 0.24 0.23 0.20 0.18 0.10 0.05 0.02 0.01 0.02 0.11 0.16
0.04 0.00 0.00 0.01 0.01 0.01 0.05 0.11 0.16 0.22 0.22 0.25 0.30 0.32 0.35 0.37 0.41 0.44 0.46 0.44 0.41 0.36 0.34 0.32 0.31 0.30 0.27 0.22 0.17 0.16 0.17 0.13 0.08 0.02 0.01 0.00 0.02 0.08
0.06 0.01 0.03 0.05 0.04 0.05 0.07 0.09 0.11 0.13 0.21 0.35 0.43 0.43 0.40 0.37 0.39 0.35 0.36 0.37 0.35 0.28 0.25 0.24 0.26 0.23 0.21 0.17 0.16 0.16 0.14 0.12 0.07 0.03 0.01 0.00 0.00 0.01
0.11 0.12 0.13 0.14 0.14 0.16 0.18 0.21 0.25 0.31 0.33 0.31 0.31 0.31 0.36 0.36 0.35 0.28 0.27 0.30 0.31 0.30 0.26 0.22 0.23 0.18 0.16 0.14 0.16 0.17 0.16 0.10 0.03 0.01 0.00 0.00 0.00 0.00
0.27 0.34 0.39 0.42 0.44 0.45 0.45 0.43 0.41 0.39 0.34 0.38 0.46 0.47 0.37 0.32 0.27 0.23 0.25 0.31 0.36 0.31 0.24 0.16 0.15 0.23 0.24 0.17 0.16 0.12 0.09 0.05 0.01 0.00 0.00 0.00 0.00 0.00
0.39 0.45 0.50 0.56 0.57 0.56 0.58 0.58 0.58 0.55 0.48 0.40 0.32 0.30 0.32 0.35 0.31 0.28 0.28 0.28 0.28 0.21 0.21 0.22 0.31 0.29 0.16 0.08 0.07 0.07 0.06 0.04 0.01 0.00 0.00 0.00 0.00 0.00
0.38 0.43 0.42 0.40 0.40 0.43 0.47 0.48 0.42 0.34 0.32 0.32 0.34 0.33 0.34 0.37 0.33 0.31 0.31 0.30 0.29 0.26 0.23 0.21 0.25 0.20 0.12 0.11 0.11 0.09 0.05 0.03 0.01 0.00 0.00 0.00 0.00 0.00

GFSNE_prec_precacc24_144.txt.gz
Total_Precipitation_Accumulation
0.82 0.60 0.44 0.37 0.32 0.25 0.29 0.28 0.29 0.21 0.10 0.07 0.08 0.08 0.11 0.13 0.20 0.23 0.19 0.19 0.14 0.07 0.03 0.01 0.00 0.00 0.00 0.00 0.00 0.00 0.00 0.00 0.01 0.02 0.04 0.06 0.08 0.11
1.15 1.07 0.81 0.60 0.60 0.65 0.52 0.49 0.49 0.52 0.45 0.26 0.24 0.20 0.20 0.18 0.19 0.16 0.11 0.12 0.07 0.04 0.03 0.02 0.02 0.01 0.01 0.00 0.00 0.00 0.00 0.00 0.00 0.01 0.03 0.05 0.07 0.08
0.96 0.92 0.84 0.87 0.94 0.83 0.75 0.75 0.79 0.79 0.75 0.37 0.23 0.23 0.22 0.17 0.16 0.17 0.14 0.09 0.07 0.10 0.07 0.05 0.03 0.02 0.01 0.00 0.00 0.00 0.00 0.00 0.00 0.01 0.02 0.03 0.03 0.03
1.42 1.24 1.12 1.33 1.42 1.22 1.07 1.02 0.91 0.83 0.87 0.63 0.33 0.29 0.28 0.25 0.24 0.21 0.13 0.08 0.04 0.07 0.08 0.05 0.04 0.02 0.02 0.02 0.01 0.01 0.01 0.00 0.00 0.01 0.02 0.02 0.01 0.01
1.31 1.21 1.06 1.03 0.99 0.96 0.98 1.02 1.00 0.95 0.89 0.76 0.47 0.28 0.23 0.20 0.20 0.16 0.11 0.09 0.10 0.14 0.13 0.11 0.08 0.05 0.04 0.04 0.04 0.03 0.02 0.01 0.01 0.03 0.08 0.02 0.00 0.01
1.10 1.17 0.94 0.85 0.83 0.81 0.94 0.93 0.83 0.74 0.70 0.69 0.54 0.36 0.27 0.25 0.28 0.26 0.22 0.17 0.13 0.10 0.11 0.12 0.11 0.11 0.10 0.07 0.06 0.04 0.02 0.02 0.04 0.09 0.09 0.03 0.02 0.01
0.88 0.93 0.90 0.76 0.74 0.65 0.62 0.54 0.54 0.60 0.59 0.55 0.49 0.42 0.34 0.29 0.26 0.25 0.29 0.27 0.22 0.13 0.08 0.07 0.08 0.11 0.12 0.15 0.09 0.06 0.04 0.03 0.03 0.12 0.16 0.10 0.02 0.01
0.64 0.59 0.62 0.71 0.68 0.85 0.98 0.95 0.89 0.80 0.71 0.68 0.63 0.53 0.41 0.38 0.35 0.33 0.31 0.25 0.19 0.11 0.14 0.17 0.16 0.15 0.12 0.11 0.17 0.10 0.04 0.02 0.01 0.08 0.12 0.15 0.08 0.08
0.61 0.60 0.62 0.65 0.71 0.59 0.66 0.65 0.63 0.68 0.63 0.56 0.49 0.41 0.39 0.32 0.31 0.32 0.30 0.27 0.26 0.20 0.23 0.19 0.14 0.13 0.10 0.11 0.14 0.05 0.03 0.02 0.01 0.05 0.11 0.11 0.14 0.18
0.37 0.37 0.37 0.41 0.44 0.41 0.37 0.37 0.41 0.40 0.40 0.39 0.39 0.40 0.38 0.36 0.35 0.34 0.33 0.34 0.27 0.23 0.23 0.17 0.13 0.11 0.06 0.03 0.07 0.04 0.02 0.01 0.01 0.01 0.10 0.18 0.25 0.28
0.12 0.14 0.14 0.13 0.16 0.19 0.24 0.28 0.32 0.34 0.35 0.37 0.36 0.36 0.36 0.35 0.32 0.30 0.28 0.26 0.23 0.19 0.19 0.14 0.09 0.07 0.04 0.03 0.04 0.08 0.04 0.03 0.03 0.03 0.07 0.25 0.33 0.36
0.01 0.02 0.03 0.04 0.11 0.16 0.17 0.19 0.19 0.19 0.23 0.25 0.24 0.22 0.21 0.22 0.23 0.22 0.21 0.19 0.14 0.11 0.08 0.07 0.04 0.05 0.04 0.03 0.02 0.04 0.05 0.08 0.08 0.08 0.11 0.21 0.44 0.28
0.00 0.02 0.02 0.03 0.03 0.06 0.13 0.16 0.18 0.20 0.21 0.20 0.18 0.16 0.15 0.16 0.16 0.14 0.14 0.17 0.15 0.10 0.09 0.07 0.03 0.03 0.04 0.03 0.05 0.06 0.08 0.11 0.12 0.10 0.10 0.18 0.50 0.49
0.01 0.01 0.01 0.01 0.02 0.04 0.08 0.13 0.17 0.17 0.16 0.17 0.19 0.18 0.13 0.10 0.10 0.11 0.14 0.16 0.17 0.15 0.14 0.14 0.07 0.07 0.08 0.08 0.09 0.12 0.12 0.10 0.09 0.07 0.06 0.18 0.41 0.62
0.01 0.02 0.02 0.02 0.02 0.01 0.01 0.02 0.05 0.04 0.06 0.10 0.11 0.11 0.12 0.14 0.16 0.16 0.16 0.16 0.17 0.20 0.22 0.20 0.19 0.20 0.18 0.15 0.14 0.15 0.16 0.12 0.09 0.03 0.03 0.13 0.25 0.35
0.00 0.01 0.03 0.03 0.03 0.04 0.06 0.06 0.06 0.08 0.12 0.12 0.12 0.16 0.22 0.25 0.27 0.27 0.27 0.24 0.23 0.23 0.23 0.27 0.30 0.28 0.26 0.23 0.23 0.23 0.20 0.14 0.07 0.02 0.03 0.09 0.27 0.35
0.01 0.00 0.01 0.01 0.01 0.02 0.04 0.08 0.11 0.19 0.28 0.30 0.37 0.43 0.45 0.45 0.45 0.44 0.44 0.43 0.39 0.26 0.24 0.25 0.28 0.28 0.27 0.26 0.26 0.21 0.20 0.14 0.09 0.04 0.05 0.09 0.22 0.30
0.04 0.00 0.00 0.00 0.00 0.01 0.05 0.11 0.16 0.22 0.22 0.25 0.30 0.32 0.35 0.37 0.41 0.45 0.47 0.44 0.41 0.36 0.34 0.32 0.34 0.37 0.33 0.27 0.20 0.17 0.19 0.16 0.14 0.06 0.01 0.03 0.10 0.22
0.06 0.01 0.01 0.01 0.01 0.03 0.06 0.09 0.11 0.13 0.21 0.35 0.43 0.43 0.40 0.37 0.39 0.35 0.36 0.38 0.35 0.28 0.25 0.24 0.28 0.27 0.25 0.20 0.17 0.17 0.15 0.14 0.13 0.11 0.03 0.01 0.03 0.11
0.10 0.08 0.05 0.04 0.07 0.13 0.17 0.21 0.25 0.31 0.33 0.31 0.31 0.31 0.36 0.36 0.35 0.29 0.27 0.31 0.32 0.30 0.27 0.22 0.24 0.21 0.18 0.15 0.18 0.18 0.18 0.14 0.08 0.06 0.05 0.01 0.02 0.09
0.21 0.23 0.25 0.30 0.36 0.41 0.43 0.42 0.41 0.39 0.35 0.38 0.47 0.47 0.38 0.32 0.28 0.24 0.26 0.34 0.38 0.33 0.25 0.16 0.15 0.25 0.32 0.25 0.22 0.14 0.11 0.08 0.04 0.02 0.03 0.02 0.01 0.02
0.29 0.32 0.37 0.47 0.50 0.52 0.56 0.58 0.58 0.55 0.48 0.41 0.33 0.30 0.33 0.35 0.32 0.29 0.29 0.29 0.29 0.23 0.22 0.23 0.32 0.34 0.22 0.11 0.08 0.08 0.07 0.07 0.06 0.03 0.01 0.01 0.00 0.00
0.28 0.32 0.32 0.33 0.37 0.41 0.47 0.48 0.42 0.34 0.32 0.33 0.35 0.34 0.34 0.37 0.33 0.32 0.32 0.31 0.31 0.28 0.24 0.22 0.27 0.25 0.16 0.13 0.14 0.13 0.09 0.07 0.06 0.03 0.01 0.00 0.00 0.00

GFSNE_prec_precacc24_147.txt.gz
Total_Precipitation_Accumulation
1.08 0.91 0.73 0.60 0.52 0.41 0.41 0.42 0.37 0.20 0.08 0.06 0.08 0.09 0.11 0.13 0.20 0.23 0.19 0.19 0.14 0.07 0.03 0.02 0.01 0.01 0.00 0.00 0.00 0.00 0.00 0.00 0.00 0.00 0.02 0.04 0.06 0.09
1.30 1.15 0.98 0.78 0.74 0.86 0.87 0.75 0.71 0.69 0.56 0.32 0.29 0.23 0.20 0.19 0.19 0.17 0.11 0.12 0.07 0.05 0.04 0.03 0.03 0.03 0.03 0.02 0.01 0.00 0.00 0.00 0.00 0.00 0.02 0.04 0.06 0.07
1.24 1.11 0.99 0.94 1.02 1.00 1.01 1.07 1.17 1.20 1.05 0.49 0.31 0.28 0.25 0.18 0.19 0.18 0.14 0.09 0.08 0.12 0.08 0.05 0.03 0.03 0.02 0.02 0.01 0.01 0.00 0.00 0.00 0.01 0.01 0.03 0.03 0.03
1.46 1.31 1.11 1.18 1.35 1.38 1.36 1.30 1.23 1.10 1.12 0.84 0.47 0.41 0.44 0.38 0.27 0.21 0.13 0.08 0.04 0.08 0.09 0.06 0.05 0.04 0.04 0.05 0.05 0.03 0.02 0.01 0.01 0.01 0.03 0.02 0.01 0.01
1.27 1.19 1.08 1.11 1.14 1.10 1.14 1.18 1.19 1.27 1.34 1.28 0.85 0.51 0.35 0.25 0.21 0.16 0.11 0.09 0.10 0.15 0.14 0.12 0.10 0.07 0.05 0.05 0.04 0.04 0.02 0.02 0.02 0.04 0.05 0.02 0.00 0.01
1.16 1.21 1.08 1.02 1.04 1.11 1.29 1.34 1.34 1.35 1.24 1.10 0.80 0.52 0.39 0.31 0.32 0.28 0.23 0.17 0.14 0.11 0.13 0.13 0.13 0.12 0.11 0.07 0.06 0.04 0.02 0.03 0.03 0.04 0.02 0.02 0.02 0.00
1.05 1.13 1.11 1.04 0.97 0.91 0.90 0.88 0.88 0.93 0.83 0.71 0.62 0.50 0.38 0.30 0.28 0.26 0.30 0.28 0.22 0.13 0.08 0.07 0.08 0.11 0.12 0.15 0.09 0.06 0.05 0.04 0.02 0.04 0.04 0.04 0.01 0.00
0.94 0.88 0.87 0.89 0.79 0.99 1.10 1.04 0.95 0.85 0.77 0.73 0.68 0.58 0.44 0.40 0.35 0.33 0.31 0.25 0.19 0.11 0.14 0.17 0.16 0.15 0.12 0.11 0.18 0.10 0.05 0.03 0.01 0.04 0.08 0.10 0.02 0.02
0.69 0.68 0.72 0.71 0.74 0.60 0.68 0.67 0.66 0.73 0.67 0.61 0.55 0.47 0.44 0.34 0.31 0.32 0.30 0.27 0.26 0.20 0.23 0.19 0.14 0.13 0.10 0.11 0.14 0.06 0.03 0.02 0.01 0.03 0.09 0.09 0.07 0.01
0.54 0.54 0.47 0.46 0.49 0.45 0.39 0.39 0.42 0.41 0.40 0.40 0.39 0.41 0.38 0.36 0.35 0.34 0.33 0.34 0.27 0.23 0.23 0.17 0.13 0.11 0.06 0.03 0.07 0.04 0.03 0.01 0.01 0.01 0.09 0.14 0.16 0.11
0.22 0.27 0.25 0.19 0.19 0.20 0.23 0.28 0.33 0.34 0.35 0.37 0.36 0.36 0.36 0.35 0.32 0.30 0.28 0.26 0.23 0.19 0.19 0.14 0.09 0.07 0.04 0.03 0.04 0.08 0.04 0.03 0.03 0.03 0.07 0.25 0.25 0.24
0.04 0.04 0.05 0.06 0.13 0.17 0.17 0.19 0.19 0.19 0.23 0.25 0.24 0.22 0.21 0.22 0.23 0.22 0.21 0.19 0.14 0.11 0.08 0.08 0.05 0.05 0.04 0.03 0.02 0.04 0.05 0.08 0.08 0.08 0.11 0.21 0.44 0.28
0.00 0.01 0.02 0.03 0.03 0.06 0.13 0.16 0.18 0.20 0.21 0.20 0.18 0.16 0.15 0.16 0.16 0.14 0.14 0.17 0.16 0.11 0.09 0.08 0.03 0.04 0.05 0.03 0.05 0.06 0.08 0.11 0.12 0.10 0.10 0.18 0.50 0.49
0.00 0.01 0.01 0.01 0.02 0.04 0.08 0.13 0.17 0.17 0.16 0.17 0.19 0.18 0.13 0.10 0.10 0.11 0.14 0.16 0.18 0.16 0.14 0.15 0.08 0.07 0.09 0.08 0.09 0.12 0.12 0.10 0.09 0.07 0.06 0.19 0.41 0.62
0.01 0.02 0.02 0.02 0.02 0.01 0.01 0.02 0.05 0.04 0.06 0.10 0.11 0.11 0.12 0.14 0.16 0.16 0.16 0.16 0.17 0.20 0.22 0.20 0.20 0.21 0.19 0.16 0.15 0.15 0.17 0.12 0.09 0.03 0.03 0.13 0.25 0.36
0.00 0.01 0.03 0.03 0.03 0.04 0.06 0.06 0.06 0.08 0.12 0.12 0.12 0.16 0.22 0.25 0.27 0.27 0.27 0.24 0.23 0.23 0.23 0.27 0.31 0.30 0.27 0.24 0.24 0.24 0.20 0.14 0.07 0.02 0.03 0.09 0.27 0.37
0.01 0.00 0.01 0.01 0.01 0.02 0.04 0.08 0.11 0.19 0.28 0.30 0.37 0.43 0.45 0.45 0.45 0.44 0.44 0.43 0.39 0.26 0.24 0.25 0.28 0.28 0.28 0.27 0.27 0.21 0.20 0.14 0.09 0.04 0.05 0.10 0.23 0.32
0.03 0.00 0.00 0.00 0.00 0.01 0.05 0.11 0.16 0.22 0.22 0.25 0.30 0.32 0.35 0.37 0.41 0.45 0.47 0.44 0.41 0.36 0.34 0.32 0.34 0.37 0.33 0.28 0.22 0.18 0.19 0.16 0.14 0.06 0.01 0.04 0.11 0.25
0.05 0.01 0.01 0.01 0.01 0.03 0.06 0.09 0.11 0.13 0.21 0.35 0.43 0.43 0.40 0.37 0.39 0.35 0.36 0.38 0.35 0.28 0.25 0.24 0.28 0.27 0.27 0.20 0.17 0.18 0.15 0.14 0.15 0.13 0.03 0.01 0.03 0.14
0.07 0.07 0.04 0.03 0.05 0.11 0.15 0.19 0.24 0.31 0.33 0.31 0.31 0.31 0.36 0.36 0.35 0.29 0.27 0.31 0.32 0.31 0.27 0.23 0.24 0.21 0.21 0.16 0.19 0.19 0.19 0.15 0.09 0.07 0.06 0.02 0.02 0.12
0.16 0.16 0.17 0.19 0.19 0.25 0.30 0.33 0.36 0.38 0.35 0.38 0.47 0.47 0.38 0.32 0.28 0.24 0.26 0.34 0.39 0.34 0.26 0.16 0.15 0.25 0.33 0.28 0.24 0.15 0.11 0.08 0.04 0.03 0.04 0.04 0.02 0.03
0.18 0.22 0.24 0.30 0.33 0.35 0.39 0.44 0.50 0.51 0.47 0.41 0.33 0.31 0.33 0.35 0.32 0.30 0.29 0.30 0.30 0.23 0.23 0.23 0.32 0.35 0.27 0.13 0.08 0.08 0.08 0.08 0.09 0.07 0.03 0.02 0.01 0.01
0.17 0.21 0.21 0.21 0.25 0.30 0.36 0.38 0.36 0.31 0.30 0.33 0.35 0.34 0.34 0.38 0.34 0.33 0.33 0.32 0.31 0.28 0.25 0.23 0.28 0.27 0.18 0.14 0.16 0.14 0.11 0.12 0.11 0.07 0.04 0.01 0.00 0.00

GFSNE_prec_precacc24_150.txt.gz
Total_Precipitation_Accumulation
1.04 0.92 0.88 0.97 0.98 0.77 0.66 0.54 0.53 0.41 0.20 0.11 0.11 0.12 0.13 0.15 0.22 0.23 0.19 0.19 0.14 0.07 0.03 0.02 0.02 0.01 0.01 0.01 0.00 0.00 0.00 0.00 0.00 0.00 0.01 0.02 0.04 0.08
1.24 1.15 0.99 0.83 0.85 1.05 1.15 1.06 1.00 0.94 0.76 0.25 0.25 0.37 0.44 0.45 0.36 0.25 0.14 0.14 0.07 0.05 0.04 0.03 0.03 0.03 0.03 0.02 0.02 0.01 0.00 0.00 0.00 0.00 0.01 0.02 0.05 0.06
1.20 1.09 0.99 0.94 1.04 1.04 1.06 1.16 1.27 1.26 1.23 0.56 0.33 0.37 0.41 0.32 0.31 0.31 0.25 0.17 0.13 0.15 0.09 0.05 0.03 0.03 0.02 0.02 0.02 0.03 0.03 0.03 0.03 0.02 0.02 0.03 0.03 0.03
1.44 1.30 1.11 1.24 1.36 1.21 1.23 1.24 1.23 1.15 1.27 0.98 0.55 0.51 0.59 0.62 0.66 0.62 0.47 0.30 0.14 0.14 0.12 0.06 0.05 0.04 0.04 0.05 0.05 0.05 0.05 0.02 0.02 0.01 0.02 0.02 0.01 0.01
1.22 1.14 1.06 1.08 1.12 1.05 1.05 1.01 1.02 1.19 1.42 1.43 1.02 0.70 0.63 0.59 0.53 0.39 0.27 0.21 0.16 0.19 0.16 0.12 0.10 0.07 0.06 0.05 0.04 0.04 0.02 0.02 0.02 0.02 0.03 0.01 0.00 0.00
1.09 1.15 1.01 0.94 1.00 1.09 1.25 1.26 1.25 1.31 1.30 1.30 1.09 0.79 0.66 0.61 0.59 0.46 0.35 0.26 0.19 0.14 0.14 0.14 0.13 0.13 0.11 0.07 0.06 0.04 0.02 0.03 0.03 0.02 0.01 0.01 0.00 0.00
0.98 1.05 0.98 0.91 0.87 0.81 0.82 0.85 0.94 1.09 1.11 1.08 0.91 0.69 0.52 0.43 0.39 0.34 0.37 0.33 0.27 0.16 0.10 0.08 0.09 0.11 0.12 0.15 0.09 0.06 0.05 0.04 0.02 0.01 0.02 0.02 0.01 0.00
0.97 0.93 0.89 0.99 0.85 0.94 1.03 1.02 1.00 0.96 0.90 0.85 0.79 0.64 0.50 0.47 0.40 0.36 0.33 0.27 0.20 0.11 0.14 0.17 0.16 0.15 0.12 0.11 0.18 0.11 0.05 0.04 0.01 0.01 0.04 0.06 0.00 0.00
0.92 0.88 0.87 0.87 0.87 0.70 0.74 0.72 0.77 0.84 0.76 0.67 0.62 0.55 0.52 0.43 0.40 0.40 0.34 0.29 0.26 0.20 0.23 0.19 0.14 0.13 0.10 0.11 0.14 0.06 0.04 0.02 0.01 0.02 0.06 0.06 0.01 0.00
0.72 0.67 0.67 0.64 0.62 0.48 0.42 0.41 0.47 0.50 0.48 0.45 0.42 0.44 0.41 0.38 0.37 0.36 0.34 0.34 0.27 0.23 0.23 0.17 0.13 0.11 0.06 0.03 0.07 0.04 0.03 0.02 0.02 0.02 0.06 0.09 0.04 0.02
0.53 0.46 0.46 0.41 0.41 0.33 0.29 0.29 0.33 0.36 0.37 0.38 0.38 0.36 0.36 0.35 0.32 0.30 0.28 0.26 0.23 0.19 0.19 0.14 0.09 0.07 0.04 0.03 0.04 0.08 0.04 0.03 0.03 0.03 0.07 0.20 0.17 0.14
0.22 0.20 0.18 0.19 0.25 0.24 0.19 0.18 0.16 0.17 0.23 0.25 0.24 0.22 0.21 0.22 0.23 0.22 0.21 0.19 0.14 0.11 0.08 0.08 0.05 0.05 0.04 0.03 0.02 0.04 0.05 0.08 0.09 0.08 0.11 0.21 0.41 0.25
0.08 0.06 0.04 0.03 0.01 0.02 0.04 0.06 0.15 0.20 0.21 0.20 0.18 0.16 0.15 0.16 0.16 0.14 0.14 0.17 0.16 0.11 0.10 0.08 0.04 0.04 0.05 0.03 0.05 0.06 0.08 0.11 0.12 0.11 0.11 0.19 0.50 0.49
0.00 0.00 0.00 0.01 0.01 0.01 0.02 0.08 0.15 0.17 0.16 0.17 0.19 0.18 0.13 0.10 0.10 0.11 0.14 0.16 0.18 0.16 0.14 0.15 0.08 0.08 0.09 0.09 0.10 0.12 0.12 0.10 0.09 0.07 0.06 0.19 0.41 0.62
0.00 0.01 0.01 0.02 0.01 0.01 0.01 0.02 0.04 0.04 0.06 0.10 0.11 0.11 0.13 0.15 0.16 0.16 0.16 0.16 0.17 0.20 0.22 0.20 0.20 0.21 0.19 0.16 0.15 0.16 0.17 0.12 0.09 0.03 0.03 0.13 0.25 0.37
0.00 0.01 0.01 0.01 0.02 0.03 0.05 0.05 0.05 0.07 0.12 0.12 0.12 0.16 0.22 0.25 0.27 0.27 0.27 0.24 0.23 0.23 0.23 0.27 0.31 0.30 0.27 0.25 0.25 0.25 0.20 0.14 0.07 0.02 0.03 0.09 0.27 0.37
0.01 0.00 0.00 0.00 0.00 0.01 0.02 0.05 0.09 0.17 0.27 0.29 0.37 0.43 0.45 0.45 0.45 0.44 0.44 0.43 0.39 0.26 0.24 0.25 0.28 0.28 0.28 0.27 0.27 0.22 0.21 0.15 0.09 0.04 0.05 0.10 0.23 0.32
0.02 0.00 0.00 0.00 0.00 0.01 0.03 0.08 0.13 0.20 0.20 0.24 0.30 0.32 0.35 0.37 0.41 0.45 0.47 0.44 0.41 0.36 0.34 0.32 0.34 0.37 0.33 0.28 0.22 0.18 0.19 0.16 0.14 0.06 0.02 0.04 0.11 0.25
0.02 0.01 0.01 0.01 0.01 0.03 0.05 0.07 0.09 0.11 0.19 0.34 0.43 0.43 0.40 0.37 0.40 0.35 0.36 0.38 0.35 0.28 0.26 0.24 0.28 0.28 0.27 0.21 0.17 0.18 0.16 0.14 0.16 0.14 0.03 0.01 0.03 0.14
0.05 0.06 0.04 0.02 0.04 0.09 0.13 0.17 0.23 0.29 0.30 0.30 0.31 0.31 0.36 0.37 0.35 0.29 0.27 0.31 0.32 0.31 0.27 0.23 0.24 0.21 0.21 0.16 0.21 0.19 0.19 0.15 0.09 0.08 0.07 0.02 0.02 0.13
0.03 0.07 0.09 0.07 0.07 0.10 0.15 0.20 0.27 0.32 0.31 0.36 0.46 0.47 0.38 0.33 0.29 0.24 0.26 0.34 0.39 0.34 0.26 0.16 0.16 0.26 0.34 0.30 0.27 0.15 0.11 0.08 0.05 0.04 0.05 0.07 0.03 0.04
0.05 0.06 0.08 0.10 0.09 0.12 0.17 0.23 0.29 0.34 0.35 0.33 0.29 0.28 0.32 0.36 0.33 0.30 0.30 0.30 0.30 0.24 0.23 0.23 0.32 0.35 0.28 0.16 0.09 0.08 0.08 0.08 0.10 0.09 0.04 0.03 0.01 0.01
0.05 0.07 0.08 0.08 0.07 0.12 0.22 0.28 0.27 0.22 0.21 0.23 0.27 0.30 0.32 0.38 0.34 0.33 0.34 0.33 0.32 0.29 0.25 0.23 0.28 0.27 0.19 0.16 0.16 0.14 0.11 0.12 0.13 0.10 0.06 0.04 0.01 0.00

GFSNE_prec_precacc24_153.txt.gz
Total_Precipitation_Accumulation
1.01 0.88 0.85 0.95 1.01 0.88 0.86 0.88 0.94 0.76 0.45 0.25 0.24 0.28 0.38 0.38 0.25 0.24 0.21 0.20 0.15 0.07 0.03 0.03 0.05 0.05 0.03 0.01 0.00 0.00 0.00 0.00 0.00 0.00 0.00 0.01 0.03 0.06
1.13 1.04 0.90 0.75 0.80 1.01 1.14 1.12 1.12 1.10 0.90 0.34 0.30 0.38 0.45 0.47 0.41 0.39 0.24 0.21 0.13 0.09 0.07 0.06 0.07 0.06 0.05 0.03 0.02 0.01 0.00 0.00 0.00 0.01 0.01 0.02 0.04 0.05
1.08 0.95 0.87 0.83 0.95 0.96 1.00 1.12 1.27 1.29 1.27 0.58 0.34 0.36 0.42 0.38 0.37 0.39 0.36 0.29 0.25 0.29 0.21 0.15 0.09 0.05 0.03 0.02 0.02 0.03 0.03 0.03 0.03 0.02 0.02 0.03 0.03 0.03
1.38 1.24 1.04 1.16 1.29 1.16 1.20 1.22 1.21 1.13 1.24 0.94 0.49 0.46 0.58 0.65 0.73 0.73 0.58 0.45 0.32 0.31 0.30 0.23 0.16 0.09 0.06 0.05 0.05 0.05 0.05 0.02 0.02 0.01 0.02 0.02 0.01 0.01
1.20 1.08 0.99 1.02 1.07 1.02 1.03 0.99 0.97 1.07 1.27 1.34 0.97 0.66 0.61 0.58 0.63 0.55 0.42 0.37 0.36 0.43 0.40 0.33 0.23 0.13 0.07 0.05 0.04 0.04 0.02 0.02 0.02 0.02 0.02 0.01 0.00 0.00
1.03 1.10 0.93 0.85 0.93 1.03 1.20 1.22 1.23 1.27 1.20 1.14 0.95 0.74 0.65 0.64 0.67 0.56 0.49 0.42 0.41 0.38 0.34 0.25 0.20 0.15 0.12 0.08 0.06 0.04 0.02 0.03 0.03 0.02 0.01 0.01 0.01 0.01
0.90 0.97 0.90 0.83 0.78 0.71 0.73 0.76 0.84 0.96 0.98 0.97 0.83 0.67 0.56 0.49 0.46 0.42 0.47 0.48 0.50 0.35 0.27 0.23 0.17 0.15 0.14 0.15 0.09 0.06 0.05 0.04 0.02 0.01 0.01 0.02 0.01 0.00
0.82 0.79 0.75 0.85 0.75 0.83 0.91 0.93 0.90 0.85 0.80 0.76 0.72 0.64 0.56 0.55 0.48 0.42 0.40 0.36 0.31 0.18 0.21 0.23 0.20 0.17 0.13 0.11 0.18 0.11 0.05 0.04 0.02 0.01 0.04 0.04 0.00 0.00
0.61 0.57 0.58 0.64 0.74 0.60 0.65 0.65 0.68 0.75 0.68 0.61 0.59 0.54 0.55 0.52 0.52 0.53 0.47 0.40 0.34 0.26 0.28 0.21 0.14 0.13 0.10 0.11 0.14 0.06 0.04 0.02 0.02 0.02 0.05 0.04 0.01 0.00
0.57 0.51 0.52 0.52 0.54 0.48 0.47 0.38 0.42 0.44 0.45 0.46 0.46 0.49 0.47 0.44 0.44 0.44 0.42 0.40 0.31 0.25 0.24 0.17 0.13 0.11 0.06 0.03 0.07 0.04 0.03 0.02 0.02 0.02 0.05 0.07 0.02 0.01
0.70 0.58 0.62 0.79 0.81 0.69 0.56 0.47 0.39 0.44 0.41 0.39 0.35 0.37 0.39 0.39 0.35 0.32 0.29 0.26 0.24 0.19 0.19 0.14 0.09 0.07 0.04 0.03 0.04 0.08 0.04 0.03 0.03 0.03 0.06 0.13 0.09 0.09
0.44 0.56 0.59 0.54 0.66 0.51 0.42 0.35 0.28 0.28 0.28 0.25 0.23 0.21 0.22 0.22 0.24 0.22 0.21 0.19 0.14 0.11 0.08 0.08 0.05 0.05 0.04 0.03 0.02 0.04 0.05 0.08 0.09 0.08 0.11 0.18 0.33 0.21
0.20 0.24 0.26 0.16 0.10 0.10 0.10 0.12 0.15 0.15 0.15 0.14 0.15 0.15 0.15 0.16 0.16 0.14 0.14 0.17 0.16 0.11 0.10 0.08 0.04 0.04 0.05 0.03 0.05 0.06 0.08 0.11 0.12 0.11 0.11 0.19 0.49 0.47
0.01 0.01 0.01 0.02 0.01 0.01 0.01 0.01 0.02 0.03 0.04 0.08 0.16 0.18 0.13 0.10 0.10 0.11 0.14 0.16 0.18 0.16 0.14 0.15 0.08 0.08 0.09 0.09 0.10 0.12 0.12 0.10 0.09 0.07 0.06 0.19 0.42 0.63
0.00 0.00 0.00 0.00 0.01 0.00 0.01 0.01 0.03 0.01 0.01 0.03 0.07 0.10 0.13 0.15 0.16 0.16 0.16 0.16 0.17 0.20 0.22 0.20 0.20 0.21 0.19 0.16 0.15 0.16 0.17 0.12 0.09 0.03 0.03 0.13 0.25 0.37
0.00 0.00 0.00 0.00 0.00 0.01 0.02 0.01 0.01 0.01 0.05 0.05 0.06 0.13 0.22 0.25 0.27 0.27 0.27 0.24 0.23 0.23 0.23 0.27 0.31 0.30 0.27 0.25 0.25 0.25 0.20 0.14 0.07 0.02 0.03 0.09 0.27 0.37
0.00 0.00 0.00 0.00 0.00 0.00 0.00 0.01 0.02 0.05 0.12 0.16 0.27 0.36 0.44 0.45 0.45 0.44 0.44 0.43 0.39 0.26 0.24 0.25 0.28 0.28 0.28 0.27 0.27 0.22 0.21 0.15 0.09 0.04 0.05 0.10 0.23 0.32
0.00 0.00 0.00 0.00 0.00 0.00 0.01 0.02 0.06 0.12 0.12 0.15 0.23 0.29 0.33 0.36 0.41 0.44 0.46 0.44 0.41 0.36 0.34 0.32 0.34 0.37 0.34 0.28 0.22 0.18 0.19 0.16 0.14 0.06 0.02 0.04 0.11 0.25
0.00 0.00 0.00 0.00 0.01 0.01 0.02 0.04 0.05 0.05 0.11 0.22 0.33 0.37 0.36 0.36 0.39 0.34 0.35 0.38 0.35 0.28 0.26 0.24 0.28 0.28 0.28 0.21 0.17 0.18 0.16 0.14 0.16 0.14 0.03 0.01 0.03 0.14
0.00 0.02 0.03 0.02 0.02 0.03 0.03 0.06 0.10 0.15 0.18 0.20 0.22 0.25 0.32 0.35 0.34 0.27 0.26 0.30 0.32 0.31 0.28 0.23 0.25 0.22 0.23 0.17 0.22 0.19 0.19 0.15 0.09 0.08 0.07 0.02 0.02 0.13
0.01 0.01 0.02 0.04 0.04 0.03 0.03 0.04 0.08 0.16 0.18 0.22 0.32 0.37 0.31 0.29 0.26 0.22 0.25 0.34 0.39 0.34 0.27 0.17 0.16 0.27 0.35 0.32 0.30 0.15 0.11 0.08 0.05 0.04 0.05 0.07 0.04 0.05
0.00 0.01 0.01 0.02 0.02 0.03 0.05 0.07 0.10 0.14 0.15 0.18 0.18 0.20 0.24 0.29 0.29 0.27 0.28 0.30 0.30 0.24 0.24 0.23 0.32 0.36 0.29 0.19 0.11 0.09 0.08 0.08 0.10 0.09 0.05 0.04 0.02 0.01
0.00 0.00 0.01 0.01 0.02 0.04 0.08 0.12 0.13 0.11 0.11 0.14 0.16 0.19 0.23 0.29 0.28 0.30 0.32 0.32 0.32 0.30 0.26 0.24 0.28 0.27 0.20 0.16 0.18 0.16 0.11 0.12 0.13 0.10 0.06 0.04 0.02 0.00

GFSNE_prec_precacc24_156.txt.gz
Total_Precipitation_Accumulation
1.05 0.92 0.89 0.97 1.00 0.85 0.83 0.86 0.96 0.89 0.56 0.28 0.25 0.30 0.41 0.49 0.49 0.43 0.26 0.13 0.10 0.07 0.03 0.03 0.05 0.05 0.03 0.03 0.01 0.00 0.00 0.00 0.00 0.00 0.00 0.00 0.01 0.04
1.16 1.08 0.92 0.74 0.76 0.94 1.05 1.05 1.10 1.14 1.00 0.39 0.31 0.40 0.47 0.55 0.51 0.50 0.35 0.31 0.19 0.11 0.07 0.06 0.07 0.07 0.05 0.04 0.03 0.02 0.01 0.00 0.00 0.01 0.01 0.02 0.03 0.04
1.08 0.97 0.87 0.82 0.93 0.91 0.94 1.06 1.21 1.23 1.23 0.56 0.34 0.36 0.42 0.38 0.37 0.41 0.40 0.39 0.32 0.34 0.25 0.17 0.11 0.06 0.05 0.05 0.05 0.04 0.04 0.04 0.03 0.02 0.02 0.03 0.04 0.05
1.34 1.20 1.03 1.15 1.25 1.11 1.12 1.11 1.09 1.04 1.14 0.88 0.47 0.41 0.50 0.57 0.63 0.64 0.58 0.50 0.38 0.35 0.35 0.28 0.22 0.15 0.12 0.11 0.11 0.09 0.07 0.03 0.02 0.01 0.01 0.02 0.01 0.02
1.22 1.11 0.99 0.99 1.00 0.92 0.89 0.86 0.84 0.96 1.17 1.24 0.92 0.61 0.52 0.47 0.51 0.48 0.40 0.39 0.40 0.47 0.46 0.42 0.37 0.32 0.27 0.20 0.15 0.10 0.06 0.03 0.02 0.02 0.01 0.01 0.00 0.01
0.96 1.06 0.93 0.87 0.92 0.96 1.09 1.10 1.13 1.15 1.08 1.05 0.88 0.67 0.55 0.50 0.49 0.42 0.41 0.41 0.43 0.44 0.48 0.46 0.45 0.44 0.40 0.30 0.21 0.11 0.04 0.03 0.03 0.02 0.01 0.01 0.01 0.01
0.83 0.86 0.80 0.72 0.68 0.64 0.61 0.63 0.71 0.80 0.78 0.76 0.68 0.53 0.41 0.32 0.31 0.30 0.40 0.48 0.58 0.49 0.47 0.46 0.41 0.39 0.34 0.30 0.18 0.09 0.06 0.04 0.02 0.01 0.01 0.02 0.01 0.00
0.80 0.78 0.71 0.73 0.59 0.62 0.68 0.72 0.72 0.72 0.69 0.64 0.59 0.49 0.39 0.37 0.34 0.35 0.38 0.39 0.39 0.26 0.31 0.37 0.35 0.33 0.29 0.22 0.25 0.13 0.06 0.04 0.02 0.01 0.02 0.03 0.00 0.00
0.58 0.54 0.53 0.52 0.48 0.35 0.39 0.43 0.50 0.59 0.53 0.45 0.45 0.42 0.36 0.38 0.44 0.49 0.49 0.48 0.43 0.33 0.37 0.32 0.23 0.21 0.16 0.15 0.16 0.06 0.04 0.02 0.02 0.02 0.03 0.03 0.01 0.00
0.58 0.51 0.52 0.49 0.50 0.43 0.42 0.39 0.32 0.33 0.34 0.40 0.50 0.50 0.55 0.47 0.44 0.45 0.49 0.51 0.45 0.39 0.34 0.25 0.19 0.15 0.07 0.03 0.07 0.04 0.03 0.02 0.02 0.02 0.04 0.06 0.01 0.01
0.72 0.62 0.65 0.83 0.91 0.80 0.65 0.63 0.56 0.44 0.50 0.41 0.39 0.47 0.36 0.38 0.33 0.28 0.29 0.31 0.29 0.25 0.23 0.17 0.11 0.07 0.04 0.03 0.04 0.08 0.04 0.03 0.03 0.03 0.06 0.11 0.07 0.08
0.50 0.63 0.70 0.62 0.89 0.86 0.71 0.73 0.60 0.43 0.49 0.54 0.41 0.29 0.29 0.31 0.30 0.25 0.26 0.25 0.17 0.12 0.09 0.08 0.05 0.05 0.05 0.03 0.02 0.04 0.05 0.08 0.09 0.08 0.11 0.16 0.24 0.20
0.28 0.31 0.35 0.28 0.21 0.26 0.26 0.27 0.36 0.37 0.29 0.26 0.27 0.24 0.16 0.13 0.13 0.13 0.13 0.16 0.16 0.11 0.10 0.08 0.04 0.04 0.05 0.03 0.05 0.06 0.08 0.11 0.12 0.11 0.11 0.18 0.43 0.39
0.01 0.02 0.03 0.08 0.08 0.05 0.04 0.05 0.06 0.08 0.07 0.06 0.05 0.04 0.03 0.04 0.07 0.09 0.12 0.16 0.17 0.16 0.14 0.15 0.09 0.08 0.09 0.09 0.10 0.12 0.12 0.10 0.09 0.07 0.06 0.19 0.40 0.59
0.00 0.00 0.00 0.00 0.00 0.00 0.01 0.01 0.02 0.01 0.00 0.01 0.02 0.02 0.02 0.06 0.13 0.16 0.16 0.16 0.17 0.20 0.22 0.20 0.20 0.21 0.20 0.16 0.15 0.16 0.18 0.12 0.09 0.03 0.03 0.13 0.25 0.37
0.00 0.00 0.00 0.00 0.00 0.00 0.00 0.00 0.00 0.01 0.02 0.02 0.02 0.03 0.09 0.16 0.20 0.23 0.26 0.23 0.23 0.23 0.23 0.27 0.31 0.30 0.27 0.25 0.25 0.25 0.20 0.14 0.07 0.02 0.03 0.09 0.27 0.37
0.00 0.00 0.00 0.00 0.00 0.00 0.00 0.00 0.00 0.01 0.04 0.03 0.04 0.08 0.15 0.20 0.26 0.30 0.39 0.42 0.39 0.26 0.23 0.25 0.27 0.28 0.28 0.27 0.27 0.22 0.21 0.15 0.09 0.04 0.05 0.10 0.23 0.32
0.00 0.00 0.00 0.00 0.00 0.00 0.00 0.00 0.01 0.04 0.03 0.04 0.08 0.12 0.16 0.18 0.23 0.29 0.38 0.41 0.40 0.36 0.34 0.32 0.34 0.37 0.34 0.28 0.22 0.18 0.19 0.16 0.14 0.06 0.02 0.04 0.11 0.25
0.00 0.00 0.00 0.00 0.00 0.00 0.00 0.01 0.02 0.02 0.04 0.07 0.09 0.11 0.14 0.18 0.25 0.26 0.29 0.32 0.32 0.26 0.24 0.24 0.28 0.28 0.28 0.22 0.17 0.18 0.16 0.14 0.16 0.15 0.03 0.01 0.03 0.14
0.00 0.00 0.00 0.00 0.00 0.00 0.00 0.01 0.01 0.03 0.04 0.05 0.07 0.11 0.17 0.21 0.23 0.20 0.21 0.23 0.27 0.28 0.26 0.22 0.25 0.22 0.23 0.19 0.24 0.19 0.19 0.15 0.10 0.08 0.07 0.02 0.02 0.13
0.00 0.00 0.00 0.00 0.00 0.00 0.01 0.01 0.02 0.05 0.07 0.05 0.08 0.14 0.15 0.18 0.19 0.15 0.17 0.27 0.34 0.32 0.26 0.16 0.16 0.27 0.35 0.32 0.31 0.16 0.11 0.08 0.05 0.04 0.05 0.08 0.04 0.05
0.00 0.00 0.00 0.00 0.00 0.00 0.01 0.01 0.02 0.05 0.06 0.08 0.07 0.08 0.13 0.18 0.20 0.19 0.20 0.24 0.26 0.21 0.22 0.23 0.33 0.36 0.30 0.19 0.12 0.09 0.08 0.08 0.10 0.10 0.05 0.05 0.03 0.02
0.00 0.00 0.00 0.00 0.00 0.00 0.01 0.02 0.03 0.03 0.05 0.09 0.10 0.09 0.12 0.18 0.20 0.22 0.24 0.26 0.28 0.27 0.25 0.23 0.28 0.27 0.20 0.17 0.19 0.16 0.12 0.12 0.13 0.11 0.07 0.05 0.02 0.00

GFSNE_prec_precacc24_159.txt.gz
Total_Precipitation_Accumulation
1.01 0.89 0.88 0.98 1.03 0.87 0.84 0.90 0.99 0.90 0.56 0.28 0.24 0.29 0.41 0.48 0.49 0.47 0.34 0.23 0.16 0.08 0.03 0.02 0.05 0.05 0.03 0.03 0.01 0.01 0.01 0.00 0.00 0.00 0.00 0.00 0.00 0.02
1.04 1.00 0.84 0.68 0.70 0.91 1.02 1.03 1.09 1.09 0.95 0.36 0.28 0.39 0.47 0.54 0.50 0.50 0.35 0.29 0.20 0.12 0.07 0.06 0.07 0.07 0.05 0.04 0.03 0.03 0.02 0.01 0.01 0.01 0.01 0.02 0.02 0.03
0.92 0.85 0.77 0.74 0.82 0.83 0.89 1.03 1.17 1.20 1.20 0.52 0.31 0.34 0.40 0.36 0.34 0.39 0.39 0.36 0.29 0.29 0.22 0.16 0.11 0.08 0.06 0.06 0.05 0.06 0.06 0.06 0.05 0.04 0.03 0.03 0.04 0.06
1.24 1.10 0.93 1.07 1.15 1.03 1.05 1.06 1.07 1.00 1.06 0.78 0.41 0.39 0.47 0.53 0.60 0.62 0.53 0.45 0.35 0.32 0.32 0.28 0.24 0.17 0.15 0.15 0.15 0.14 0.13 0.10 0.09 0.05 0.03 0.02 0.02 0.02
1.18 1.06 0.92 0.92 0.95 0.91 0.90 0.87 0.83 0.93 1.06 1.09 0.79 0.55 0.50 0.46 0.50 0.45 0.35 0.33 0.34 0.42 0.42 0.42 0.41 0.37 0.35 0.32 0.27 0.21 0.18 0.16 0.14 0.11 0.06 0.01 0.01 0.00
0.95 1.05 0.92 0.85 0.91 0.99 1.13 1.16 1.19 1.16 1.03 0.93 0.73 0.57 0.49 0.45 0.45 0.35 0.33 0.32 0.36 0.40 0.44 0.45 0.47 0.47 0.48 0.46 0.41 0.35 0.30 0.25 0.18 0.11 0.04 0.01 0.01 0.01
0.85 0.88 0.79 0.67 0.61 0.60 0.64 0.70 0.77 0.80 0.74 0.69 0.54 0.39 0.30 0.26 0.27 0.26 0.31 0.34 0.46 0.44 0.46 0.48 0.45 0.44 0.45 0.48 0.46 0.44 0.37 0.25 0.17 0.09 0.02 0.01 0.01 0.00
0.79 0.76 0.68 0.65 0.52 0.54 0.60 0.61 0.62 0.62 0.58 0.53 0.47 0.39 0.32 0.31 0.23 0.20 0.20 0.23 0.27 0.21 0.29 0.40 0.45 0.46 0.43 0.40 0.48 0.36 0.26 0.16 0.07 0.04 0.02 0.01 0.00 0.00
0.58 0.54 0.53 0.51 0.47 0.35 0.36 0.38 0.43 0.48 0.38 0.33 0.37 0.34 0.25 0.24 0.24 0.24 0.24 0.28 0.29 0.27 0.35 0.41 0.37 0.34 0.29 0.24 0.24 0.14 0.10 0.06 0.04 0.02 0.01 0.02 0.01 0.00
0.59 0.51 0.52 0.49 0.51 0.43 0.42 0.41 0.35 0.35 0.33 0.38 0.48 0.48 0.50 0.42 0.36 0.36 0.37 0.32 0.31 0.36 0.38 0.37 0.38 0.33 0.19 0.11 0.12 0.06 0.04 0.03 0.03 0.02 0.01 0.03 0.01 0.01
0.72 0.62 0.65 0.83 0.92 0.80 0.66 0.65 0.64 0.63 0.68 0.51 0.43 0.55 0.47 0.46 0.54 0.46 0.43 0.36 0.31 0.26 0.25 0.23 0.23 0.19 0.14 0.10 0.08 0.09 0.04 0.03 0.03 0.03 0.03 0.07 0.06 0.08
0.51 0.64 0.71 0.63 0.90 0.89 0.74 0.79 0.67 0.53 0.59 0.63 0.46 0.32 0.39 0.42 0.43 0.40 0.45 0.38 0.29 0.24 0.18 0.20 0.17 0.16 0.12 0.06 0.03 0.04 0.05 0.08 0.09 0.08 0.09 0.12 0.20 0.20
0.29 0.32 0.36 0.30 0.24 0.31 0.35 0.38 0.46 0.49 0.43 0.35 0.35 0.35 0.28 0.29 0.34 0.37 0.39 0.37 0.29 0.21 0.20 0.16 0.11 0.07 0.06 0.04 0.05 0.06 0.08 0.11 0.12 0.11 0.09 0.16 0.34 0.35
0.02 0.03 0.04 0.08 0.10 0.08 0.09 0.12 0.13 0.16 0.17 0.13 0.09 0.10 0.13 0.12 0.10 0.09 0.11 0.16 0.15 0.11 0.11 0.14 0.08 0.07 0.09 0.09 0.10 0.12 0.12 0.10 0.09 0.07 0.06 0.18 0.35 0.49
0.00 0.00 0.00 0.00 0.00 0.00 0.00 0.01 0.01 0.01 0.02 0.03 0.03 0.02 0.02 0.04 0.08 0.12 0.14 0.13 0.12 0.14 0.17 0.17 0.18 0.20 0.19 0.16 0.15 0.16 0.18 0.12 0.09 0.04 0.03 0.13 0.25 0.34
0.00 0.00 0.00 0.00 0.00 0.00 0.00 0.00 0.00 0.00 0.00 0.00 0.00 0.00 0.01 0.04 0.09 0.12 0.16 0.17 0.18 0.18 0.19 0.24 0.29 0.29 0.27 0.25 0.25 0.26 0.20 0.14 0.07 0.02 0.03 0.09 0.27 0.37
0.00 0.00 0.00 0.00 0.00 0.00 0.00 0.00 0.00 0.00 0.00 0.00 0.00 0.00 0.01 0.05 0.09 0.11 0.16 0.19 0.20 0.14 0.16 0.21 0.25 0.28 0.28 0.27 0.27 0.22 0.21 0.15 0.09 0.04 0.05 0.10 0.23 0.32
0.00 0.00 0.00 0.00 0.00 0.00 0.00 0.00 0.00 0.00 0.00 0.00 0.01 0.01 0.02 0.02 0.04 0.07 0.11 0.14 0.17 0.18 0.22 0.28 0.32 0.36 0.33 0.28 0.22 0.18 0.19 0.16 0.14 0.06 0.02 0.04 0.11 0.25
0.00 0.00 0.00 0.00 0.00 0.00 0.00 0.00 0.00 0.00 0.00 0.00 0.01 0.01 0.01 0.02 0.07 0.06 0.09 0.13 0.15 0.14 0.15 0.19 0.26 0.27 0.28 0.22 0.17 0.18 0.16 0.14 0.16 0.15 0.03 0.01 0.03 0.14
0.00 0.00 0.00 0.00 0.00 0.00 0.00 0.00 0.00 0.00 0.01 0.01 0.02 0.02 0.03 0.05 0.07 0.05 0.05 0.08 0.12 0.15 0.17 0.17 0.21 0.21 0.23 0.19 0.24 0.19 0.19 0.15 0.10 0.08 0.07 0.02 0.02 0.13
0.00 0.00 0.00 0.00 0.00 0.00 0.00 0.00 0.00 0.01 0.02 0.01 0.01 0.03 0.03 0.06 0.06 0.05 0.06 0.13 0.18 0.20 0.18 0.12 0.13 0.25 0.35 0.33 0.31 0.16 0.11 0.08 0.05 0.04 0.06 0.09 0.04 0.05
0.00 0.00 0.00 0.00 0.00 0.00 0.00 0.00 0.00 0.02 0.02 0.02 0.02 0.02 0.03 0.06 0.06 0.07 0.08 0.11 0.13 0.13 0.16 0.17 0.30 0.35 0.29 0.19 0.12 0.09 0.08 0.08 0.10 0.10 0.06 0.05 0.03 0.02
0.00 0.00 0.00 0.00 0.00 0.00 0.01 0.01 0.01 0.02 0.01 0.03 0.03 0.03 0.03 0.06 0.06 0.09 0.11 0.12 0.16 0.17 0.18 0.19 0.26 0.26 0.19 0.16 0.19 0.17 0.12 0.12 0.13 0.11 0.07 0.05 0.03 0.00

GFSNE_prec_precacc24_162.txt.gz
Total_Precipitation_Accumulation
0.92 0.85 0.86 0.96 1.01 0.85 0.82 0.89 0.99 0.90 0.56 0.26 0.25 0.30 0.40 0.46 0.48 0.45 0.31 0.21 0.16 0.08 0.03 0.03 0.05 0.05 0.03 0.03 0.01 0.02 0.03 0.03 0.02 0.01 0.00 0.00 0.01 0.01
0.95 0.89 0.72 0.59 0.63 0.83 0.97 0.98 1.02 1.02 0.90 0.35 0.28 0.40 0.46 0.51 0.49 0.48 0.34 0.28 0.20 0.12 0.07 0.05 0.06 0.05 0.04 0.04 0.03 0.03 0.03 0.03 0.02 0.02 0.02 0.02 0.02 0.02
0.73 0.68 0.65 0.62 0.68 0.70 0.78 0.92 1.04 1.07 1.06 0.47 0.28 0.33 0.38 0.32 0.32 0.36 0.35 0.34 0.28 0.28 0.21 0.15 0.10 0.07 0.06 0.06 0.05 0.06 0.06 0.06 0.06 0.06 0.04 0.04 0.05 0.07
0.96 0.85 0.73 0.90 1.04 0.95 0.95 0.94 0.91 0.82 0.86 0.62 0.36 0.38 0.46 0.52 0.58 0.59 0.51 0.44 0.34 0.30 0.30 0.26 0.22 0.16 0.14 0.15 0.15 0.14 0.14 0.12 0.12 0.09 0.07 0.06 0.05 0.04
1.07 0.95 0.81 0.78 0.84 0.82 0.79 0.76 0.75 0.82 0.96 1.01 0.76 0.56 0.52 0.50 0.51 0.45 0.34 0.31 0.31 0.36 0.37 0.36 0.35 0.34 0.33 0.31 0.28 0.24 0.22 0.20 0.18 0.17 0.14 0.11 0.09 0.05
0.84 0.94 0.81 0.77 0.84 0.92 1.04 1.10 1.20 1.27 1.20 1.10 0.85 0.65 0.56 0.50 0.51 0.37 0.30 0.27 0.32 0.37 0.42 0.41 0.40 0.41 0.45 0.45 0.43 0.38 0.37 0.35 0.29 0.22 0.16 0.13 0.11 0.08
0.81 0.86 0.78 0.66 0.59 0.58 0.63 0.69 0.77 0.83 0.84 0.89 0.75 0.51 0.39 0.30 0.27 0.23 0.25 0.29 0.40 0.39 0.41 0.43 0.40 0.38 0.39 0.44 0.45 0.47 0.45 0.40 0.33 0.28 0.21 0.16 0.10 0.07
0.78 0.77 0.69 0.65 0.51 0.50 0.53 0.54 0.54 0.56 0.56 0.51 0.45 0.40 0.34 0.30 0.20 0.16 0.15 0.19 0.23 0.18 0.24 0.28 0.30 0.33 0.33 0.33 0.49 0.42 0.37 0.36 0.33 0.31 0.24 0.16 0.08 0.05
0.58 0.55 0.54 0.52 0.47 0.35 0.35 0.38 0.42 0.46 0.36 0.32 0.36 0.36 0.28 0.26 0.26 0.25 0.24 0.27 0.24 0.20 0.24 0.30 0.31 0.31 0.28 0.28 0.33 0.23 0.23 0.24 0.24 0.21 0.16 0.10 0.05 0.03
0.59 0.52 0.52 0.50 0.51 0.43 0.42 0.41 0.36 0.35 0.33 0.38 0.48 0.48 0.51 0.44 0.38 0.39 0.39 0.33 0.30 0.34 0.34 0.34 0.36 0.37 0.35 0.32 0.39 0.26 0.22 0.20 0.18 0.14 0.11 0.09 0.05 0.03
0.73 0.63 0.66 0.83 0.92 0.80 0.66 0.65 0.64 0.63 0.70 0.53 0.45 0.57 0.50 0.49 0.57 0.49 0.48 0.42 0.38 0.33 0.32 0.33 0.39 0.39 0.40 0.41 0.39 0.40 0.27 0.20 0.14 0.10 0.07 0.04 0.05 0.08
0.52 0.66 0.73 0.63 0.90 0.89 0.74 0.80 0.68 0.55 0.62 0.70 0.58 0.41 0.42 0.44 0.45 0.42 0.47 0.47 0.43 0.41 0.41 0.42 0.42 0.43 0.40 0.31 0.26 0.22 0.20 0.19 0.14 0.10 0.08 0.06 0.16 0.20
0.29 0.33 0.36 0.31 0.24 0.31 0.36 0.39 0.49 0.54 0.49 0.44 0.46 0.43 0.34 0.31 0.34 0.39 0.43 0.43 0.42 0.40 0.45 0.49 0.44 0.35 0.29 0.26 0.20 0.15 0.12 0.12 0.12 0.11 0.08 0.11 0.30 0.34
0.02 0.03 0.05 0.09 0.10 0.09 0.10 0.15 0.16 0.19 0.19 0.17 0.16 0.16 0.19 0.15 0.10 0.09 0.14 0.22 0.27 0.23 0.21 0.21 0.16 0.13 0.12 0.07 0.07 0.10 0.11 0.10 0.09 0.07 0.05 0.15 0.32 0.43
0.00 0.00 0.00 0.00 0.00 0.00 0.00 0.01 0.01 0.01 0.02 0.03 0.03 0.03 0.03 0.02 0.01 0.01 0.02 0.04 0.07 0.10 0.11 0.09 0.08 0.09 0.11 0.11 0.11 0.14 0.17 0.12 0.09 0.04 0.03 0.12 0.24 0.30
0.00 0.00 0.00 0.00 0.00 0.00 0.00 0.00 0.00 0.00 0.00 0.00 0.00 0.00 0.00 0.00 0.00 0.00 0.01 0.02 0.03 0.04 0.08 0.11 0.13 0.13 0.15 0.18 0.20 0.23 0.20 0.14 0.07 0.02 0.03 0.09 0.25 0.34
0.00 0.00 0.00 0.00 0.00 0.00 0.00 0.00 0.00 0.00 0.00 0.00 0.00 0.00 0.00 0.00 0.00 0.00 0.01 0.02 0.03 0.02 0.02 0.04 0.07 0.08 0.13 0.18 0.21 0.19 0.20 0.15 0.09 0.04 0.05 0.10 0.22 0.30
0.00 0.00 0.00 0.00 0.00 0.00 0.00 0.00 0.00 0.00 0.00 0.00 0.00 0.00 0.00 0.00 0.00 0.00 0.01 0.01 0.01 0.01 0.02 0.05 0.11 0.16 0.17 0.17 0.18 0.16 0.19 0.16 0.14 0.06 0.02 0.04 0.11 0.25
0.00 0.00 0.00 0.00 0.00 0.00 0.00 0.00 0.00 0.00 0.00 0.00 0.00 0.00 0.00 0.00 0.02 0.00 0.00 0.02 0.03 0.03 0.03 0.04 0.09 0.11 0.14 0.10 0.10 0.15 0.15 0.14 0.16 0.15 0.03 0.01 0.03 0.14
0.00 0.00 0.00 0.00 0.00 0.00 0.00 0.00 0.00 0.00 0.00 0.00 0.01 0.00 0.01 0.01 0.01 0.01 0.01 0.02 0.03 0.05 0.05 0.05 0.09 0.08 0.11 0.09 0.16 0.16 0.19 0.15 0.10 0.08 0.07 0.02 0.02 0.13
0.00 0.00 0.00 0.00 0.00 0.00 0.00 0.00 0.00 0.00 0.01 0.00 0.00 0.01 0.01 0.02 0.02 0.02 0.02 0.05 0.06 0.07 0.06 0.02 0.03 0.11 0.22 0.25 0.26 0.15 0.11 0.08 0.05 0.04 0.06 0.09 0.04 0.05
0.00 0.00 0.00 0.00 0.00 0.00 0.00 0.00 0.00 0.01 0.01 0.01 0.01 0.01 0.02 0.03 0.03 0.03 0.03 0.04 0.04 0.05 0.04 0.03 0.10 0.21 0.23 0.16 0.10 0.08 0.07 0.08 0.10 0.10 0.06 0.05 0.03 0.02
0.00 0.00 0.00 0.00 0.00 0.00 0.00 0.01 0.01 0.01 0.01 0.01 0.02 0.02 0.02 0.03 0.03 0.04 0.05 0.05 0.06 0.07 0.06 0.06 0.12 0.19 0.16 0.13 0.15 0.16 0.12 0.12 0.13 0.11 0.07 0.05 0.03 0.01